[[{"header":{"parameterUnit":"m.s-1","parameterCategory":1,"la1":30.6,"la2":29.2853,"lo1":-89.7004,"lo2":-87.6739,"dy":0.0162,"dx":0.0183,"nx":112,"ny":82,"refTime":"2023-07-15T12:00:00:Z","depth":0,"parameterNumber":2,"parameterNumberName":"U-component_of_WINDS"},"data":[0.0,0.0,0.0,0.0,0.0,0.0,0.0,0.0,0.0,0.0,0.0,0.0,0.0,0.0,0.0,0.0,0.0,0.0,0.0,0.0,0.0,0.0,0.0,0.0,0.0,0.0,0.0,0.0,0.0,0.0,0.0,0.0,0.0,0.0,0.0,0.0,0.0,0.0,0.0,0.0,0.0,0.0,0.0,0.0,0.0,0.0,0.0,0.0,0.0,0.0,0.0,0.0,0.0,0.0,0.0,0.0,0.0,0.0,0.0,0.0,0.0,0.0,0.0,0.0,0.0,0.0,0.0,0.0,0.0,0.0,0.0,0.0,0.0,0.0,0.0,0.0,0.0,0.0,0.0,0.0,0.0,0.0,0.0,0.0,0.0,0.0,0.0,0.0,0.0,0.0,0.2876,0.6493,0.8227,0.8668,0.7698,0.647,0.5344,0.4423,0.0,0.0,0.0,0.0,0.0,0.0,0.0,0.0,0.0,0.0,0.0,0.0,0.0,0.0,0.0,0.0,0.0,0.0,0.0,0.0,0.0,0.0,0.0,0.0,0.0,0.0,0.0,0.0,0.0,0.0,0.0,0.0,0.0,0.0,0.0,0.0,0.0,0.0,0.0,0.0,0.0,0.0,0.0,0.0,0.0,0.0,0.0,0.0,0.0,0.0,0.0,0.0,0.0,0.0,0.0,0.0,0.0,0.0,0.0,0.0,0.0,0.0,0.0,0.0,0.0,0.0,0.0,0.0,0.0,0.0,0.0,0.0,0.0,0.0,0.0,0.0,0.0,0.0,0.0,0.0,0.0,0.0,0.0,0.0,0.0,0.0,0.0,0.0,0.0,0.0,0.0,0.0,0.0,0.0,0.0,0.0,0.0,0.0,0.0,0.0,0.0,0.0,0.0,0.0,0.1162,0.3918,0.4917,0.5528,0.587,0.4559,0.35,0.2959,0.0,0.0,0.0,0.0,0.0,0.0,0.0,0.0,0.0,0.0,0.0,0.0,0.0,0.0,0.0,0.0,0.0,0.0,0.0,0.0,0.0,0.0,0.0,0.0,0.0,0.0,0.0,0.0,0.0,0.0,0.0,0.0,0.0,0.0,0.0,0.0,0.0,0.0,0.0,0.0,0.0,0.0,0.0,0.0,0.0,0.0,0.0,0.0,0.0,0.0,0.0,0.0,0.0,0.0,0.0,0.0,0.0,0.0,0.0,0.0,0.0,0.0,0.0,0.0,0.0,0.0,0.0,0.0,0.0,0.0,0.0,0.0,0.0,0.0,0.0,0.0,0.0,0.0,0.0,0.0,0.0,0.0,0.0,0.0,0.0,0.0,0.0,0.0,0.0,0.0,0.0,0.0,0.0,0.0,0.0,0.0,0.0,0.0,0.0,0.0,0.0,0.0,0.0,-0.1404,-0.0145,0.1003,0.1672,0.2212,0.2605,0.1932,0.1367,0.1107,0.16,0.0,0.0,0.0,0.0,0.0,0.0,0.0,0.0,0.0,0.0,0.0,0.0,0.0,0.0,0.0,0.0,0.0,0.0,0.0,0.0,0.0,0.0,0.0,0.0,0.0,0.0,0.0,0.0,0.0,0.0,0.0,0.0,0.0,0.0,0.0,0.0,0.0,0.0,0.0,0.0,0.0,0.0,0.0,0.0,0.0,0.0,0.0,0.0,0.0,0.0,0.0,0.0,0.0,0.0,0.0,0.0,0.0,0.0,0.0,0.0,0.0,0.0,0.0,0.0,0.0,0.0,0.0,0.0,0.0,0.0,0.0,0.0,0.0,0.0,0.0,0.0,0.0,0.0,0.0,0.0,0.0,0.0,0.0,0.0,0.0,0.0,0.0,0.0,0.0,0.0,0.0,0.0,0.0,0.0,0.0,0.0,0.0,0.0,0.0,0.0,0.0,0.0,-0.2042,-0.1486,-0.1532,-0.1044,-0.0603,-0.0352,-0.0356,-0.0446,-0.0624,-0.0268,0.0,0.0,0.0,0.0,0.0,0.0,0.0,0.0,0.0,0.0,0.0,0.0,0.0,0.0,0.0,0.0,0.0,0.0,0.0,0.0,0.0,0.0,0.0,0.0,0.0,0.0,0.0,0.0,0.0,0.0,0.0,0.0,0.0,0.0,0.0,0.0,0.0,0.0,0.0,0.0,0.0,0.0,0.0,0.0,0.0,0.0,0.0,0.0,0.0,0.0,0.0,0.0,0.0,0.0,0.0,0.0,0.0,0.0,0.0,0.0,0.0,0.0,0.0,0.0,0.0,0.0,0.0,0.0,0.0,0.0,0.0,0.0,0.0,0.0,0.0,0.0,0.0,0.0,0.0,0.0,0.0,0.0,0.0,0.0,0.0,0.0,0.0,0.0,0.0,0.0,0.0,0.0,0.0,0.0,0.0,0.0,0.0,0.0,0.0,0.0,0.0,0.0,-0.3128,-0.3117,-0.3035,-0.2716,-0.2347,-0.1951,-0.1654,-0.1612,-0.1928,-0.112,0.0,0.0,0.0,0.0,0.0,0.0,0.0,0.0,0.0,0.0,0.0,0.0,0.0,0.0,0.0,0.0,0.0,0.0,0.0,0.0,0.0,0.0,0.0,0.0,0.0,0.0,0.0,0.0,0.0,0.0,0.0,0.0,0.0,0.0,0.0,0.0,0.0,0.0,0.0,0.0,0.0,0.0,0.0,0.0,0.0,0.0,0.0,0.0,0.0,0.0,0.0,0.0,0.0,0.0,0.0,0.0,0.0,0.0,0.0,0.0,0.0,0.0,0.0,0.0,0.0,0.0,0.0,0.0,0.0,0.0,0.0,0.0,0.0,0.0,0.0,0.0,0.0,0.0,0.0,0.0,0.0,0.0,0.0,0.0,0.0,0.0,0.0,0.0,0.0,0.0,0.0,0.0,0.0,0.0,0.0,0.0,0.0,0.0,0.0,0.0,0.0,0.0,-0.3407,-0.356,-0.3952,-0.3842,-0.3548,-0.314,-0.286,-0.2637,-0.2464,0.0,0.0,0.0,0.0,0.0,0.0,0.0,0.0,0.0,0.0,0.0,0.0,0.0,0.0,0.0,0.0,0.0,0.0,0.0,0.0,0.0,0.0,0.0,0.0,0.0,0.0,0.0,0.0,0.0,0.0,0.0,0.0,0.0,0.0,0.0,0.0,0.0,0.0,0.0,0.0,0.0,0.0,0.0,0.0,0.0,0.0,0.0,0.0,0.0,0.0,0.0,0.0,0.0,0.0,0.0,0.0,0.0,0.0,0.0,0.0,0.0,0.0,0.0,0.0,0.0,0.0,0.0,0.0,0.0,0.0,0.0,0.0,0.0,0.0,0.0,0.0,0.0,0.0,0.0,0.0,0.0,0.0,0.0,0.0,0.0,0.0,0.0,0.0,0.0,0.0,0.0,0.0,0.0,0.0,0.0,0.0,0.0,0.0,0.0,0.0,0.0,0.0,-0.3565,-0.3897,-0.4243,-0.4755,-0.4777,-0.4587,-0.4065,-0.3709,-0.3303,-0.2904,0.0,0.0,0.0,0.0,0.0,0.0,0.0,0.0,0.0,0.0,0.0,0.0,0.0,0.0,0.0,0.0,0.0,0.0,0.0,0.0,0.0,0.0,0.0,0.0,0.0,0.0,0.0,0.0,0.0,0.0,0.0,0.0,0.0,0.0,0.0,0.0,0.0,0.0,0.0,0.0,0.0,0.0,0.0,0.0,0.0,0.0,0.0,0.0,0.0,0.0,0.0,0.0,0.0,0.0,0.0,0.0,0.0,0.0,0.0,0.0,0.0,0.0,0.0,0.0,0.0,0.0,0.0,0.0,0.0,0.0,0.0,0.0,0.0,0.0,0.0,0.0,0.0,0.0,0.0,0.0,0.0,0.0,0.0,0.0,0.0,0.0,0.0,0.0,0.0,0.0,0.0,0.0,0.0,0.0,0.0,0.0,0.0,0.0,0.0,0.0,0.0,0.0,-0.3974,-0.4705,-0.5277,-0.5495,-0.5718,-0.5512,-0.4783,-0.4099,-0.3548,0.0,0.0,0.0,0.0,0.0,0.0,0.0,0.0,0.0,0.0,0.0,0.0,0.0,0.0,0.0,0.0,0.0,0.0,0.0,0.0,0.0,0.0,0.0,0.0,0.0,0.0,0.0,0.0,0.0,0.0,0.0,0.0,0.0,0.0,0.0,0.0,0.0,0.0,0.0,0.0,0.0,0.0,0.0,0.0,0.0,0.0,0.0,0.0,0.0,0.0,0.0,0.0,0.0,0.0,0.0,0.0,0.0,0.0,0.0,0.0,0.0,0.0,0.0,0.0,0.0,0.0,0.0,0.0,0.0,0.0,0.0,0.0,0.0,0.0,0.0,0.0,0.0,0.0,0.0,0.0,0.0,0.0,0.0,0.0,0.0,0.0,0.0,0.0,0.0,0.0,0.0,0.0,0.0,0.0,0.0,0.0,0.0,0.0,0.0,0.0,0.0,0.0,0.0,-0.4813,-0.5528,-0.621,-0.6777,-0.6719,-0.6383,-0.5739,-0.4955,-0.4134,-0.3323,0.0,0.0,0.0,0.0,0.0,0.0,0.0,0.0,0.0,0.0,0.0,0.0,0.0,0.0,0.0,0.0,0.0,0.0,0.0,0.0,0.0,0.0,0.0,0.0,0.0,0.0,0.0,0.0,0.0,0.0,0.0,0.0,0.0,0.0,0.0,0.0,0.0,0.0,0.0,0.0,0.0,0.0,0.0,0.0,0.0,0.0,0.0,0.0,0.0,0.0,0.0,0.0,0.0,0.0,0.0,0.0,0.0,0.0,0.0,0.0,0.0,0.0,0.0,0.0,0.0,0.0,0.0,0.0,0.0,0.0,0.0,0.0,0.0,0.0,0.0,0.0,0.0,0.0,0.0,0.0,0.0,0.0,0.0,0.0,0.0,0.0,0.0,0.0,0.0,0.0,0.0,0.0,0.0,0.0,0.0,0.0,0.0,0.0,0.0,0.0,0.0,0.0,-0.561,-0.6505,-0.7222,-0.7739,-0.7995,-0.7723,-0.6677,-0.5873,-0.4909,-0.3605,0.0,0.0,0.0,0.0,0.0,0.0,0.0,0.0,0.0,0.0,0.0,0.0,0.0,0.0,0.0,0.0,0.0,0.0,0.0,0.0,0.0,0.0,0.0,0.0,0.0,0.0,0.0,0.0,0.0,0.0,0.0,0.0,0.0,0.0,0.0,0.0,0.0,0.0,0.0,0.0,0.0,0.0,0.0,0.0,0.0,0.0,0.0,0.0,0.0,0.0,0.0,0.0,0.0,0.0,0.0,0.0,0.0,0.0,0.0,0.0,0.0,0.0,0.0,0.0,0.0,0.0,0.0,0.0,0.0,0.0,0.0,0.0,0.0,0.0,0.0,0.0,0.0,0.0,0.0,0.0,0.0,0.0,0.0,0.0,0.0,0.0,0.0,0.0,0.0,0.0,0.0,0.0,0.0,0.0,0.0,0.0,0.0,0.0,0.0,0.0,0.0,0.0,-0.6325,-0.7381,-0.8173,-0.8509,-0.9275,-0.9151,-0.7587,-0.6787,-0.5675,-0.4,0.0,0.0,0.0,0.0,0.0,0.0,0.0,0.0,0.0,0.0,0.0,0.0,0.0,0.0,0.0,0.0,0.0,0.0,0.0,0.0,0.0,0.0,0.0,0.0,0.0,0.0,0.0,0.0,0.0,0.0,0.0,0.0,0.0,0.0,0.0,0.0,0.0,0.0,0.0,0.0,0.0,0.0,0.0,0.0,0.0,0.0,0.0,0.0,0.0,0.0,0.0,0.0,0.0,0.0,0.0,0.0,0.0,0.0,0.0,0.0,0.0161,0.1083,0.0,0.0,0.0,0.0,0.0,0.0,0.0,0.0,0.0,0.0,0.0,0.0,0.0,0.0,0.0,0.0,0.0,0.0,0.0,0.0,0.0,0.0,0.0,0.0,0.0,0.0,0.0,0.0,0.0,0.0,0.0,0.0,0.0,0.0,0.0,0.0,0.0,0.0,0.0,0.0,-0.6677,-0.7471,-0.8332,-0.9311,-0.9148,-0.8812,-0.8499,-0.7153,-0.5619,-0.3998,-0.2337,0.0,0.0,0.0,0.0,0.0,0.0,0.0,0.0,0.0,0.0,0.0,0.0,0.0,0.0,0.0,0.0,0.0,0.0,0.0,0.0,0.0,0.0,0.0,0.0,0.0,0.0,0.0,0.0,0.0,0.0,0.0,0.0,0.0,0.0,0.0,0.0,0.0,0.0,0.0,0.0,0.0,0.0,0.0,0.0,0.0,0.0,0.0,0.0,0.0,0.0,0.0,0.0,0.0,0.0,0.0,0.0,0.0,0.0,0.0,-0.047,-0.0082,0.0,0.0,0.0,0.0,0.0,0.0,0.0,0.0,0.0,0.0,0.0,0.0,0.0,0.0,0.0,0.0,0.0,0.0,0.0,0.0,0.0,0.0,0.0,0.0,0.0,0.0,0.0,0.0,0.0,0.0,0.0,0.0,0.0,0.0,0.0,0.0,0.0,0.0,0.0,0.0,-0.7358,-0.8127,-0.8894,-0.975,-0.9805,-0.9467,-0.8622,-0.7484,-0.6,-0.4029,-0.2438,0.0,0.0,0.0,0.0,0.0,0.0,0.0,0.0,0.0,0.0,0.0,0.0,0.0,0.0,0.0,0.0,0.0,0.0,0.0,0.0,0.0,0.0,0.0,0.0,0.0,0.0,0.0,0.0,0.0,0.0,0.0,0.0,0.0,0.0,0.0,0.0,0.0,0.0,0.0,0.0,0.0,0.0,0.0,0.0,0.0,0.0,0.0,0.0,0.0,0.0,0.0,0.0,0.0,0.6679,0.4238,0.2091,0.1646,0.0678,-0.0644,-0.0637,-0.0873,-0.1149,0.0781,0.0,0.0,0.0,0.0,0.0,0.0,0.0,0.0,0.0,0.0,0.0,0.0,0.0,0.0,0.0,0.0,0.0,0.0,0.0,0.0,0.0,0.0,0.9724,0.8122,0.6769,0.5344,0.3593,0.0,0.0,0.0,0.0,0.0,0.0,0.0,0.0,0.0,0.0,0.0,-0.7825,-0.8641,-0.9289,-0.983,-1.0287,-0.995,-0.8451,-0.7636,-0.6253,-0.3963,-0.2489,-0.1052,0.0,0.0,0.0,0.0,0.0,0.0,0.0,0.0,0.0,0.0,0.0,0.0,0.0,0.0,0.0,0.0,0.0,0.0,0.0,0.0,0.0,0.0,0.0,0.0,0.0,0.0,0.0,0.0,0.0,0.0,0.0,0.0,0.9384,0.7913,0.0,0.0,0.0,0.0,0.0,0.0,0.0,0.0,0.0,0.0,0.0,0.0,0.0,1.4509,1.4644,1.3455,1.1763,0.964,0.6782,0.4669,0.3231,0.1856,0.0771,-0.0065,-0.0801,0.0,-0.0842,-0.03,0.0,0.0,0.0,0.0,0.0,0.0,0.0,0.0,0.0,0.0,0.0,0.0,0.0,0.0,0.0,0.0,0.0,0.0,0.0,0.0,0.0,0.0,0.8322,0.7166,0.6045,0.4829,0.3263,0.1768,-0.0,-0.2316,-0.2984,-0.3404,0.0,0.0,0.0,0.0,0.0,0.0,-0.7263,-0.79,-0.8638,-0.9318,-0.8998,-0.863,-0.8412,-0.718,-0.5624,-0.3663,-0.2323,-0.0943,0.06,0.1622,0.0,0.0,0.0,0.0,0.0,0.0,0.0,0.0,0.0,0.0,0.0,0.0,0.0,0.0,0.0,0.0,0.0,0.0,0.0,0.0,0.0,0.0,0.0,0.0,0.0,0.0,0.0,0.0,0.0,1.0637,0.8893,0.7645,0.6691,0.5606,0.0,0.0,0.0,0.0,0.0,0.0,0.0,0.0,0.0,0.6535,0.9018,1.081,1.1937,1.1431,1.0327,0.8607,0.6502,0.4754,0.3336,0.2202,0.1273,0.044,-0.0257,-0.0471,-0.0242,-0.0438,0.0601,0.2481,0.0,0.0,0.0,0.0,0.8,0.8639,0.8636,0.8903,0.9197,0.9546,0.0,0.0,0.0,0.0,0.0,0.0,0.0,0.9673,0.8787,0.7882,0.6929,0.5967,0.4986,0.4176,0.3755,0.1968,-0.0067,-0.1997,-0.2895,-0.3564,-0.4424,-0.4972,0.0,0.0,0.0,-0.6796,-0.7201,-0.7743,-0.8252,-0.8692,-0.8569,-0.8198,-0.7498,-0.6449,-0.5239,-0.3912,-0.2108,-0.0398,0.1197,0.2139,0.3074,0.0,0.0,0.0,0.0,0.0,0.0,0.0,0.0,0.0,0.0,0.0,0.0,0.0,0.0,0.0,0.0,0.0,0.0,0.0,0.0,0.0,0.0,0.0,0.0,0.0,0.0,0.0,0.0,0.9729,0.8543,0.7365,0.6607,0.5553,0.0,0.0,0.0,0.0,0.0,0.0,-0.1324,-0.036,0.132,0.3862,0.5884,0.7619,0.924,0.9227,0.8583,0.7344,0.6042,0.4649,0.3316,0.2481,0.1713,0.1053,0.0562,0.0425,0.0591,0.01,0.0827,0.2362,0.3768,0.487,0.5734,0.6211,0.6461,0.6695,0.6529,0.6398,0.6384,0.6788,0.7179,0.7568,0.7933,0.0,0.0,0.0,0.0,0.8131,0.714,0.6489,0.5951,0.5081,0.4362,0.3773,0.3687,0.1913,-0.0072,-0.1707,-0.2702,-0.3599,-0.4371,-0.4918,0.0,-0.5603,-0.5962,-0.6385,-0.6806,-0.725,-0.7559,-0.7701,-0.7782,-0.7387,-0.6288,-0.5647,-0.4754,-0.3456,-0.1409,0.0427,0.2027,0.2982,0.3915,0.4916,0.0,0.0,0.0,0.0,0.0,0.0,0.0,0.0,0.0,0.0,0.0,0.0,0.0,0.0,0.0,0.0,0.0,0.0,0.0,0.0,0.0,0.0,0.0,0.0,0.0,0.0,0.0,0.0,0.0,0.7074,0.647,0.0,0.0,0.0,0.0,0.0317,-0.0952,-0.1695,-0.1695,-0.0898,0.0348,0.2084,0.4114,0.5686,0.6685,0.7002,0.6809,0.6173,0.5289,0.4346,0.3352,0.2471,0.1998,0.1726,0.1557,0.1635,0.1777,0.1371,0.1719,0.2591,0.3899,0.4597,0.505,0.5695,0.5742,0.5429,0.5845,0.5514,0.5068,0.499,0.5651,0.6337,0.6058,0.6497,0.0,0.0,0.693,0.642,0.5984,0.5758,0.5443,0.4732,0.4453,0.3964,0.2274,0.1283,0.0075,-0.1889,-0.274,-0.3315,-0.4104,0.0,-0.5012,-0.5134,-0.5495,-0.5708,-0.5629,-0.5984,-0.622,-0.6115,-0.6136,-0.579,-0.4874,-0.4942,-0.3979,-0.1602,0.0034,0.1569,0.3069,0.4315,0.534,0.6091,0.5845,0.0,0.0,0.0,0.0,0.0,0.0,0.0,0.0,0.0,0.0,0.0,0.0,0.0,0.0,0.0,0.0,0.0,0.0,0.0,0.0,0.0,0.0,0.0,0.0,0.0,0.0,0.0,0.0,0.6933,0.6468,0.0,0.4392,0.3365,0.2241,0.0874,-0.0447,-0.1317,-0.1697,-0.1157,-0.0314,0.0892,0.3449,0.4962,0.54,0.559,0.5542,0.5134,0.4492,0.3781,0.3143,0.2543,0.2217,0.203,0.196,0.2161,0.2516,0.2839,0.316,0.3499,0.4472,0.5007,0.5287,0.5566,0.5513,0.5193,0.5107,0.4657,0.4249,0.3929,0.4041,0.4222,0.3487,0.3388,0.3622,0.3561,0.3672,0.3666,0.3155,0.2643,0.2247,0.2378,0.2263,0.1833,0.1142,0.0568,-0.0162,-0.1683,-0.2436,-0.298,-0.3559,-0.3822,-0.4116,-0.4568,-0.4228,-0.4078,-0.4671,-0.4924,-0.4977,-0.4822,-0.4765,-0.4485,-0.3731,-0.3324,-0.236,-0.0647,0.0986,0.3298,0.6419,0.6662,0.7279,0.8493,0.7988,0.7528,0.0,0.0,0.0,0.0,0.0,0.0,0.0,0.0,0.0,0.0,0.0,0.0,0.0,0.0,0.0,0.0,0.0,0.0,0.0,0.0,0.0,0.0,0.0,0.0,0.0,0.8841,0.7711,0.6894,0.6572,0.6006,0.4892,0.4181,0.3254,0.1922,0.0774,-0.0186,-0.0697,-0.0461,0.0068,0.0895,0.2949,0.4146,0.4426,0.4499,0.4483,0.4232,0.3808,0.3363,0.291,0.2559,0.2417,0.242,0.2388,0.2663,0.3264,0.3872,0.4272,0.4489,0.5069,0.5374,0.5496,0.556,0.543,0.513,0.4478,0.4082,0.3852,0.3231,0.2839,0.2435,0.2008,0.1508,0.1141,0.1104,0.1302,0.1488,0.1006,0.0595,0.0293,0.0276,0.0363,0.036,0.0088,-0.026,-0.0775,-0.1633,-0.2104,-0.2444,-0.2951,-0.3078,-0.3257,-0.3462,-0.2662,-0.2245,-0.3049,-0.3111,-0.313,-0.3006,-0.3245,-0.3124,-0.253,-0.1985,-0.1075,0.035,0.2397,0.4773,0.7528,0.813,0.8917,0.9989,0.9306,0.8408,0.7361,0.0,0.0,0.0,0.0,0.0,0.0,0.0,0.0,0.0,0.0,0.0,0.0,0.0,0.0,0.0,0.0,0.0,0.0,0.0,0.0,0.0,0.0,0.0,0.9655,0.8516,0.761,0.6815,0.6794,0.6445,0.5391,0.5272,0.468,0.346,0.255,0.1808,0.1279,0.1132,0.1382,0.2112,0.263,0.3216,0.3721,0.3726,0.3626,0.3487,0.3264,0.3074,0.2753,0.2594,0.2675,0.291,0.291,0.3349,0.4082,0.4504,0.5119,0.5578,0.5697,0.5631,0.5506,0.5646,0.5457,0.4974,0.4112,0.3937,0.3907,0.3028,0.2018,0.1254,0.1828,0.1086,-0.0,-0.0,-0.0,-0.0,-0.0,-0.0,-0.0211,-0.1296,-0.0787,-0.0097,-0.0654,-0.1096,-0.1441,-0.1708,-0.1651,-0.1759,-0.2126,-0.2476,-0.2496,-0.175,-0.0815,0.0,-0.0632,-0.0629,-0.0684,-0.0842,-0.144,-0.1676,-0.1289,-0.1064,-0.0225,0.1436,0.4229,0.5951,0.6314,0.8727,1.0194,1.0546,0.9673,0.8276,0.6294,0.0,0.0,0.0,0.0,0.0,0.0,0.0,0.0,0.0,0.0,0.0,0.0,0.0,0.0,0.0,0.0,0.0,0.0,0.0,0.0,0.0,1.3307,1.1822,1.0263,0.8711,0.7523,0.6875,0.6692,0.6276,0.5462,0.5735,0.5434,0.4231,0.3796,0.3305,0.2761,0.2759,0.306,0.3593,0.3643,0.371,0.3868,0.377,0.3572,0.3431,0.3027,0.2791,0.2726,0.2476,0.2561,0.2973,0.3302,0.3878,0.4541,0.5005,0.5484,0.5942,0.616,0.6188,0.6183,0.6369,0.6013,0.5303,0.4463,0.4066,0.3852,0.3143,0.2129,0.0991,0.0615,0.0243,0.0241,0.1194,0.0709,-0.0,-0.0,0.0332,0.0437,-0.0311,-0.0202,0.01,0.0291,0.0285,0.0094,-0.0375,-0.0,-0.0182,-0.1637,-0.2012,-0.1805,-0.0881,-0.0156,0.0534,0.1487,0.1291,0.0892,0.039,0.0126,-0.0118,-0.0314,0.0197,0.1163,0.2654,0.4374,0.6477,0.8999,1.024,1.1151,1.1789,1.041,0.882,0.0,0.0,0.0,0.0,0.0,0.0,0.0,0.0,0.0,0.0,0.0,0.0,0.0,0.0,0.0,0.0,0.0,0.0,0.0,0.0,0.0,0.0,1.3585,1.2218,1.096,0.9121,0.7716,0.7044,0.6662,0.6325,0.5923,0.6241,0.6203,0.5575,0.5219,0.4827,0.4313,0.4237,0.4278,0.4365,0.4286,0.4203,0.4117,0.4126,0.3852,0.3456,0.3228,0.3081,0.2842,0.2842,0.3019,0.3377,0.3728,0.4316,0.4963,0.5238,0.5681,0.6089,0.0,0.0,0.0,0.0,0.6193,0.561,0.4794,0.4373,0.4163,0.3484,0.236,0.1233,0.0247,-0.0,0.0244,0.1584,0.1453,0.0717,0.0466,0.0463,0.0571,0.0761,0.1172,0.1365,0.1125,0.1303,0.1384,0.0791,0.1268,0.0,-0.0368,-0.1243,-0.1374,-0.0336,0.0326,0.1107,0.1931,0.1916,0.1544,0.1076,0.1147,0.1078,0.0832,0.156,0.0,0.0,0.0,0.7162,1.0495,1.1108,0.0,0.0,0.0,0.8913,0.7537,0.5408,0.0,0.0,-0.0683,-0.238,0.0,0.0,0.0,0.0,0.0,0.0,0.0,0.0,0.0,0.0,0.0,0.0,0.0,0.0,0.0,0.0,1.3995,1.2544,1.1488,0.9719,0.822,0.74,0.693,0.6632,0.6666,0.6876,0.6994,0.699,0.6757,0.6397,0.5949,0.5683,0.0,0.0,0.0,0.491,0.4582,0.4683,0.4427,0.3792,0.3864,0.3655,0.3239,0.3433,0.3623,0.3813,0.4095,0.4668,0.5251,0.5346,0.5646,0.6059,0.5955,0.6018,0.6289,0.5974,0.5946,0.5868,0.502,0.0,0.0,0.3676,0.271,0.1851,0.0371,-0.0,0.0371,0.161,0.1979,0.1847,0.1212,0.0724,0.0477,0.1593,0.2697,0.3117,0.1829,0.2211,0.26,0.1976,0.223,0.2279,0.1384,-0.0188,-0.0896,-0.0,0.0844,0.1386,0.1426,0.159,0.1601,0.1413,0.1703,0.0,0.1839,0.2702,0.3968,0.5653,0.6268,0.7933,1.0888,1.1275,1.1515,1.1744,0.9902,0.8626,0.7808,0.418,0.1224,-0.1007,-0.1876,-0.3389,0.0,0.0,0.0,0.0,0.0,0.0,0.0,0.0,0.0,0.0,0.0,0.0,0.0,0.0,0.0,1.5007,1.3981,1.2853,1.1403,1.0286,0.9211,0.8046,0.7604,0.7259,0.6966,0.7616,0.7855,0.7222,0.7864,0.7977,0.7491,0.7305,0.7222,0.7063,0.6455,0.6051,0.5975,0.5731,0.5241,0.4703,0.4348,0.0,0.4095,0.3718,0.3715,0.4095,0.4383,0.4801,0.5165,0.5359,0.5654,0.5901,0.5937,0.6077,0.611,0.606,0.601,0.586,0.5188,0.4705,0.4219,0.3507,0.2932,0.2225,0.0501,0.0374,0.0,0.1128,0.1621,0.197,0.1817,0.1689,0.1555,0.1732,0.2379,0.2901,0.3057,0.3324,0.3495,0.3178,0.3371,0.3236,0.2161,0.0685,-0.0093,0.0359,0.0974,0.1381,0.1303,0.1341,0.1447,0.1528,0.1716,0.18,0.1672,0.2454,0.35,0.4708,0.7006,0.8803,0.9868,1.0158,1.0209,1.0069,0.8423,0.736,0.6874,0.3291,0.0347,-0.1973,-0.3619,-0.4674,0.0,0.0,0.0,0.0,0.0,0.0,0.0,0.0,0.0,0.0,0.0,1.8821,1.7968,0.0,1.6403,1.5452,1.4286,1.3173,1.2184,1.1318,1.0218,0.8577,0.7981,0.7683,0.7573,0.8131,0.8427,0.8311,0.8773,0.8952,0.8848,0.8737,0.8565,0.8139,0.7871,0.7485,0.7191,0.6868,0.6362,0.5883,0.5359,0.4997,0.4704,0.4508,0.4532,0.4773,0.507,0.5422,0.5819,0.6027,0.6122,0.6157,0.6208,0.6293,0.633,0.6112,0.6107,0.6021,0.5496,0.49,0.441,0.3727,0.3291,0.2718,0.1618,0.1117,0.1112,0.1619,0.1863,0.2096,0.2201,0.2196,0.2305,0.2368,0.3045,0.3585,0.3717,0.412,0.4405,0.4003,0.4095,0.3743,0.2604,0.1724,0.1175,0.1025,0.0636,0.0442,0.0593,0.0728,0.0856,0.1063,0.1413,0.1718,0.1961,0.3339,0.4504,0.5191,0.7185,0.8368,0.8488,0.8928,0.8993,0.8669,0.74,0.6678,0.6498,0.2688,-0.0701,-0.373,-0.4736,-0.5606,0.0,0.0,0.0,0.0,0.0,0.0,0.0,1.8069,1.8841,1.9088,1.9152,1.8923,1.8272,1.7143,1.6168,1.602,1.4698,1.3607,1.3081,1.2413,1.1329,0.9476,0.8724,0.8461,0.8548,0.8753,0.9015,0.9535,0.9635,0.9797,0.9925,0.9981,0.9693,0.9233,0.9075,0.8863,0.8517,0.7987,0.7472,0.6979,0.6492,0.5952,0.5569,0.5468,0.5426,0.5624,0.5827,0.6083,0.6373,0.659,0.6658,0.6542,0.6542,0.6572,0.6717,0.626,0.6198,0.6172,0.5681,0.5081,0.4461,0.3925,0.351,0.3196,0.2835,0.2096,0.1604,0.2476,0.2474,0.2346,0.259,0.2714,0.2948,0.3145,0.397,0.4525,0.4389,0.4925,0.5217,0.4742,0.4607,0.4127,0.3055,0.2508,0.2048,0.1355,-0.0,-0.072,-0.0351,-0.0,0.032,0.0475,0.1172,0.1922,0.2542,0.4255,0.5492,0.5913,0.6903,0.7373,0.7219,0.7625,0.768,0.7296,0.6359,0.5967,0.6146,0.2232,-0.1517,-0.504,-0.5417,-0.607,1.205,1.3707,1.4851,1.4066,1.5042,1.6243,0.0,1.7054,1.782,1.8249,1.8711,1.8695,1.7784,1.7131,1.6539,1.5831,1.5027,1.4177,1.3292,1.3067,1.2588,1.1467,1.0647,1.0063,1.0097,1.0053,1.0126,1.0162,1.0568,1.0836,1.0813,1.0808,1.095,1.1244,1.0441,0.987,0.9739,0.9076,0.8499,0.8209,0.7428,0.6995,0.6799,0.6292,0.6147,0.6248,0.6353,0.6363,0.6373,0.6479,0.6653,0.6975,0.665,0.6885,0.7172,0.6512,0.6149,0.5824,0.5497,0.4878,0.4144,0.3695,0.3303,0.303,0.3196,0.296,0.2845,0.3137,0.3242,0.3332,0.3332,0.3576,0.3807,0.4111,0.4644,0.5042,0.5299,0.5786,0.6061,0.5699,0.525,0.4664,0.4035,0.279,0.146,0.0296,-0.0672,-0.1309,-0.1259,-0.0525,0.017,0.0407,0.1574,0.2731,0.3591,0.4249,0.4901,0.5608,0.5976,0.6302,0.6602,0.6385,0.6116,0.5836,0.4967,0.4749,0.5179,0.1567,-0.1641,-0.4433,-0.5405,-0.6478,1.6116,1.6607,1.6542,1.6355,1.6542,1.6807,1.7028,1.7354,1.7685,1.7794,1.7974,1.783,1.7006,1.6464,1.6102,1.6063,1.5538,1.4878,1.4514,1.4342,1.3886,1.304,1.2659,1.2008,1.1061,1.112,1.1134,1.1196,1.1587,1.1728,1.1657,1.2064,1.2106,1.1836,1.1696,1.1413,1.0895,1.0431,0.9977,0.977,0.886,0.8426,0.8377,0.7663,0.7317,0.7226,0.73,0.7334,0.7334,0.7334,0.7471,0.7517,0.7413,0.7476,0.7343,0.6624,0.6196,0.612,0.5725,0.5205,0.4599,0.4531,0.426,0.3987,0.4174,0.4071,0.3828,0.3978,0.3841,0.3822,0.3946,0.4069,0.4309,0.4526,0.5104,0.5654,0.5802,0.6336,0.6623,0.5816,0.5338,0.462,0.3625,0.2155,0.0843,-0.0102,-0.0989,-0.144,-0.1494,-0.0633,0.0347,0.1309,0.2068,0.281,0.3626,0.4202,0.4761,0.5213,0.5433,0.5563,0.5586,0.5425,0.5122,0.4706,0.4532,0.4046,0.3077,0.0766,-0.1943,-0.5153,-0.5794,-0.6878,1.9273,1.9202,1.8889,1.8694,1.8375,1.8065,1.8037,1.8003,1.7842,1.7517,1.7355,1.7074,1.6455,1.6015,1.595,1.6381,1.6124,1.5864,1.5595,1.5445,1.5046,1.4334,1.4176,1.3742,1.2475,1.2246,1.2159,1.2159,1.2472,1.264,1.2521,1.3036,1.3205,1.2598,1.2929,1.2815,1.2261,1.1763,1.1429,1.1272,1.019,0.9758,0.97,0.88,0.8347,0.8227,0.8329,0.838,0.838,0.838,0.838,0.838,0.8263,0.8066,0.7768,0.6953,0.6542,0.6374,0.6102,0.5568,0.5069,0.5385,0.5234,0.4951,0.5007,0.493,0.471,0.4567,0.4465,0.4487,0.4719,0.4853,0.5112,0.5339,0.581,0.6381,0.6515,0.6951,0.6877,0.6001,0.5276,0.4428,0.3301,0.1725,0.0318,-0.0625,-0.1011,-0.1177,-0.1244,-0.0366,0.0786,0.2164,0.2407,0.286,0.3799,0.4318,0.4773,0.5108,0.5239,0.5222,0.4931,0.4797,0.4333,0.3628,0.3708,0.2934,0.1148,-0.0263,-0.2628,-0.5861,-0.6313,-0.731,2.0408,2.1295,2.1979,1.9907,2.0061,2.0332,1.9168,1.8802,1.8334,1.7586,1.7191,1.6875,1.6299,1.6286,1.6445,1.6815,1.7022,1.6981,1.6418,1.626,1.5858,1.503,1.5006,1.493,1.4625,1.3732,1.3144,1.3144,1.3194,1.3248,1.3511,1.3751,1.4002,1.4242,1.3948,1.3846,1.3846,1.3028,1.2617,1.2617,1.1191,1.046,1.0305,0.9618,0.914,0.8913,0.9258,0.9382,0.9382,0.9382,0.9382,0.9375,0.9037,0.8792,0.8565,0.7874,0.7054,0.6293,0.6384,0.5851,0.5184,0.5964,0.5818,0.5298,0.5298,0.5414,0.5526,0.4954,0.529,0.5646,0.5564,0.6112,0.6536,0.6445,0.6969,0.7352,0.7595,0.7369,0.691,0.656,0.5276,0.4092,0.3633,0.194,0.0212,-0.1354,-0.0715,-0.0199,-0.0767,0.0271,0.1391,0.2603,0.2782,0.3292,0.4535,0.4704,0.4944,0.5438,0.5562,0.5426,0.5008,0.4711,0.3907,0.2605,0.2024,0.1063,-0.0336,-0.1791,-0.3715,-0.6168,-0.6937,-0.7731,2.3402,2.3705,2.3834,2.3477,2.2878,2.2315,2.1786,2.0481,1.9209,1.8265,1.7399,1.6675,1.6433,1.6535,1.6885,1.7554,1.7788,1.7871,1.7855,1.7699,1.7399,1.6773,1.6594,1.6346,1.5575,1.4688,1.4227,1.4227,1.4376,1.4461,1.4362,1.4712,1.4903,1.4886,1.492,1.492,1.4746,1.4434,1.4083,1.371,1.2656,1.1729,1.0816,1.0882,1.0578,1.0139,1.0249,1.0257,1.0257,1.0036,1.0036,0.9934,0.9817,0.9553,0.927,0.8869,0.8311,0.7732,0.7236,0.6536,0.6107,0.6627,0.6588,0.627,0.6337,0.6447,0.654,0.6385,0.6345,0.6306,0.6277,0.6289,0.6417,0.645,0.7027,0.7593,0.7839,0.7906,0.7698,0.6798,0.5946,0.485,0.3243,0.1847,0.0634,-0.041,-0.0203,0.0299,0.0959,0.1593,0.2198,0.2759,0.3178,0.3779,0.4694,0.5063,0.5461,0.5956,0.5708,0.5526,0.5342,0.4815,0.3789,0.2162,0.0915,-0.0514,-0.1928,-0.3867,-0.5437,-0.6669,-0.7726,-0.8639,2.6021,2.6066,2.5947,2.624,2.5595,2.4823,2.4192,2.2516,2.0783,1.9509,1.8238,1.7241,1.7188,1.7305,1.7812,1.8637,1.8851,1.906,1.9352,1.902,1.8548,1.8036,1.7611,1.7176,1.6386,1.569,1.5143,1.4836,1.5084,1.5233,1.5221,1.5695,1.5934,1.6031,1.618,1.6221,1.6041,1.5701,1.5232,1.4538,1.3686,1.2769,1.189,1.2072,1.1806,1.1354,1.1492,1.1509,1.1457,1.1193,1.1106,1.1123,1.0779,1.0591,1.0379,1.0148,0.9722,0.902,0.8171,0.7464,0.691,0.7454,0.7396,0.718,0.7168,0.7276,0.7234,0.6981,0.6828,0.6792,0.6627,0.6515,0.6515,0.6677,0.7292,0.7886,0.8217,0.8312,0.7978,0.7102,0.6116,0.4882,0.2794,0.1738,0.1159,0.0813,0.0813,0.1107,0.1937,0.2396,0.2826,0.3185,0.3735,0.4463,0.5201,0.5616,0.5984,0.6478,0.6231,0.5836,0.5394,0.461,0.3244,0.1406,-0.009,-0.1742,-0.3368,-0.5124,-0.6442,-0.7479,-0.8388,-0.9312,2.8124,2.8384,2.8605,2.8257,2.8248,2.7807,2.6471,2.4855,2.322,2.1258,1.9642,1.8498,1.8468,1.8686,1.9167,2.0063,2.0201,2.0317,2.0699,1.9941,1.9272,1.8996,1.8151,1.7554,1.7182,1.6706,1.6085,1.5295,1.5482,1.5809,1.6312,1.6714,1.7134,1.7685,1.7616,1.765,1.7725,1.7018,1.6121,1.5117,1.442,1.3871,1.3335,1.3315,1.2964,1.2602,1.3003,1.306,1.2888,1.2757,1.2726,1.2726,1.2046,1.1816,1.1816,1.1479,1.1025,1.0353,0.9202,0.8414,0.7829,0.8326,0.8244,0.7894,0.7645,0.7638,0.7601,0.6965,0.6841,0.6965,0.6477,0.6651,0.7093,0.7257,0.7883,0.8598,0.886,0.8557,0.7948,0.7348,0.5869,0.4162,0.2201,0.1726,0.1795,0.214,0.226,0.2253,0.2172,0.2704,0.3314,0.3714,0.4369,0.5171,0.6109,0.6317,0.6652,0.7076,0.6826,0.622,0.514,0.3912,0.2381,0.0477,-0.107,-0.2776,-0.4645,-0.5555,-0.6862,-0.852,-0.9035,-0.9873,2.9642,3.0245,3.0874,3.1117,3.0785,3.0238,2.9244,2.7362,2.5343,2.3631,2.2055,2.0825,2.049,2.0476,2.0619,2.1094,2.1045,2.1174,2.1844,2.1268,2.0707,2.0712,2.0335,1.9626,1.852,1.8531,1.8224,1.7384,1.673,1.6638,1.7252,1.7315,1.7754,1.8548,1.8346,1.849,1.891,1.769,1.6682,1.6009,1.531,1.4844,1.4579,1.4745,1.46,1.4372,1.4498,1.4509,1.4343,1.3952,1.3744,1.364,1.2873,1.2821,1.2956,1.2166,1.198,1.1988,1.0951,0.9806,0.8904,0.9048,0.8848,0.8634,0.8386,0.8138,0.7996,0.7692,0.7285,0.6978,0.6823,0.7098,0.7488,0.7651,0.841,0.9121,0.9105,0.8931,0.8441,0.7348,0.5418,0.3493,0.2416,0.1961,0.1834,0.2109,0.2504,0.2662,0.2564,0.3028,0.3578,0.3978,0.4886,0.5696,0.6409,0.674,0.7086,0.7177,0.6721,0.6045,0.5034,0.3436,0.1839,0.0099,-0.2226,-0.3917,-0.5039,-0.6187,-0.7334,-0.8713,-0.9694,-1.0554,3.0472,3.1377,3.2271,3.262,3.2513,3.1951,3.097,2.9065,2.7069,2.5587,2.4034,2.2843,2.2758,2.235,2.2163,2.2292,2.2045,2.1942,2.2374,2.1924,2.1451,2.1322,2.1139,2.0481,1.9405,1.9396,1.9167,1.8455,1.7809,1.7675,1.8185,1.8342,1.8697,1.9311,1.9292,1.9261,1.9334,1.8472,1.7717,1.7261,1.6541,1.6156,1.6182,1.6069,1.6,1.5795,1.6023,1.5943,1.5738,1.5264,1.5077,1.4856,1.4162,1.3976,1.4114,1.3517,1.3204,1.3084,1.2363,1.1382,1.0279,0.9694,0.9457,0.9246,0.8635,0.8391,0.813,0.7727,0.7441,0.7121,0.6987,0.7383,0.7902,0.8371,0.9013,0.9465,0.9444,0.9142,0.8386,0.6646,0.4811,0.3347,0.2743,0.2311,0.2302,0.2672,0.2976,0.3258,0.3573,0.391,0.4252,0.4594,0.546,0.6236,0.6719,0.7009,0.7081,0.693,0.6351,0.563,0.4461,0.3172,0.1613,-0.0104,-0.2445,-0.4111,-0.5174,-0.626,-0.7561,-0.8987,-0.9863,-1.0738,3.097,3.2088,3.2989,3.3559,3.363,3.3224,3.221,3.0355,2.8562,2.74,2.5848,2.4649,2.4841,2.4053,2.3494,2.3582,2.2944,2.2466,2.2518,2.211,2.1744,2.1554,2.129,2.0772,1.9979,1.9728,1.95,1.9097,1.882,1.8768,1.886,1.9206,1.9594,1.9871,2.0143,1.9976,1.9475,1.9125,1.8897,1.8532,1.7675,1.7449,1.7715,1.737,1.7098,1.704,1.7402,1.7358,1.6807,1.668,1.6419,1.6065,1.5353,1.5116,1.5116,1.465,1.4172,1.3693,1.3324,1.2725,1.188,1.0379,0.9985,0.9787,0.8937,0.8425,0.8156,0.7621,0.7455,0.7526,0.7254,0.7789,0.8456,0.9117,0.9504,0.9814,0.9813,0.9197,0.7889,0.57,0.4354,0.3572,0.3191,0.289,0.2888,0.3444,0.3682,0.4019,0.4813,0.487,0.4972,0.528,0.5982,0.6586,0.7089,0.6989,0.6836,0.6333,0.5836,0.4993,0.3869,0.2854,0.1568,-0.011,-0.2009,-0.363,-0.4965,-0.5985,-0.7319,-0.9123,-0.9542,-1.0594,3.1776,3.2779,3.371,3.4629,3.5057,3.493,3.3246,3.2276,3.104,2.9001,2.7767,2.6883,2.6022,2.4966,2.4115,2.3959,2.2837,2.2175,2.2785,2.211,2.1728,2.2311,2.1973,2.1557,2.0958,2.0852,2.0687,2.013,1.9795,1.9412,1.8865,1.9208,1.9804,2.0521,2.037,2.0203,2.0155,1.9598,1.9261,1.9113,1.8594,1.8352,1.8687,1.8273,1.8131,1.8159,1.826,1.8052,1.7781,1.7103,1.6762,1.6301,1.5472,1.5116,1.4997,1.453,1.4172,1.3933,1.3084,1.2856,1.2645,1.1256,1.0717,1.0475,0.9472,0.9016,0.8671,0.8132,0.8041,0.7927,0.7922,0.8723,0.9516,0.9908,1.0221,1.035,1.0176,0.8775,0.702,0.589,0.47,0.381,0.3575,0.3245,0.3243,0.3778,0.4505,0.5122,0.5755,0.5443,0.5273,0.5798,0.6213,0.6417,0.6417,0.6417,0.6093,0.5339,0.4926,0.4334,0.3229,0.2265,0.1207,-0.0,-0.137,-0.2669,-0.4059,-0.5331,-0.6653,-0.79,-0.9092,-1.009,3.1949,3.3087,3.4263,3.4939,3.5273,3.5233,3.4307,3.3353,3.2255,3.0601,2.9574,2.8483,2.7314,2.5953,2.4787,2.4174,2.3151,2.2367,2.2333,2.1879,2.1694,2.194,2.1941,2.1588,2.0883,2.1023,2.0816,1.9911,1.9672,1.9523,1.9631,1.9654,1.985,2.0274,2.0132,2.0076,2.004,1.9749,1.9635,1.9577,1.9097,1.9097,1.9345,1.8997,1.8765,1.8648,1.8532,1.8194,1.7726,1.7232,1.6762,1.6183,1.5472,1.4997,1.4759,1.4162,1.3813,1.3564,1.3084,1.2795,1.2424,1.1416,1.0966,1.0665,0.9588,0.901,0.8552,0.8344,0.8275,0.8456,0.8584,0.9256,1.0035,1.0353,1.0161,0.9836,0.9068,0.7637,0.6327,0.5586,0.49,0.4484,0.426,0.4369,0.47,0.5146,0.5665,0.6189,0.6848,0.6473,0.6335,0.6552,0.6496,0.6398,0.6404,0.5704,0.5114,0.4425,0.3991,0.348,0.2879,0.2328,0.1577,0.0815,-0.0587,-0.1907,-0.2925,-0.433,-0.567,-0.6951,-0.8207,-0.9326,3.2569,3.363,3.4967,3.55,3.5517,3.5358,3.525,3.433,3.32,3.2083,3.0933,2.9783,2.8584,2.7031,2.5645,2.4703,2.3687,2.279,2.1993,2.1841,2.1669,2.1545,2.1624,2.1434,2.0639,2.0867,2.0515,1.9359,1.9179,1.9402,1.9929,1.9598,1.9448,1.9577,1.9508,1.9494,1.9577,1.9639,1.9754,1.9809,1.9591,1.9475,1.9707,1.9243,1.8997,1.8635,1.8298,1.783,1.7244,1.6762,1.629,1.558,1.4986,1.4391,1.4033,1.3564,1.3232,1.2906,1.2906,1.2547,1.198,1.1329,1.0842,1.0486,0.9594,0.8892,0.8443,0.8443,0.8646,0.8856,0.925,0.9921,1.0412,1.0487,1.0109,0.9373,0.7989,0.707,0.6313,0.5643,0.5326,0.5262,0.5262,0.5708,0.6265,0.6705,0.6932,0.7271,0.7937,0.7709,0.7499,0.7416,0.6869,0.6428,0.6148,0.5186,0.4234,0.374,0.3306,0.3001,0.2707,0.2491,0.2185,0.1775,0.024,-0.0855,-0.1734,-0.3154,-0.4506,-0.6046,-0.725,-0.8497,3.46,3.4894,3.5495,3.713,3.6874,3.61,3.5881,3.517,3.4244,3.32,3.1913,3.0743,2.9823,2.829,2.6797,2.5681,2.4598,2.3687,2.2703,2.2237,2.195,2.2274,2.1603,2.1106,2.0729,2.053,1.9924,1.8997,1.8657,1.8589,1.905,1.8389,1.8377,1.8997,1.8365,1.8365,1.8997,1.9193,1.9535,1.9809,1.9809,1.9591,1.9359,1.8765,1.8298,1.7935,1.7349,1.6879,1.6537,1.5591,1.4867,1.4272,1.3684,1.2955,1.2354,1.2354,1.2222,1.2127,1.1757,1.161,1.1501,1.0725,1.0424,1.0135,0.9347,0.8823,0.8568,0.8568,0.9117,0.9661,1.006,1.0585,1.0906,1.0479,1.0161,0.9724,0.8365,0.7729,0.7248,0.6789,0.6336,0.626,0.6482,0.6816,0.726,0.814,0.8367,0.8595,0.914,0.8706,0.8313,0.8106,0.6995,0.6042,0.5493,0.4931,0.4142,0.3243,0.3176,0.3091,0.2752,0.2791,0.2717,0.2524,0.1709,0.062,-0.0881,-0.2071,-0.3413,-0.4873,-0.6301,-0.7534,3.6094,3.6719,3.7455,3.797,3.7576,3.6934,3.6934,3.6128,3.5084,3.4051,3.3031,3.1843,3.0309,2.8759,2.7313,2.6305,2.518,2.407,2.3272,2.2888,2.2689,2.2623,2.2044,2.1465,2.0948,2.0482,1.9731,1.8635,1.7941,1.7599,1.7726,1.7713,1.7701,1.7701,1.772,1.7836,1.8286,1.8404,1.8764,1.9229,1.9229,1.9229,1.8997,1.8648,1.8181,1.7584,1.6762,1.6172,1.5591,1.4878,1.4162,1.3555,1.3084,1.2603,1.2234,1.2001,1.1809,1.1516,1.1495,1.1321,1.102,1.033,0.9802,0.9383,0.8984,0.859,0.8323,0.859,0.9123,0.9794,1.0326,1.0582,1.0541,0.9914,0.9026,0.8153,0.7153,0.6798,0.6575,0.6238,0.6629,0.7149,0.726,0.8036,0.8816,0.9251,0.9588,0.9809,0.9919,0.9368,0.8947,0.8673,0.7182,0.6205,0.5868,0.487,0.407,0.3805,0.3569,0.3593,0.3779,0.345,0.3263,0.3467,0.2617,0.1645,0.0518,-0.1441,-0.2911,-0.4137,-0.5656,-0.6856,3.7892,3.8622,3.9276,3.916,3.8512,3.7956,3.7873,3.6969,3.5914,3.4759,3.3877,3.2649,3.0997,2.9499,2.8164,0.0,0.0,2.5002,2.3982,2.3599,2.3212,2.2649,2.2185,2.1739,2.1202,2.0419,1.9566,1.8506,1.7677,1.702,1.6903,1.702,1.7009,1.6773,1.6961,1.7363,1.7705,1.7823,1.8177,1.8881,1.8803,1.8765,1.8648,1.8181,1.7713,1.7126,1.6065,1.5353,1.4759,1.4052,1.3444,1.2844,1.2595,1.2234,1.1872,1.1889,1.1558,1.137,1.1495,1.115,1.0672,1.0134,0.9453,0.8744,0.8481,0.8138,0.7922,0.8189,0.9018,0.9844,1.0465,1.03,0.9871,0.9056,0.7905,0.6803,0.6222,0.6124,0.6129,0.6336,0.7203,0.7973,0.8263,0.9258,1.0147,1.0468,1.0688,1.0798,1.0806,1.0029,0.9478,0.9147,0.785,0.6817,0.6401,0.526,0.4572,0.4695,0.4328,0.4356,0.4694,0.4134,0.3948,0.4159,0.3436,0.2583,0.1582,-0.0662,-0.2267,-0.3367,-0.498,-0.6045,4.0228,4.0614,4.0879,4.1087,4.0129,3.9037,3.862,3.7862,3.6928,3.5527,3.4367,3.324,3.1861,3.062,2.9362,2.8267,2.7469,2.6369,2.4843,2.4088,2.3317,2.244,2.1973,2.1576,2.1171,2.0072,1.9145,1.8451,1.7786,1.7244,1.6537,1.6312,1.6087,1.6087,1.6309,1.6673,1.7396,1.7625,1.8105,1.8822,1.8555,1.8311,1.7972,1.7361,1.6879,1.6419,1.5126,1.4411,1.4172,1.3084,1.2483,1.2234,1.1872,1.1631,1.139,1.1631,1.163,1.1534,1.1534,1.1143,1.0644,1.0276,0.9258,0.8108,0.7847,0.7616,0.7526,0.7526,0.8677,0.9955,1.0092,0.9915,0.9341,0.816,0.6937,0.6014,0.6171,0.6198,0.6546,0.7486,0.8243,0.8878,0.9618,1.0257,1.1017,1.2219,1.1673,1.1345,1.1891,1.0688,0.9816,0.9816,0.9167,0.8231,0.6987,0.6308,0.5894,0.5639,0.5487,0.5294,0.5294,0.5204,0.4913,0.4542,0.4023,0.3161,0.1977,0.0267,-0.1346,-0.2965,-0.4013,-0.5395,4.0383,4.0983,4.1272,4.0771,4.0048,3.9411,3.8995,3.8089,3.7041,3.6219,3.4977,3.3819,3.2809,3.142,2.9939,2.8875,2.7924,2.6803,2.5432,2.4703,2.4118,2.3334,2.2437,2.1723,2.1202,2.0626,2.0118,1.9759,1.8945,1.8298,1.783,1.7126,1.6419,1.572,1.5796,1.6144,1.6673,1.7035,1.7478,1.8143,1.8117,1.7995,1.7863,1.7327,1.6773,1.6419,1.5353,1.465,1.4172,1.3324,1.2844,1.2475,1.2483,1.2483,1.2603,1.2724,1.2759,1.2708,1.2716,1.2423,1.1876,1.1366,1.0644,0.9755,0.8991,0.8081,0.7445,0.7863,0.8802,0.9566,0.9251,0.8758,0.7993,0.7346,0.613,0.508,0.5575,0.5718,0.6098,0.7137,0.8268,0.9373,0.989,1.0763,1.1611,1.2028,1.2001,1.2001,1.2001,1.1576,1.1106,1.0883,1.0462,0.953,0.8031,0.7575,0.7311,0.7266,0.6875,0.6682,0.6822,0.6393,0.5978,0.5713,0.4586,0.3703,0.2807,0.0806,-0.1087,-0.2907,-0.4048,-0.5115,0.0,4.1584,4.2062,4.1171,4.082,4.041,3.9825,3.8917,3.7884,3.6716,3.5577,3.438,3.3173,3.1769,3.0358,2.9368,2.8372,2.7135,2.572,2.5094,2.4454,2.3616,2.2732,2.2017,2.1569,2.1429,2.1249,2.0771,1.997,1.9229,1.8752,1.7935,1.7126,1.6301,1.6153,1.632,1.6929,1.7173,1.7544,1.8173,1.8033,1.8034,1.8022,1.7279,1.6805,1.6436,1.5396,1.453,0.0,1.3444,1.3084,1.2844,1.3084,1.3204,1.3444,1.3684,1.3684,1.3583,1.3704,1.3387,1.2804,1.23,1.134,1.0364,0.9596,0.857,0.7802,0.8433,0.8856,0.9082,0.8799,0.7912,0.7013,0.6377,0.5301,0.4646,0.5164,0.5818,0.6445,0.7493,0.8987,1.0113,1.0516,1.1507,1.2356,1.2587,1.2779,1.2889,1.2779,1.2562,1.2338,1.2194,1.1975,1.1278,1.004,0.9222,0.8729,0.8471,0.8038,0.7823,0.7857,0.7321,0.6787,0.6389,0.5277,0.4264,0.3362,0.1346,-0.0546,-0.2383,-0.3223,-0.4264,0.0,4.2029,4.2659,4.2007,4.188,4.1761,4.0846,0.0,0.0,0.0,3.5976,3.4954,3.3122,3.1881,3.0737,2.976,2.8776,2.7563,2.59,2.5237,2.4508,2.3237,2.2706,2.238,2.2402,2.248,2.2255,2.1769,2.0885,2.0127,1.9435,1.8881,1.8181,1.7596,1.7244,1.7248,1.7784,1.7907,1.8173,1.871,1.8444,1.8324,1.8312,1.7283,1.6684,1.6453,1.5131,1.4321,1.3731,1.3352,1.3232,1.3343,1.3573,1.3684,1.3813,1.4411,1.453,1.4291,1.4291,1.4172,1.3684,1.2964,1.176,1.0379,1.0049,0.9215,0.8596,0.9115,0.9142,0.8826,0.8408,0.7566,0.6426,0.524,0.4717,0.4473,0.5049,0.6243,0.7371,0.8497,0.9996,1.124,1.176,1.2524,1.324,1.3588,1.378,1.3891,1.4113,1.3679,1.3433,1.366,1.3466,1.315,1.2604,1.1161,1.0039,0.9451,0.9086,0.8842,0.861,0.81,0.7459,0.6828,0.5833,0.4842,0.3633,0.2018,0.0273,-0.1399,-0.1961,-0.2984,3.774,0.0,4.0533,3.9996,4.0196,4.0401,0.0,0.0,0.0,0.0,0.0,3.5315,3.3559,3.2219,3.0963,2.9517,2.8665,2.7547,2.5936,2.4746,2.3844,2.3068,2.2749,2.2774,2.3095,2.2678,2.2528,2.2639,2.1586,2.0699,2.0357,1.9809,1.9229,1.8894,1.8596,1.8389,1.8141,1.8398,1.8765,1.8976,1.8722,1.8464,1.8191,1.6997,1.642,1.6339,1.537,1.4759,1.4527,1.3996,1.3817,1.3798,1.375,1.3933,1.4411,1.453,1.5007,1.5612,1.5612,1.5483,1.4997,1.3803,1.2942,1.2365,1.2089,1.0955,0.9788,0.9513,0.9613,0.9358,0.8069,0.7153,0.623,0.5597,0.523,0.5396,0.6185,0.7303,0.8403,0.9638,1.0762,1.172,1.2738,1.3166,1.3567,1.4148,1.4343,1.4466,1.4805,1.4624,1.4477,1.4821,1.449,1.4023,1.3723,1.2386,1.137,1.0914,1.0301,0.9992,0.9985,0.9538,0.9038,0.875,0.6647,0.497,0.3633,0.2825,0.19,0.0691,-0.0558,-0.1696,3.6256,3.795,3.9672,3.9237,3.9729,4.0355,0.0,0.0,0.0,0.0,0.0,3.5244,3.3738,3.255,3.1284,2.9922,2.8993,2.7846,2.6033,2.4353,2.3402,2.3311,2.3021,2.2947,2.3326,2.2922,2.263,2.2736,2.1927,2.113,2.0728,2.0415,2.004,1.9809,1.9577,1.9325,1.8797,1.8947,1.91,1.9145,1.8994,1.8601,1.807,1.7066,1.6469,1.6202,1.5371,1.4931,1.4898,1.4436,1.4227,1.4338,1.4331,1.452,1.4888,1.5126,1.5601,1.6087,1.6431,1.638,1.6014,1.5034,1.4411,1.4042,1.3753,1.2984,1.1961,1.1207,1.0525,0.9783,0.876,0.7813,0.6852,0.6395,0.6313,0.6614,0.752,0.879,0.9922,1.0799,1.1892,1.2856,1.3481,1.4004,1.4494,1.473,1.5156,1.5499,1.551,1.5721,1.5803,1.5591,1.539,1.4938,1.425,1.3305,1.2499,1.1776,1.1225,1.0942,1.1162,1.0637,0.9922,0.9276,0.7612,0.6038,0.4705,0.4168,0.3388,0.2336,0.1114,-0.0,3.5592,3.7429,3.9124,3.8864,3.9552,4.0239,4.0195,0.0,0.0,0.0,0.0,0.0,3.3699,3.253,3.1451,3.0254,2.9049,2.77,2.59,2.4094,2.3206,2.3595,2.3029,2.2823,2.3135,2.2774,2.2387,2.237,2.1695,2.1143,2.0647,2.06,2.053,2.02,2.0413,2.0117,1.9536,1.9464,1.942,1.9362,1.9218,1.8816,1.8022,1.7147,1.6551,1.618,1.538,1.5104,1.5115,1.4892,1.4781,1.4751,1.495,1.5147,1.5245,1.5882,1.6261,1.6499,1.7114,1.7136,1.6994,1.636,1.596,1.5638,1.5199,1.4761,1.4349,1.3366,1.2005,1.0613,1.0016,0.9065,0.7947,0.7674,0.7728,0.8286,0.9103,1.0384,1.1523,1.2147,1.335,1.4204,1.4327,1.5104,1.5698,1.5598,1.6356,1.6807,1.6576,1.6879,1.6926,1.6425,1.6113,1.5564,1.4602,1.4033,1.3374,1.2474,1.1979,1.1837,1.2233,1.1637,1.0685,0.9377,0.8712,0.7646,0.6313,0.5644,0.487,0.3971,0.2921,0.1691,3.5474,3.6567,3.7472,3.7478,3.7688,3.792,3.7907,0.0,0.0,0.0,0.0,0.0,0.0,3.2148,3.1184,2.9623,2.7669,2.5953,2.515,2.4086,2.3278,2.3064,2.2489,2.2296,2.2575,2.157,2.1144,2.1665,2.0695,2.0018,1.9952,2.0269,2.0217,1.9878,2.0614,2.0911,2.0482,2.0441,2.0508,2.041,1.9814,1.8932,1.8022,1.7147,1.6647,1.6431,1.5788,1.565,1.5802,1.559,1.5377,1.5185,1.5126,1.5173,1.5504,1.5948,1.6737,1.7733,1.8325,1.8301,1.797,1.7649,1.7439,1.7245,1.6646,1.5921,1.5231,1.4948,1.3629,1.2101,1.1179,1.0378,0.985,0.9443,0.974,1.03,1.0802,1.1987,1.3168,1.3926,1.4529,1.5286,1.6171,1.606,1.6233,1.7279,1.7445,1.7535,1.8002,1.7689,1.7411,1.7497,1.6404,1.5523,1.5013,1.4463,1.387,1.3599,1.2983,1.2699,1.2986,1.2532,1.1858,1.0962,1.0174,0.9377,0.8174,0.7512,0.6585,0.5531,0.4569,0.3225,3.5503,3.6025,3.6447,3.6248,3.6939,3.7607,3.7406,0.0,0.0,0.0,0.0,0.0,0.0,3.1358,3.0388,2.888,2.6906,2.5427,2.4763,2.3514,2.271,2.2479,2.1744,2.1278,2.1557,2.059,2.0195,2.036,1.9828,1.9564,1.9552,2.0086,2.0415,2.0515,2.1176,2.1493,2.1463,2.1241,2.0848,2.0142,1.9763,1.906,1.8033,1.7418,1.7044,1.7001,1.6637,1.6721,1.6924,1.6444,1.6273,1.6291,1.606,1.6197,1.6608,1.7074,1.7839,1.8738,1.9136,1.9448,1.945,1.8949,1.8752,1.8559,1.7919,1.7055,1.6244,1.5954,1.4334,1.2696,1.224,1.1603,1.122,1.1213,1.1548,1.2025,1.2553,1.3473,1.439,1.5052,1.5663,1.6276,1.7036,1.7236,1.7427,1.8249,1.8601,1.8762,1.888,1.8762,1.8558,1.8105,1.7281,1.6402,1.5747,1.51,1.4566,1.397,1.3961,1.3925,1.3873,1.3882,1.3396,1.2421,1.1637,1.0836,0.9769,0.8978,0.8076,0.6796,0.6237,0.5057,3.5842,3.589,3.5725,3.563,0.0,3.7063,3.6725,3.5914,0.0,0.0,0.0,0.0,3.1187,3.0231,2.9141,2.7825,2.6423,2.5152,2.4204,2.2935,2.1873,2.1586,2.0796,2.0296,2.0125,1.974,1.9255,1.9078,1.9056,1.909,1.9234,1.9821,2.0402,2.0957,2.1481,2.1947,2.2133,2.1959,2.1259,2.0039,1.9865,1.9316,1.8419,1.8173,1.7916,1.7776,1.7584,1.7621,1.7748,1.7292,1.7315,1.7506,1.7258,1.7382,1.7878,1.8606,1.9186,1.982,2.0289,2.0563,2.0811,2.0284,2.0036,1.9638,1.8994,1.8136,1.7336,1.6882,1.5313,1.3779,1.3661,1.3195,1.2692,1.3079,1.3341,1.3735,1.4399,1.5043,1.5824,1.6353,1.6861,1.7506,1.8139,1.8416,1.8778,1.9412,1.9814,2.0012,1.988,1.9893,1.964,1.8938,1.8292,1.7553,1.6467,1.5992,1.5495,1.4814,1.4942,1.5019,1.4791,1.48,1.4408,1.3613,1.2832,1.1909,1.1101,1.0306,0.9297,0.8183,0.7626,0.6469,3.6718,3.6161,3.5355,3.5829,3.5666,0.0,3.4847,3.4361,0.0,3.2574,0.0,3.0721,2.9609,2.844,2.7417,2.6762,2.5794,2.4588,2.3035,2.2215,2.1322,2.0005,1.9653,1.9248,1.8658,1.8526,1.8331,1.8149,1.8424,1.8589,1.8617,1.9375,1.9962,2.0413,2.1582,2.218,2.2133,2.242,2.195,2.0956,2.0716,2.0221,1.9444,1.9456,1.9072,1.8571,1.8559,1.8279,1.8011,1.7988,1.7966,1.8136,1.8136,1.8512,1.915,2.0146,2.0737,2.1083,2.2112,2.2189,2.1924,2.1793,2.1411,2.058,1.965,1.9173,1.8603,1.7725,1.7141,1.6483,1.5453,1.5183,1.5303,1.5684,1.5694,1.5834,1.6213,1.712,1.7776,1.7905,1.8407,1.9164,1.9801,1.9688,1.9996,2.134,2.1105,2.0925,2.1512,2.1046,2.0672,2.0588,1.9636,1.862,1.7462,1.685,1.6473,1.6721,1.5554,1.5173,1.5844,1.4922,1.4408,1.4268,1.3358,1.2568,1.2173,1.1115,1.0187,0.9534,0.8697,0.7418,3.5251,3.4896,3.4469,3.4481,3.4188,0.0,0.0,3.3356,3.2575,3.1588,3.0559,2.949,2.794,2.6469,2.5577,2.5592,2.4627,2.3484,2.2528,2.1466,2.0515,1.9638,1.8933,1.8374,1.8158,1.7968,1.7979,1.797,1.809,1.8414,1.9015,1.957,2.026,2.1118,2.2039,2.2556,2.2745,2.3068,2.2856,2.1978,2.1488,2.0982,2.0475,2.0348,2.0094,1.9851,1.9596,1.9468,1.9328,1.906,1.9139,1.9435,1.9435,1.9688,2.0194,2.0697,2.1082,2.1524,2.2032,2.2368,2.2332,2.1883,2.1563,2.1137,2.0464,1.9732,1.9193,1.8968,1.8676,1.8291,1.699,1.6343,1.6213,1.712,1.726,1.7389,1.7882,1.8536,1.906,1.9559,1.9814,2.0259,2.1208,2.1249,2.1562,2.2434,2.2407,2.2326,2.2568,2.2271,2.1997,2.188,2.1034,1.9941,1.892,1.815,1.7776,1.7916,1.6882,1.6234,1.6364,1.5714,1.5323,1.5071,1.4015,1.3358,1.2955,1.2173,1.143,1.0712,1.0153,0.9285,3.418,3.3715,3.3352,0.0,0.0,0.0,3.217,3.2081,3.1611,3.0493,2.9006,2.7521,2.6095,2.4851,2.4153,2.4418,2.3541,2.2542,2.1758,2.0769,1.9901,1.905,1.8343,1.7941,1.7725,1.7769,1.7822,1.7915,1.8238,1.8727,1.9343,1.9793,2.0573,2.1685,2.2394,2.2962,2.3382,2.3746,2.3743,2.323,2.2856,2.223,2.1362,2.1235,2.0982,2.0856,2.0602,2.0475,2.0361,2.0221,2.0221,2.0602,2.0602,2.0729,2.1109,2.1362,2.1669,2.2131,2.2511,2.2709,2.2807,2.2212,2.1896,2.1514,2.1057,2.0618,2.0335,2.0118,2.0221,2.0195,1.9188,1.8267,1.7916,1.8899,1.9052,1.9193,1.9923,2.0464,2.0863,2.1491,2.1747,2.2198,2.2935,2.3177,2.3413,2.4044,2.4007,2.3917,2.3917,2.3627,2.3354,2.3062,2.2215,2.1209,2.0462,1.9774,1.9309,1.9205,1.8487,1.7684,1.6893,1.6364,1.5974,1.5463,1.4603,1.3972,1.3707,1.2837,1.2254,1.1818,1.1417,1.0652,3.3557,3.2779,3.1993,0.0,0.0,0.0,2.9501,3.0487,3.0916,2.9086,2.6528,2.4555,2.423,2.3601,2.3053,2.2952,2.2526,2.1802,2.047,2.004,1.9475,1.8197,1.7991,1.7711,1.7169,1.7662,1.7928,1.7577,1.8742,1.9375,1.9357,2.0216,2.1002,2.1646,2.2393,2.3187,2.41,2.4487,2.461,2.461,2.498,2.4115,2.2104,2.2104,2.1992,2.1614,2.1614,2.1362,2.1109,2.1109,2.1362,2.1614,2.1614,2.1866,2.2104,2.2104,2.2553,2.3206,2.3461,2.3536,2.3406,2.3145,2.249,2.1832,2.1582,2.1714,2.1924,2.1241,2.155,2.2126,2.2062,2.1096,2.0412,2.1341,2.1407,2.1344,2.2421,2.2897,2.3159,2.3536,2.4187,2.4849,2.5107,2.5494,2.588,2.6152,2.5977,2.5753,2.5643,2.5326,2.4857,2.4239,2.323,2.248,2.2104,2.1504,2.089,2.0488,2.0492,1.9615,1.7562,1.6893,1.6234,1.5574,1.5006,1.4584,1.4182,1.3279,1.2819,1.2956,1.2123,1.1158,3.1247,3.0619,0.0,2.9844,0.0,0.0,0.0,2.9321,0.0,0.0,2.6454,2.5183,2.4771,2.3961,2.3244,2.3037,2.194,2.1031,2.0385,1.971,1.8906,1.8087,1.801,1.7835,1.7503,1.7635,1.7902,1.8207,1.8755,1.9361,2.0002,2.0444,2.1263,2.2273,2.2749,2.3681,2.4738,2.5114,2.5365,2.5365,2.5365,2.4734,2.3479,2.3479,2.3355,2.2981,2.248,2.223,2.2104,2.1853,2.1866,2.1978,2.1978,2.2104,2.248,2.248,2.2677,2.3126,2.3252,2.3184,2.3145,2.2892,2.2638,2.2257,2.1747,2.2025,2.2305,2.1964,2.2323,2.2808,2.3091,2.3062,2.2906,2.2651,2.2539,2.2722,2.3449,2.4168,2.472,2.4978,2.5494,2.5958,2.6454,2.6424,2.6616,2.7117,2.6984,2.6673,2.6286,2.5821,2.5242,2.4857,2.4363,2.3728,2.2856,2.2652,2.2181,2.1666,2.1371,2.0434,1.858,1.7926,1.727,1.6876,1.5879,1.5586,1.5596,1.4693,1.4253,1.4244,1.3311,1.2712,2.9463,2.8942,0.0,2.8422,2.7785,2.7146,2.7211,2.7676,2.7921,2.7141,2.5891,2.4807,2.4527,2.367,2.2863,2.2632,2.1534,2.0623,2.0005,1.9208,1.8534,1.7876,1.7808,1.7806,1.7582,1.7793,1.8156,1.8658,1.914,1.9738,2.0458,2.073,2.1393,2.2568,2.3001,2.3935,2.5287,2.5619,2.5978,2.6222,2.6327,2.5961,2.521,2.4734,2.4363,2.4115,2.3604,2.3355,2.323,2.2981,2.2856,2.2856,2.2606,2.2731,2.2981,2.2731,2.2856,2.3106,2.3106,2.3106,2.3106,2.2856,2.2817,2.2694,2.244,2.2692,2.3204,2.3074,2.358,2.4198,2.4592,2.4945,2.5011,2.4305,2.4247,2.4531,2.5298,2.5887,2.6289,2.6679,2.7085,2.7539,2.8013,2.8123,2.8185,2.8533,2.8135,2.7637,2.7269,2.6661,2.6156,2.5907,2.514,2.436,2.3992,2.3548,2.3192,2.293,2.2662,2.2017,2.058,1.947,1.858,1.7763,1.6922,1.655,1.6773,1.5767,1.5428,1.5479,1.4602,1.4068,2.792,2.7554,0.0,2.7174,2.6115,2.5105,2.5016,2.5722,2.6389,2.6269,2.5151,2.4056,2.3615,2.3045,2.2418,2.1993,2.1203,2.0308,1.9346,1.8727,1.8224,1.7622,1.7582,1.7582,1.7582,1.8003,1.8476,1.8865,1.969,2.0294,2.0687,2.1074,2.1728,2.2721,2.3108,2.4029,2.5594,2.5961,2.6571,2.7194,2.7401,2.7401,2.7056,2.5839,2.5226,2.5103,2.4857,2.4487,2.4239,2.4239,2.4115,2.4115,2.3479,2.3355,2.3604,2.2981,2.2981,2.3245,2.3149,2.3149,2.3289,2.3193,2.3272,2.3307,2.3595,2.3911,2.4303,2.4569,2.5216,2.5797,2.615,2.6584,2.6712,2.6055,2.6163,2.6624,2.7587,2.7816,2.7981,2.8395,2.8922,2.9316,2.9447,2.997,3.023,2.9952,2.9232,2.8742,2.8289,2.7714,2.7317,2.7189,2.5739,2.4787,2.5092,2.4101,2.3722,2.4009,2.4026,2.3663,2.3103,2.1254,1.9794,1.8731,1.8161,1.7863,1.7834,1.6887,1.6438,1.6658,1.5875,1.5125,2.5612,2.5265,0.0,2.5751,2.5212,2.4392,2.3881,2.3768,2.4183,2.5333,2.4956,2.4354,2.4194,2.3687,2.3021,2.1852,2.0539,1.9391,1.8455,1.7876,1.7344,1.6948,1.7265,1.7477,1.7279,1.7806,1.8263,1.8878,1.9456,2.0168,2.0687,2.1318,2.2075,2.3093,2.3582,2.4627,2.5945,2.6571,2.7056,2.7401,2.7762,2.79,2.7779,2.7056,2.6222,2.5488,2.5717,2.5472,2.4857,2.4857,2.4734,2.4487,2.4363,2.4115,2.3976,2.3852,2.3852,2.3897,2.3903,2.4007,2.429,2.4306,2.4441,2.4645,2.4461,2.4844,2.5363,2.5479,2.6005,2.6514,2.6841,2.7214,2.7586,2.7972,2.7764,2.7458,2.8077,2.8327,2.879,2.9299,2.9561,2.9822,3.049,3.049,3.0378,3.023,2.9895,2.9485,2.916,2.8374,2.768,2.6791,2.62,2.5545,2.472,2.4437,2.4216,2.4023,2.3694,2.356,2.337,2.2511,2.1645,2.0759,2.0269,2.0155,2.0027,1.8834,1.8237,1.8306,1.696,1.6226,2.3701,0.0,0.0,2.3663,0.0,2.3238,2.2254,2.179,2.1854,2.2725,2.3257,2.3401,2.3085,2.2656,2.1908,2.0496,1.9531,1.8614,1.7622,1.7051,1.663,1.6311,1.6736,1.6948,1.6961,1.7729,1.8534,1.9098,1.9928,2.0676,2.1159,2.166,2.2421,2.3567,2.3937,2.4865,2.6311,2.683,2.7315,2.7762,2.802,2.8259,2.8259,2.7779,2.7177,2.6571,2.6675,2.6432,2.5839,2.5839,2.5594,2.5333,2.5103,2.498,2.4749,2.4673,2.461,2.4531,2.4614,2.4735,2.4894,2.5077,2.5375,2.5627,2.5627,2.599,2.6401,2.665,2.7178,2.7834,2.8113,2.8618,2.9137,2.9414,2.9008,2.8618,2.9155,2.9457,2.9709,2.997,3.0241,3.0425,3.0768,3.0879,3.0879,3.062,3.0441,3.017,2.9655,2.8939,2.8128,2.7539,2.6472,2.5763,2.5317,2.4687,2.4228,2.4238,2.3983,2.3714,2.3714,2.3579,2.3105,2.2163,2.1745,2.1467,2.1484,2.0515,1.9843,1.9566,1.8387,1.7499,2.1532,0.0,2.2016,2.1423,2.1606,2.1602,2.0339,1.9788,1.9493,1.9654,2.0808,2.1613,2.1195,2.0696,1.9882,1.8716,1.8074,1.7383,1.6474,1.6013,1.5719,1.5553,1.5885,1.6217,1.6524,1.7595,1.8523,1.9248,2.0346,2.1227,2.1571,2.1972,2.2735,2.3943,2.4258,2.5087,2.647,2.6918,2.7401,2.7794,2.8098,2.8199,2.8199,2.7944,2.7758,2.7642,2.7642,2.7401,2.6813,2.6813,2.6571,2.6205,2.5839,2.5733,2.5643,2.5421,2.5329,2.5423,2.5401,2.5556,2.5618,2.5939,2.6273,2.6756,2.7018,2.7358,2.76,2.7965,2.8493,2.9036,2.9447,2.997,3.0378,3.0508,2.997,2.9726,3.0449,3.0597,3.0615,3.0686,3.0954,3.1175,3.1042,3.1358,3.134,3.1009,3.1009,3.0732,3.0083,2.9414,2.8827,2.8362,2.6937,2.5913,2.595,2.4803,2.4223,2.4345,2.4144,2.3899,2.4036,2.4365,2.4238,2.3389,2.3064,2.2741,2.2722,2.1971,2.1417,2.0908,2.0055,1.9006,1.7783,0.0,1.9389,0.0,1.9381,1.9201,1.8597,1.7714,1.6942,1.6884,1.8207,1.9479,1.9536,1.8731,1.774,1.6827,1.5771,1.4768,1.4234,1.3963,1.3943,1.403,1.4708,1.5244,1.5672,1.6668,1.7676,1.8509,1.9685,2.0678,2.1227,2.2286,2.3083,2.3594,2.4729,2.5562,2.61,2.7005,2.7364,2.7169,2.707,2.7142,2.7142,2.7027,2.7381,2.79,2.8259,2.814,2.7779,2.7521,2.7177,2.6952,2.6571,2.6327,2.6083,2.6011,2.6101,2.6428,2.6407,2.6858,2.7425,2.7473,2.7867,2.8427,2.8558,2.874,2.9036,2.943,2.9543,2.9822,3.01,3.0378,3.0508,3.075,3.075,3.084,3.1312,3.1121,3.1228,3.2102,3.2344,3.2253,3.1851,3.1928,3.1799,3.1433,3.1377,3.1249,3.075,3.0437,2.9657,2.8378,2.7768,2.6956,2.5727,2.4873,2.4317,2.4088,2.3666,2.3539,2.3942,2.447,2.475,2.4701,2.4703,2.4452,2.4224,2.3643,2.307,2.2752,2.1146,1.9979,1.6462,1.6787,1.714,0.0,1.7652,1.7131,1.6029,1.5087,1.4364,1.3743,1.3743,1.4276,1.5953,1.5579,1.4727,1.361,1.293,1.2382,1.1737,1.1747,1.1973,1.2164,1.3254,1.4082,1.4601,1.6147,1.746,1.8239,1.9676,2.0892,2.1708,2.2495,2.3521,2.4563,2.5188,2.5806,2.6399,2.6924,2.7041,2.6883,2.6938,2.6867,2.6867,2.6867,2.716,2.7615,2.7966,2.7937,2.7718,2.7811,2.7642,2.7297,2.7177,2.7159,2.7194,2.7173,2.7344,2.7424,2.7403,2.7771,2.8235,2.8274,2.8719,2.9413,2.9413,2.9561,2.997,3.0343,3.0602,3.0732,3.112,3.1396,3.1525,3.1525,3.1396,3.1506,3.1778,3.1606,3.1715,3.2114,3.2454,3.2399,3.2102,3.2198,3.2276,3.2093,3.1873,3.1614,3.1222,3.0714,2.9983,2.8888,2.8013,2.7148,2.6501,2.5279,2.4444,2.436,2.3832,2.3593,2.3593,2.4159,2.4454,2.4275,2.4977,2.5091,2.4781,2.4393,2.3956,2.3681,2.2384,2.1209,1.4563,0.0,1.4287,1.5149,1.5028,1.4523,1.3435,1.2439,1.1517,1.0692,0.9578,0.923,1.1182,1.1883,1.1853,1.0729,1.0169,0.9609,0.9222,0.9571,1.0014,1.0372,1.1699,1.2805,1.3477,1.5411,1.6965,1.7795,1.9481,2.0928,2.1916,2.2688,2.3713,2.5206,2.5422,2.5839,2.6707,2.6593,2.6593,2.6478,2.639,2.6338,2.6338,2.6338,2.6452,2.6942,2.7543,2.7696,2.7705,2.7872,2.7931,2.7762,2.7642,2.7762,2.8055,2.8114,2.8149,2.8307,2.8299,2.868,2.9136,2.9223,2.9707,3.0325,3.0325,3.0602,3.1009,3.1267,3.1506,3.1763,3.2019,3.2147,3.2294,3.2038,3.2003,3.206,3.2206,3.2148,3.2162,3.2403,3.2557,3.2618,3.2349,3.2618,3.2716,3.2606,3.2258,3.187,3.1625,3.0879,3.017,2.9674,2.8314,2.7553,2.727,2.581,2.473,2.4732,2.4233,2.3882,2.3541,2.412,2.4235,2.3701,2.4526,2.4991,2.4935,2.4889,2.469,2.4198,2.3369,2.248,1.0619,1.0357,0.0,1.087,1.0919,1.089,1.0928,0.978,0.8583,0.8117,0.6801,0.5581,0.5034,0.751,0.952,0.9214,0.7416,0.6323,0.6834,0.7353,0.7885,0.854,1.0141,1.1585,1.2529,1.4256,1.5737,1.7147,1.8837,2.0345,2.1542,2.2759,2.3778,2.4795,2.5397,2.5944,2.6317,2.5961,2.5735,2.5508,2.4828,2.4658,2.4881,2.4658,2.4992,2.5785,2.6906,2.7694,2.8272,2.8038,2.8174,2.8397,2.814,2.802,2.802,2.8037,2.8303,2.8676,2.9066,2.9582,3.0229,3.0717,3.123,3.1744,3.1744,3.2019,3.2294,3.2294,3.2294,3.2294,3.2422,3.2422,3.2422,3.2422,3.2467,3.2468,3.2611,3.257,3.279,3.3596,3.345,3.3193,3.3193,3.3193,3.3065,3.2661,3.2258,3.2001,3.2001,3.1374,3.0714,3.0343,2.9327,2.8336,2.7668,2.6339,2.5501,2.5461,2.4694,2.429,2.4115,2.4422,2.417,2.33,2.3559,2.4122,2.4598,2.5306,2.5211,2.4508,2.4143,2.3479,0.9182,0.0,0.0,0.832,0.812,0.779,0.6853,0.6161,0.545,0.4361,0.3182,0.2003,0.1278,0.344,0.5106,0.4639,0.3884,0.3613,0.412,0.4818,0.563,0.6549,0.8421,0.9911,1.0997,1.3088,1.493,1.6339,1.7989,1.9685,2.1183,2.2614,2.3854,2.4809,2.5739,2.6045,2.5898,2.6045,2.572,2.4861,2.4855,2.4906,2.4812,2.4718,2.5034,2.5714,2.6359,2.7146,2.8003,2.8162,2.8509,2.8874,2.8838,2.8957,2.8975,2.9213,2.9305,2.949,2.9897,3.0426,3.0959,3.1369,3.1813,3.2275,3.253,3.2549,3.2549,3.3165,3.3038,3.2804,3.3292,3.3165,3.2988,3.2872,3.2803,3.2974,3.3267,3.3145,3.3083,3.365,3.3661,3.3523,3.3539,3.3842,3.3972,3.3824,3.3452,3.31,3.2821,3.2038,3.1299,3.0396,2.952,2.8887,2.8477,2.7052,2.6236,2.6252,2.5432,2.479,2.4161,2.4223,2.3702,2.2734,2.3011,2.3298,2.3513,2.4009,2.4087,2.3896,2.4082,2.3813,0.7996,0.7458,0.6739,0.551,0.4687,0.3805,0.2408,0.1955,0.1508,0.0179,-0.0798,-0.1496,-0.2028,-0.1073,-0.0,0.0464,0.0465,0.0558,0.1304,0.234,0.3574,0.4797,0.6798,0.8547,0.9788,1.1983,1.4038,1.5536,1.7261,1.893,2.0721,2.2247,2.3827,2.5536,2.63,2.6541,2.638,2.6541,2.5982,2.4792,2.5086,2.5058,2.4734,2.465,2.5034,2.5586,2.5945,2.6803,2.8029,2.8339,2.8861,2.9331,2.9568,2.9549,2.9705,3.0192,3.0249,3.0325,3.1016,3.1501,3.1931,3.2229,3.2681,3.3165,3.3292,3.3292,3.3165,3.3922,3.3796,3.3544,3.3922,3.3915,3.375,3.3532,3.3481,3.3804,3.4237,3.3891,3.3545,3.4246,3.4165,3.4028,3.4321,3.4571,3.4508,3.4508,3.404,3.3591,3.3311,3.2524,3.1689,3.0786,3.003,2.9524,2.9265,2.8077,2.7263,2.7178,2.6354,2.554,2.4437,2.4302,2.3568,2.2323,2.2397,2.2413,2.2039,2.2752,2.3075,2.3036,2.3767,2.4142,0.0,0.0,0.0,0.2157,0.0534,-0.1158,-0.2268,-0.278,-0.3285,-0.4254,-0.4849,-0.5155,-0.5165,-0.5919,-0.5661,-0.3096,-0.3034,-0.2945,-0.1696,0.0091,0.175,0.3132,0.5332,0.7356,0.9174,1.1132,1.3057,1.4939,1.6534,1.8278,2.0055,2.1666,2.3866,2.6915,2.7266,2.7454,2.7539,2.7246,2.6532,2.524,2.5271,2.5011,2.4572,2.4404,2.4684,2.5221,2.5586,2.6698,2.8257,2.8648,2.9156,2.9884,2.9922,2.9922,2.996,3.0853,3.1127,3.1243,3.2073,3.2734,3.3327,3.3387,3.3902,3.4423,3.4423,3.4423,3.4423,3.4423,3.4423,3.4423,3.4423,3.4512,3.4566,3.4347,3.4527,3.497,3.5412,3.472,3.4222,3.5458,3.5021,3.4717,3.5553,3.5205,3.494,3.494,3.4221,3.369,3.3292,3.245,3.1819,3.1396,3.0792,3.0337,3.0343,2.9447,2.8677,2.8235,2.7524,2.6482,2.489,2.4752,2.3784,2.2075,2.1886,2.1448,2.0318,2.19,2.244,2.2149,2.3445,2.4605,0.5039,0.0,0.0,0.0,0.0,0.0,-0.6149,-0.6917,-0.779,-0.8878,-0.9703,-1.023,-0.9923,-0.9996,-0.981,-0.8497,-0.6323,-0.4511,-0.3493,-0.1996,-0.0528,0.0881,0.3197,0.5467,0.7482,0.9468,1.1473,1.3568,1.523,1.6826,1.857,2.1232,2.3768,2.5834,2.6465,2.6843,2.6823,2.7043,2.6319,2.4904,2.479,2.4489,2.4013,2.4023,2.4319,2.4923,2.6056,2.711,2.7992,2.8445,2.8918,2.9431,3.0509,3.0548,3.0199,3.1228,3.1736,3.1912,3.2236,3.2895,3.3498,3.3697,3.4037,3.4548,3.4922,3.4797,3.4548,3.5541,3.5294,3.4797,3.4797,3.4639,3.4566,3.4609,3.5407,3.6209,3.6642,3.7348,3.7682,3.6897,3.6699,3.6677,3.7191,3.6877,3.6583,3.6583,3.586,3.5124,3.4394,3.352,3.243,3.1611,3.1211,3.0991,3.0882,3.024,2.9881,2.9851,2.8643,2.7423,2.6482,2.5721,2.4837,2.349,2.2496,2.1614,2.0831,2.0897,2.0934,2.081,2.2647,2.426,0.3591,0.0965,-0.1758,-0.4738,0.0,0.0,-1.0731,-1.1504,-1.2237,-1.3701,-1.4353,-1.4624,-1.4502,-1.431,-1.3801,-1.2814,-1.0567,-0.807,-0.557,-0.3882,-0.2394,-0.0691,0.1514,0.3755,0.5877,0.798,0.9984,1.2062,1.3739,1.5695,1.81,2.079,2.3116,2.4838,2.5602,2.6091,2.6187,2.6363,2.5625,2.4184,2.4314,2.4175,2.3679,2.3877,2.4412,2.5276,2.6293,2.7164,2.8011,2.8861,2.9374,2.9909,3.0699,3.1007,3.1197,3.2119,3.2629,3.2922,3.3141,3.3706,3.4212,3.4122,3.4512,3.5005,3.5373,3.5396,3.5418,3.6178,3.5911,3.5335,3.5417,3.5281,3.5082,3.5389,3.6316,3.7285,3.7935,3.933,4.0,3.8881,3.8743,3.8804,3.8942,3.8555,3.8051,3.7597,3.6944,3.6182,3.5371,3.445,3.3577,3.2673,3.23,3.1983,3.1691,3.1336,3.092,3.0429,2.9675,2.8743,2.8036,2.75,2.6721,2.5838,2.4377,2.3075,2.1745,2.0433,2.0229,2.0935,2.2587,2.4052,0.2652,-0.0,-0.3129,-0.7753,-0.9589,0.0,-1.5003,-1.5885,-1.6448,-1.8435,-1.8746,-1.878,-1.8989,-1.8549,-1.7764,-1.6615,-1.5194,-1.2563,-0.7781,-0.5794,-0.4101,-0.2053,0.0175,0.2325,0.4476,0.6605,0.8652,1.0371,1.2289,1.485,1.8088,2.0106,2.1989,2.3652,2.4609,2.5198,2.5527,2.5421,2.4652,2.3448,2.3889,2.3985,2.365,2.4101,2.4989,2.6056,2.6519,2.7413,2.854,2.9661,3.0334,3.0915,3.0809,3.1365,3.2322,3.3078,3.3592,3.3928,3.4349,3.4795,3.5115,3.4762,3.524,3.5905,3.5905,3.6203,3.6545,3.6545,3.63,3.6139,3.6186,3.6029,3.5961,3.6234,3.7233,3.8234,3.9281,4.072,4.1519,4.1295,4.1092,4.0929,4.0814,4.0096,3.9206,3.8583,3.7728,3.6912,3.629,3.5475,3.4916,3.439,3.3861,3.3329,3.2795,3.2485,3.189,3.0908,3.0674,3.0484,2.9905,2.9757,2.9313,2.8789,2.7446,2.5739,2.3456,2.0842,2.0421,2.1909,2.3044,2.4188,0.2629,-0.0701,-0.3703,-0.6701,-0.934,0.0,-1.5539,-1.7802,-1.9765,-2.1933,-2.3112,-2.3759,-2.3738,-2.2801,-2.1935,-2.1899,-1.8985,-1.5186,-1.0553,-0.8182,-0.6151,-0.3993,-0.1586,0.0947,0.3578,0.5578,0.7403,0.9334,1.2062,1.4471,1.6445,1.8296,1.994,2.1447,2.2641,2.3419,2.4049,2.4108,2.3874,2.3362,2.3373,2.3688,2.4164,2.495,2.5955,2.7085,2.8859,2.9738,2.9984,3.1331,3.1264,3.065,3.1472,3.2085,3.2483,3.2812,3.3535,3.4328,3.421,3.507,3.607,3.57,3.6286,3.7122,3.7363,3.7309,3.7253,3.7253,3.7132,3.7032,3.6529,3.6436,3.6568,3.6391,3.7791,3.9529,4.0193,4.1899,4.3316,4.3714,4.2879,4.1993,4.1993,4.1007,4.0265,4.0409,3.9347,3.8416,3.8388,3.731,3.6274,3.5613,3.5234,3.4681,3.401,3.3724,3.3381,3.3196,3.2648,3.2394,3.2584,3.2509,3.2481,3.2208,3.0617,2.9264,2.813,2.3484,2.181,2.3067,2.3883,2.4911,0.2118,-0.1052,-0.3765,-0.6641,-0.9781,0.0,0.0,-1.8858,-2.1651,-2.3752,-2.5338,-2.6481,-2.6745,-2.6017,-2.52,-2.458,-2.1679,-1.8313,-1.4909,-1.1238,-0.8,-0.5364,-0.2828,-0.0084,0.2976,0.4918,0.7081,0.9789,1.2107,1.412,1.5552,1.7418,1.883,1.9898,2.1245,2.2334,2.2963,2.3454,2.3801,2.4128,2.4961,2.574,2.652,2.791,2.9183,3.0294,3.1626,3.2493,3.2954,3.3549,3.3523,3.3189,3.2664,3.3061,3.3698,3.3942,3.4316,3.498,3.4758,3.5445,3.6293,3.627,3.676,3.7406,3.8028,3.8275,3.8291,3.7807,3.7679,3.7517,3.7032,3.7,3.7186,3.7384,3.8791,4.0383,4.1302,4.2579,4.3825,4.4658,4.4115,4.3308,4.306,4.2415,4.1728,4.1595,4.0976,4.0292,4.0024,3.9199,3.8555,3.7798,3.7116,3.645,3.5759,3.518,3.4796,3.4508,3.4103,3.4215,3.4957,3.5064,3.5313,3.5722,3.4948,3.4359,3.3957,3.0496,2.7792,2.5854,2.6332,2.6557,0.1609,-0.1325,-0.3944,-0.7075,-1.0404,-1.3586,0.0,0.0,0.0,-2.4706,-2.6428,-2.7883,-2.8617,-2.8387,-2.7648,-2.638,-2.374,-2.1074,-1.8578,-1.3963,-0.9723,-0.6612,-0.3797,-0.0814,0.2467,0.4813,0.7526,1.0619,1.2479,1.4033,1.5355,1.7235,1.8594,1.9456,2.0981,2.2173,2.3072,2.3958,2.4964,2.6123,2.7693,2.8946,2.9977,3.1782,3.3093,3.4177,3.4761,3.5359,3.5923,3.5865,3.5982,3.6071,3.4098,3.4186,3.5179,3.509,3.5333,3.5643,3.5643,3.607,3.6589,3.6812,3.7155,3.7748,3.8505,3.9059,3.929,3.8318,3.8241,3.8216,3.7626,3.766,3.804,3.876,3.9869,4.113,4.2426,4.3103,4.3939,4.499,4.4836,4.4347,4.3822,4.3556,4.3322,4.2609,4.257,4.2393,4.1794,4.1198,4.0671,4.028,3.9231,3.8242,3.7554,3.6769,3.6191,3.5724,3.5679,3.6257,3.7257,3.7669,3.8465,3.9614,3.973,3.9742,3.9804,3.8364,3.4972,2.9822,2.9482,2.902,0.1623,-0.1808,-0.4913,-0.7474,-1.0239,-1.3424,-1.7224,0.0,-2.2503,-2.5401,0.0,-2.8371,-2.9646,0.0,0.0,-2.82,-2.5284,-2.2069,-1.918,-1.52,-1.1411,-0.8329,-0.455,-0.1026,0.1867,0.5805,0.9183,1.1436,1.3131,1.4704,1.6147,1.8058,1.9612,2.0867,2.238,2.3956,2.5767,2.7085,2.8619,3.0402,3.1663,3.3055,3.4469,3.5491,3.6557,3.7575,3.8155,3.8019,3.7303,3.7696,3.7349,3.6495,3.5381,3.5364,3.61,3.5642,3.5864,3.6603,3.6603,3.7037,3.7676,3.7786,3.8161,3.87,3.9192,3.9608,3.9651,3.8478,3.9012,3.9639,3.8267,3.8739,3.9574,3.9831,4.0782,4.1943,4.3128,4.3782,4.4321,4.5365,4.5122,4.4747,4.4286,4.4179,4.4233,4.4359,4.3951,4.3837,4.4203,4.3076,4.2249,4.1834,4.0759,3.9713,3.9035,3.8242,3.7942,3.7967,3.8105,3.8432,3.9485,4.1173,4.2591,4.4006,4.4482,4.4775,4.5025,4.3847,4.0547,3.5226,3.3395,3.2185,0.1441,-0.1996,-0.5132,-0.7408,-1.0257,-1.346,-1.6536,-1.9712,-2.2648,-2.4691,0.0,0.0,0.0,0.0,0.0,0.0,-2.3949,-2.0863,-1.8195,-1.4403,-1.0804,-0.7921,-0.463,-0.0629,0.4326,0.799,1.095,1.3353,1.479,1.647,1.8528,2.0061,2.1424,2.2798,2.4562,2.6227,2.7964,3.0232,3.24,3.454,3.6284,3.7687,3.8891,3.9965,4.0566,4.073,4.0955,4.0599,3.9854,3.9443,3.8924,3.8275,3.7536,3.7038,3.6773,3.654,3.6741,3.7251,3.7251,3.7689,3.8333,3.8357,3.9043,3.9671,3.9354,3.9768,4.0072,3.9411,3.9777,4.0073,3.9265,4.0009,4.0984,4.1239,4.2243,4.3485,4.4437,4.4661,4.499,4.6049,4.612,4.6191,4.6167,4.5536,4.5155,4.5232,4.5326,4.5232,4.486,4.431,4.3669,4.2811,4.2175,4.1399,4.0755,4.0476,4.0115,3.9708,4.0003,4.0575,4.1109,4.2534,4.374,4.4778,4.5955,4.6926,4.7234,4.617,4.4188,4.1179,3.7763,3.535,0.1262,-0.1823,-0.4798,-0.7061,-1.003,-1.3066,-1.5965,-1.9141,-2.2032,-2.4002,-2.6008,0.0,0.0,0.0,-2.6683,-2.4959,0.0,-1.9213,-1.6188,-1.3065,-1.0253,-0.804,-0.4011,0.0862,0.6565,0.9712,1.2504,1.5046,1.675,1.8697,2.0969,2.2231,2.3665,2.5118,2.6907,2.8738,3.0738,3.3246,3.5817,3.8372,4.0118,4.1463,4.2305,4.3256,4.3386,4.296,4.2746,4.2239,4.1522,4.0483,3.9873,3.9488,3.8988,3.8315,3.7655,3.7572,3.7679,3.7916,3.7916,3.8262,3.8814,3.8983,3.9501,3.9864,3.9404,3.9815,4.0326,3.9937,4.0392,4.0916,4.058,4.1393,4.2494,4.306,4.4044,4.4982,4.5768,4.5739,4.5856,4.7088,4.7329,4.7593,4.8016,4.7218,4.6579,4.6311,4.6634,4.6493,4.563,4.5029,4.4536,4.4031,4.3205,4.2812,4.2706,4.2525,4.2259,4.1654,4.1989,4.2438,4.2836,4.3579,4.4277,4.4886,4.6234,4.7092,4.7647,4.655,4.5357,4.4255,4.0643,3.79,0.1092,-0.1383,-0.3849,-0.6713,-0.9366,-1.2226,-1.6048,-1.8176,-2.0189,-2.3556,-2.4466,-2.5251,-2.693,-2.6999,-2.5858,-2.2818,-2.0761,0.0,0.0,-1.1509,-1.0491,-0.9399,-0.2376,0.372,0.7363,1.0726,1.3587,1.6008,1.87,2.0999,2.2915,2.4356,2.6112,2.7973,2.9342,3.147,3.4474,3.6226,3.8586,4.1617,4.2556,4.3405,4.4456,4.4192,4.4055,4.3748,4.3257,4.2398,4.1258,4.0711,3.999,3.9283,3.8945,3.8945,3.9154,3.8841,3.8736,3.8736,3.8736,3.8761,3.8859,3.9373,3.9202,3.8988,3.9398,3.9996,4.032,3.9561,4.0902,4.2486,4.2158,4.3137,4.4383,4.5675,4.5833,4.6021,4.7125,4.7064,4.7099,4.8428,4.8631,4.8739,4.9388,4.9286,4.8738,4.8049,4.7785,4.759,4.7158,4.5552,4.4673,4.5559,4.3986,4.3345,4.4736,4.3974,4.3768,4.4206,4.4112,4.4099,4.4699,4.4316,4.4414,4.5025,4.5079,4.5439,4.5955,4.4751,4.3771,4.3226,4.1128,3.9188,-0.0281,-0.2751,-0.4975,-0.6872,-0.9848,-1.2825,-1.4884,-1.7534,-2.0112,-2.2213,-2.3317,-2.424,-2.502,-2.42,-2.2651,-2.0411,-1.7795,-1.4657,0.0,-0.6701,-0.3531,-0.1675,0.2491,0.6395,0.9526,1.287,1.6246,1.9619,2.132,2.339,2.6087,2.6744,2.7993,2.9831,3.1386,3.3015,3.4889,3.7096,3.9381,4.1569,4.2362,4.3222,4.4109,4.3557,4.339,4.3439,4.2563,4.2079,4.1801,4.0952,4.0261,3.9775,3.9672,3.9775,3.9775,3.9258,3.9362,3.9672,3.9878,4.0234,4.0436,3.9572,3.9521,3.9622,3.9343,3.9775,4.0385,4.1022,4.1817,4.2613,4.3628,4.4597,4.5603,4.6799,4.7506,4.7958,4.8435,4.8403,4.8608,4.9611,4.9776,4.9988,5.111,5.0847,4.9897,4.8451,4.8004,4.7512,4.6689,4.5724,4.5052,4.4713,4.43,4.4111,4.4313,4.457,4.493,4.5912,4.519,4.4569,4.4289,4.3573,4.2813,4.1834,4.2064,4.2123,4.1993,4.1485,4.0932,4.0489,3.9165,3.8082,-0.1525,-0.3851,-0.5711,-0.7197,-1.0057,-1.2871,-1.4595,-1.6843,-1.9154,-2.093,-2.1844,-2.2418,-2.2853,-2.176,-2.0032,-1.7895,-1.4991,-1.1359,0.0,-0.1983,0.1766,0.4708,0.6792,0.8815,1.0684,1.4475,1.8243,2.1493,2.3184,2.5247,2.7793,2.837,2.9511,3.1246,3.2641,3.4096,3.5634,3.7335,3.9222,4.1235,4.1607,4.2244,4.3045,4.2602,4.2452,4.2431,4.1932,4.1723,4.1821,4.1051,4.0593,4.0389,4.0287,4.0389,4.0517,4.0311,4.0465,4.0901,4.1003,4.1208,4.1106,4.0083,3.9981,4.0211,3.9753,4.0007,4.0568,4.1723,4.2239,4.2886,4.4591,4.5581,4.6487,4.7923,4.8666,4.9157,4.959,4.9611,4.9686,5.0569,5.0473,5.0663,5.1655,5.1393,5.0604,4.9149,4.8291,4.7454,4.6335,4.5326,4.4658,4.4347,4.4044,4.3984,4.4465,4.5324,4.6025,4.6657,4.5743,4.4816,4.3982,4.2792,4.1461,4.0286,3.9791,3.9509,3.9445,3.8814,3.8548,3.8359,3.7444,3.6666]},{"header":{"parameterUnit":"m.s-1","parameterCategory":1,"la1":30.6,"la2":29.2853,"lo1":-89.7004,"lo2":-87.6739,"dy":0.0162,"dx":0.0183,"nx":112,"ny":82,"refTime":"2023-07-15T12:00:00:Z","depth":0,"parameterNumber":3,"parameterNumberName":"V-component_of_WINDS"},"data":[0.0,0.0,0.0,0.0,0.0,0.0,0.0,0.0,0.0,0.0,0.0,0.0,0.0,0.0,0.0,0.0,0.0,0.0,0.0,0.0,0.0,0.0,0.0,0.0,0.0,0.0,0.0,0.0,0.0,0.0,0.0,0.0,0.0,0.0,0.0,0.0,0.0,0.0,0.0,0.0,0.0,0.0,0.0,0.0,0.0,0.0,0.0,0.0,0.0,0.0,0.0,0.0,0.0,0.0,0.0,0.0,0.0,0.0,0.0,0.0,0.0,0.0,0.0,0.0,0.0,0.0,0.0,0.0,0.0,0.0,0.0,0.0,0.0,0.0,0.0,0.0,0.0,0.0,0.0,0.0,0.0,0.0,0.0,0.0,0.0,0.0,0.0,0.0,0.0,0.0,-1.8963,-1.7839,-1.7152,-1.7197,-1.8247,-1.8924,-1.9435,-1.9745,0.0,0.0,0.0,0.0,0.0,0.0,0.0,0.0,0.0,0.0,0.0,0.0,0.0,0.0,0.0,0.0,0.0,0.0,0.0,0.0,0.0,0.0,0.0,0.0,0.0,0.0,0.0,0.0,0.0,0.0,0.0,0.0,0.0,0.0,0.0,0.0,0.0,0.0,0.0,0.0,0.0,0.0,0.0,0.0,0.0,0.0,0.0,0.0,0.0,0.0,0.0,0.0,0.0,0.0,0.0,0.0,0.0,0.0,0.0,0.0,0.0,0.0,0.0,0.0,0.0,0.0,0.0,0.0,0.0,0.0,0.0,0.0,0.0,0.0,0.0,0.0,0.0,0.0,0.0,0.0,0.0,0.0,0.0,0.0,0.0,0.0,0.0,0.0,0.0,0.0,0.0,0.0,0.0,0.0,0.0,0.0,0.0,0.0,0.0,0.0,0.0,0.0,0.0,0.0,-1.7735,-1.7856,-1.7729,-1.808,-1.9201,-1.9554,-1.985,-2.0096,0.0,0.0,0.0,0.0,0.0,0.0,0.0,0.0,0.0,0.0,0.0,0.0,0.0,0.0,0.0,0.0,0.0,0.0,0.0,0.0,0.0,0.0,0.0,0.0,0.0,0.0,0.0,0.0,0.0,0.0,0.0,0.0,0.0,0.0,0.0,0.0,0.0,0.0,0.0,0.0,0.0,0.0,0.0,0.0,0.0,0.0,0.0,0.0,0.0,0.0,0.0,0.0,0.0,0.0,0.0,0.0,0.0,0.0,0.0,0.0,0.0,0.0,0.0,0.0,0.0,0.0,0.0,0.0,0.0,0.0,0.0,0.0,0.0,0.0,0.0,0.0,0.0,0.0,0.0,0.0,0.0,0.0,0.0,0.0,0.0,0.0,0.0,0.0,0.0,0.0,0.0,0.0,0.0,0.0,0.0,0.0,0.0,0.0,0.0,0.0,0.0,0.0,0.0,-1.6464,-1.6562,-1.7667,-1.7773,-1.8344,-1.979,-2.0063,-2.0188,-2.0282,-2.0328,0.0,0.0,0.0,0.0,0.0,0.0,0.0,0.0,0.0,0.0,0.0,0.0,0.0,0.0,0.0,0.0,0.0,0.0,0.0,0.0,0.0,0.0,0.0,0.0,0.0,0.0,0.0,0.0,0.0,0.0,0.0,0.0,0.0,0.0,0.0,0.0,0.0,0.0,0.0,0.0,0.0,0.0,0.0,0.0,0.0,0.0,0.0,0.0,0.0,0.0,0.0,0.0,0.0,0.0,0.0,0.0,0.0,0.0,0.0,0.0,0.0,0.0,0.0,0.0,0.0,0.0,0.0,0.0,0.0,0.0,0.0,0.0,0.0,0.0,0.0,0.0,0.0,0.0,0.0,0.0,0.0,0.0,0.0,0.0,0.0,0.0,0.0,0.0,0.0,0.0,0.0,0.0,0.0,0.0,0.0,0.0,0.0,0.0,0.0,0.0,0.0,0.0,-1.5255,-1.579,-1.7511,-1.7704,-1.8428,-2.0153,-2.0387,-2.0425,-2.042,-2.0467,0.0,0.0,0.0,0.0,0.0,0.0,0.0,0.0,0.0,0.0,0.0,0.0,0.0,0.0,0.0,0.0,0.0,0.0,0.0,0.0,0.0,0.0,0.0,0.0,0.0,0.0,0.0,0.0,0.0,0.0,0.0,0.0,0.0,0.0,0.0,0.0,0.0,0.0,0.0,0.0,0.0,0.0,0.0,0.0,0.0,0.0,0.0,0.0,0.0,0.0,0.0,0.0,0.0,0.0,0.0,0.0,0.0,0.0,0.0,0.0,0.0,0.0,0.0,0.0,0.0,0.0,0.0,0.0,0.0,0.0,0.0,0.0,0.0,0.0,0.0,0.0,0.0,0.0,0.0,0.0,0.0,0.0,0.0,0.0,0.0,0.0,0.0,0.0,0.0,0.0,0.0,0.0,0.0,0.0,0.0,0.0,0.0,0.0,0.0,0.0,0.0,0.0,-1.5548,-1.567,-1.7433,-1.7644,-1.8445,-2.0258,-2.0441,-2.0483,-2.0495,-2.0516,0.0,0.0,0.0,0.0,0.0,0.0,0.0,0.0,0.0,0.0,0.0,0.0,0.0,0.0,0.0,0.0,0.0,0.0,0.0,0.0,0.0,0.0,0.0,0.0,0.0,0.0,0.0,0.0,0.0,0.0,0.0,0.0,0.0,0.0,0.0,0.0,0.0,0.0,0.0,0.0,0.0,0.0,0.0,0.0,0.0,0.0,0.0,0.0,0.0,0.0,0.0,0.0,0.0,0.0,0.0,0.0,0.0,0.0,0.0,0.0,0.0,0.0,0.0,0.0,0.0,0.0,0.0,0.0,0.0,0.0,0.0,0.0,0.0,0.0,0.0,0.0,0.0,0.0,0.0,0.0,0.0,0.0,0.0,0.0,0.0,0.0,0.0,0.0,0.0,0.0,0.0,0.0,0.0,0.0,0.0,0.0,0.0,0.0,0.0,0.0,0.0,0.0,-1.5529,-1.5575,-1.7288,-1.7513,-1.8252,-2.0108,-2.0347,-2.0377,-2.0438,0.0,0.0,0.0,0.0,0.0,0.0,0.0,0.0,0.0,0.0,0.0,0.0,0.0,0.0,0.0,0.0,0.0,0.0,0.0,0.0,0.0,0.0,0.0,0.0,0.0,0.0,0.0,0.0,0.0,0.0,0.0,0.0,0.0,0.0,0.0,0.0,0.0,0.0,0.0,0.0,0.0,0.0,0.0,0.0,0.0,0.0,0.0,0.0,0.0,0.0,0.0,0.0,0.0,0.0,0.0,0.0,0.0,0.0,0.0,0.0,0.0,0.0,0.0,0.0,0.0,0.0,0.0,0.0,0.0,0.0,0.0,0.0,0.0,0.0,0.0,0.0,0.0,0.0,0.0,0.0,0.0,0.0,0.0,0.0,0.0,0.0,0.0,0.0,0.0,0.0,0.0,0.0,0.0,0.0,0.0,0.0,0.0,0.0,0.0,0.0,0.0,0.0,-1.6774,-1.5776,-1.5565,-1.672,-1.7079,-1.7898,-1.9543,-2.0011,-2.028,-2.0341,0.0,0.0,0.0,0.0,0.0,0.0,0.0,0.0,0.0,0.0,0.0,0.0,0.0,0.0,0.0,0.0,0.0,0.0,0.0,0.0,0.0,0.0,0.0,0.0,0.0,0.0,0.0,0.0,0.0,0.0,0.0,0.0,0.0,0.0,0.0,0.0,0.0,0.0,0.0,0.0,0.0,0.0,0.0,0.0,0.0,0.0,0.0,0.0,0.0,0.0,0.0,0.0,0.0,0.0,0.0,0.0,0.0,0.0,0.0,0.0,0.0,0.0,0.0,0.0,0.0,0.0,0.0,0.0,0.0,0.0,0.0,0.0,0.0,0.0,0.0,0.0,0.0,0.0,0.0,0.0,0.0,0.0,0.0,0.0,0.0,0.0,0.0,0.0,0.0,0.0,0.0,0.0,0.0,0.0,0.0,0.0,0.0,0.0,0.0,0.0,0.0,0.0,-1.7564,-1.6409,-1.5658,-1.5624,-1.6374,-1.7349,-1.8493,-1.9495,-2.0119,0.0,0.0,0.0,0.0,0.0,0.0,0.0,0.0,0.0,0.0,0.0,0.0,0.0,0.0,0.0,0.0,0.0,0.0,0.0,0.0,0.0,0.0,0.0,0.0,0.0,0.0,0.0,0.0,0.0,0.0,0.0,0.0,0.0,0.0,0.0,0.0,0.0,0.0,0.0,0.0,0.0,0.0,0.0,0.0,0.0,0.0,0.0,0.0,0.0,0.0,0.0,0.0,0.0,0.0,0.0,0.0,0.0,0.0,0.0,0.0,0.0,0.0,0.0,0.0,0.0,0.0,0.0,0.0,0.0,0.0,0.0,0.0,0.0,0.0,0.0,0.0,0.0,0.0,0.0,0.0,0.0,0.0,0.0,0.0,0.0,0.0,0.0,0.0,0.0,0.0,0.0,0.0,0.0,0.0,0.0,0.0,0.0,0.0,0.0,0.0,0.0,0.0,0.0,-1.8122,-1.6522,-1.5565,-1.5965,-1.5735,-1.6,-1.7151,-1.7718,-1.8088,-1.8374,0.0,0.0,0.0,0.0,0.0,0.0,0.0,0.0,0.0,0.0,0.0,0.0,0.0,0.0,0.0,0.0,0.0,0.0,0.0,0.0,0.0,0.0,0.0,0.0,0.0,0.0,0.0,0.0,0.0,0.0,0.0,0.0,0.0,0.0,0.0,0.0,0.0,0.0,0.0,0.0,0.0,0.0,0.0,0.0,0.0,0.0,0.0,0.0,0.0,0.0,0.0,0.0,0.0,0.0,0.0,0.0,0.0,0.0,0.0,0.0,0.0,0.0,0.0,0.0,0.0,0.0,0.0,0.0,0.0,0.0,0.0,0.0,0.0,0.0,0.0,0.0,0.0,0.0,0.0,0.0,0.0,0.0,0.0,0.0,0.0,0.0,0.0,0.0,0.0,0.0,0.0,0.0,0.0,0.0,0.0,0.0,0.0,0.0,0.0,0.0,0.0,0.0,-1.879,-1.7168,-1.594,-1.5521,-1.5523,-1.566,-1.5922,-1.6817,-1.7407,-1.7524,0.0,0.0,0.0,0.0,0.0,0.0,0.0,0.0,0.0,0.0,0.0,0.0,0.0,0.0,0.0,0.0,0.0,0.0,0.0,0.0,0.0,0.0,0.0,0.0,0.0,0.0,0.0,0.0,0.0,0.0,0.0,0.0,0.0,0.0,0.0,0.0,0.0,0.0,0.0,0.0,0.0,0.0,0.0,0.0,0.0,0.0,0.0,0.0,0.0,0.0,0.0,0.0,0.0,0.0,0.0,0.0,0.0,0.0,0.0,0.0,0.0,0.0,0.0,0.0,0.0,0.0,0.0,0.0,0.0,0.0,0.0,0.0,0.0,0.0,0.0,0.0,0.0,0.0,0.0,0.0,0.0,0.0,0.0,0.0,0.0,0.0,0.0,0.0,0.0,0.0,0.0,0.0,0.0,0.0,0.0,0.0,0.0,0.0,0.0,0.0,0.0,0.0,-1.9467,-1.8041,-1.6483,-1.4663,-1.5436,-1.5691,-1.481,-1.6384,-1.7337,-1.7157,0.0,0.0,0.0,0.0,0.0,0.0,0.0,0.0,0.0,0.0,0.0,0.0,0.0,0.0,0.0,0.0,0.0,0.0,0.0,0.0,0.0,0.0,0.0,0.0,0.0,0.0,0.0,0.0,0.0,0.0,0.0,0.0,0.0,0.0,0.0,0.0,0.0,0.0,0.0,0.0,0.0,0.0,0.0,0.0,0.0,0.0,0.0,0.0,0.0,0.0,0.0,0.0,0.0,0.0,0.0,0.0,0.0,0.0,0.0,0.0,-0.1003,-0.0543,0.0,0.0,0.0,0.0,0.0,0.0,0.0,0.0,0.0,0.0,0.0,0.0,0.0,0.0,0.0,0.0,0.0,0.0,0.0,0.0,0.0,0.0,0.0,0.0,0.0,0.0,0.0,0.0,0.0,0.0,0.0,0.0,0.0,0.0,0.0,0.0,0.0,0.0,0.0,0.0,-1.939,-1.7495,-1.592,-1.5047,-1.4087,-1.37,-1.4215,-1.4504,-1.4831,-1.5186,-1.612,0.0,0.0,0.0,0.0,0.0,0.0,0.0,0.0,0.0,0.0,0.0,0.0,0.0,0.0,0.0,0.0,0.0,0.0,0.0,0.0,0.0,0.0,0.0,0.0,0.0,0.0,0.0,0.0,0.0,0.0,0.0,0.0,0.0,0.0,0.0,0.0,0.0,0.0,0.0,0.0,0.0,0.0,0.0,0.0,0.0,0.0,0.0,0.0,0.0,0.0,0.0,0.0,0.0,0.0,0.0,0.0,0.0,0.0,0.0,-0.537,-0.4179,0.0,0.0,0.0,0.0,0.0,0.0,0.0,0.0,0.0,0.0,0.0,0.0,0.0,0.0,0.0,0.0,0.0,0.0,0.0,0.0,0.0,0.0,0.0,0.0,0.0,0.0,0.0,0.0,0.0,0.0,0.0,0.0,0.0,0.0,0.0,0.0,0.0,0.0,0.0,0.0,-1.9811,-1.8146,-1.6728,-1.5833,-1.5244,-1.4718,-1.4278,-1.4688,-1.4849,-1.4651,-1.5394,0.0,0.0,0.0,0.0,0.0,0.0,0.0,0.0,0.0,0.0,0.0,0.0,0.0,0.0,0.0,0.0,0.0,0.0,0.0,0.0,0.0,0.0,0.0,0.0,0.0,0.0,0.0,0.0,0.0,0.0,0.0,0.0,0.0,0.0,0.0,0.0,0.0,0.0,0.0,0.0,0.0,0.0,0.0,0.0,0.0,0.0,0.0,0.0,0.0,0.0,0.0,0.0,0.0,-1.3037,-1.1884,-1.1014,-1.1011,-1.1503,-1.2288,-1.041,-0.8863,-0.7806,-0.9656,0.0,0.0,0.0,0.0,0.0,0.0,0.0,0.0,0.0,0.0,0.0,0.0,0.0,0.0,0.0,0.0,0.0,0.0,0.0,0.0,0.0,0.0,-3.015,-2.8798,-2.8745,-2.8487,-2.6397,0.0,0.0,0.0,0.0,0.0,0.0,0.0,0.0,0.0,0.0,0.0,-2.0386,-1.9071,-1.7844,-1.6605,-1.6786,-1.6397,-1.4786,-1.5485,-1.5674,-1.4791,-1.4871,-1.5041,0.0,0.0,0.0,0.0,0.0,0.0,0.0,0.0,0.0,0.0,0.0,0.0,0.0,0.0,0.0,0.0,0.0,0.0,0.0,0.0,0.0,0.0,0.0,0.0,0.0,0.0,0.0,0.0,0.0,0.0,0.0,0.0,-2.51,-2.4537,0.0,0.0,0.0,0.0,0.0,0.0,0.0,0.0,0.0,0.0,0.0,0.0,0.0,-2.3911,-2.202,-2.1532,-2.0272,-1.8322,-1.6892,-1.5891,-1.5367,-1.4845,-1.4706,-1.4844,-1.5291,0.0,-1.2041,-1.3747,0.0,0.0,0.0,0.0,0.0,0.0,0.0,0.0,0.0,0.0,0.0,0.0,0.0,0.0,0.0,0.0,0.0,0.0,0.0,0.0,0.0,0.0,-3.0526,-2.9011,-2.9385,-2.9648,-2.8092,-2.7913,-2.8008,-2.7873,-2.7809,-2.7721,0.0,0.0,0.0,0.0,0.0,0.0,-2.0799,-1.9432,-1.8212,-1.6898,-1.6316,-1.5894,-1.5656,-1.5487,-1.5246,-1.4828,-1.4265,-1.4383,-1.5262,-1.4519,0.0,0.0,0.0,0.0,0.0,0.0,0.0,0.0,0.0,0.0,0.0,0.0,0.0,0.0,0.0,0.0,0.0,0.0,0.0,0.0,0.0,0.0,0.0,0.0,0.0,0.0,0.0,0.0,0.0,-2.6162,-2.5112,-2.4622,-2.4331,-2.4283,0.0,0.0,0.0,0.0,0.0,0.0,0.0,0.0,0.0,-2.3766,-2.4611,-2.4861,-2.434,-2.4237,-2.3195,-2.1169,-2.0313,-1.9427,-1.8451,-1.8266,-1.8198,-1.8315,-1.9647,-1.9604,-1.8514,-1.8237,-1.9678,-2.2206,0.0,0.0,0.0,0.0,-3.5717,-3.9376,-4.2929,-4.634,-4.9624,-5.2141,0.0,0.0,0.0,0.0,0.0,0.0,0.0,-3.8088,-3.5571,-3.4141,-3.2951,-3.1431,-3.1482,-3.1718,-3.1142,-3.107,-3.0547,-2.8563,-2.8133,-2.8016,-2.7933,-2.7841,0.0,0.0,0.0,-2.3896,-2.1522,-2.0709,-1.9921,-1.8747,-1.8803,-1.8414,-1.7143,-1.7022,-1.6615,-1.5691,-1.4535,-1.4018,-1.4403,-1.3504,-1.3722,0.0,0.0,0.0,0.0,0.0,0.0,0.0,0.0,0.0,0.0,0.0,0.0,0.0,0.0,0.0,0.0,0.0,0.0,0.0,0.0,0.0,0.0,0.0,0.0,0.0,0.0,0.0,0.0,-2.5512,-2.4986,-2.4666,-2.4233,-2.4055,0.0,0.0,0.0,0.0,0.0,0.0,-2.3322,-2.3591,-2.4183,-2.5095,-2.5742,-2.6139,-2.6274,-2.661,-2.5838,-2.402,-2.3574,-2.2852,-2.1859,-2.1773,-2.1769,-2.1928,-2.3431,-2.4332,-2.4602,-2.2812,-2.3696,-2.634,-2.8147,-3.0749,-3.3814,-3.6625,-3.9673,-4.2879,-4.6457,-4.9431,-5.1992,-5.4304,-5.4529,-5.3846,-5.3082,0.0,0.0,0.0,0.0,-4.0879,-3.7609,-3.6339,-3.556,-3.3997,-3.3703,-3.3774,-3.3666,-3.3696,-3.289,-3.0069,-2.9407,-2.9311,-2.9245,-2.9,0.0,-2.6644,-2.6085,-2.5139,-2.3161,-2.2821,-2.2268,-2.1016,-2.1527,-2.1005,-1.8656,-1.8615,-1.8057,-1.6437,-1.4973,-1.3978,-1.356,-1.2541,-1.2609,-1.3882,0.0,0.0,0.0,0.0,0.0,0.0,0.0,0.0,0.0,0.0,0.0,0.0,0.0,0.0,0.0,0.0,0.0,0.0,0.0,0.0,0.0,0.0,0.0,0.0,0.0,0.0,0.0,0.0,0.0,-2.467,-2.4795,0.0,0.0,0.0,0.0,-2.4217,-2.4239,-2.4238,-2.4238,-2.5726,-2.656,-2.6481,-2.7941,-2.8262,-2.7319,-2.8085,-2.8093,-2.7279,-2.6588,-2.6323,-2.635,-2.5662,-2.539,-2.5488,-2.6399,-2.7725,-2.9047,-2.7309,-2.7133,-2.8201,-3.0651,-3.3238,-3.5936,-3.9277,-4.2189,-4.5025,-4.8477,-5.1385,-5.3864,-5.5636,-5.6122,-5.5617,-5.3171,-5.1073,0.0,0.0,-4.3751,-4.2328,-3.8878,-3.7964,-3.7537,-3.594,-3.5621,-3.5482,-3.4691,-3.4585,-3.4336,-3.3267,-3.2972,-3.2919,-3.283,0.0,-3.1202,-3.0271,-2.9294,-2.8058,-2.6199,-2.592,-2.5181,-2.3434,-2.3307,-2.2388,-1.992,-1.9823,-1.8922,-1.6642,-1.5469,-1.4328,-1.3163,-1.1856,-1.1518,-1.2284,-1.4111,0.0,0.0,0.0,0.0,0.0,0.0,0.0,0.0,0.0,0.0,0.0,0.0,0.0,0.0,0.0,0.0,0.0,0.0,0.0,0.0,0.0,0.0,0.0,0.0,0.0,0.0,0.0,0.0,-2.4791,-2.4351,0.0,-2.3698,-2.3944,-2.4389,-2.5024,-2.5621,-2.6217,-2.6782,-2.7906,-2.8748,-2.9205,-3.0273,-3.0893,-3.1018,-3.1302,-3.1032,-3.0271,-3.0057,-2.9721,-2.9285,-2.9069,-2.8978,-2.9031,-2.9897,-3.0901,-3.1971,-3.2454,-3.2817,-3.3293,-3.5776,-3.8031,-4.0161,-4.3001,-4.5723,-4.8394,-5.072,-5.3234,-5.5541,-5.6191,-5.6026,-5.519,-5.3206,-5.1686,-5.0221,-4.7915,-4.6653,-4.5321,-4.2461,-4.1713,-4.115,-3.8873,-3.8371,-3.8159,-3.7365,-3.7183,-3.7109,-3.6719,-3.4837,-3.3226,-3.3169,-3.2904,-3.2356,-3.1506,-3.0568,-2.9485,-2.8289,-2.7572,-2.6529,-2.4809,-2.5098,-2.4197,-2.1158,-2.0988,-1.9939,-1.7449,-1.5046,-1.3107,-1.1761,-0.983,-0.9234,-1.0211,-1.2418,-1.6144,0.0,0.0,0.0,0.0,0.0,0.0,0.0,0.0,0.0,0.0,0.0,0.0,0.0,0.0,0.0,0.0,0.0,0.0,0.0,0.0,0.0,0.0,0.0,0.0,0.0,-2.6617,-2.5622,-2.5288,-2.4525,-2.3865,-2.352,-2.4331,-2.5142,-2.5866,-2.7294,-2.8437,-2.9054,-3.0153,-3.1015,-3.155,-3.2091,-3.2589,-3.3064,-3.3055,-3.2938,-3.2696,-3.2787,-3.2679,-3.2448,-3.2517,-3.2527,-3.2566,-3.3117,-3.3841,-3.469,-3.6082,-3.6784,-3.723,-3.9165,-4.082,-4.2458,-4.5285,-4.766,-4.9854,-5.2505,-5.4927,-5.6862,-5.69,-5.653,-5.5767,-5.4103,-5.3143,-5.2292,-5.0574,-4.9709,-4.8688,-4.6122,-4.5465,-4.4804,-4.2186,-4.1561,-4.1248,-4.0117,-3.9687,-3.9445,-3.938,-3.705,-3.4954,-3.4601,-3.4315,-3.3828,-3.2943,-3.2038,-3.113,-3.0277,-2.9602,-2.8579,-2.6903,-2.6914,-2.5906,-2.3104,-2.2138,-2.0519,-1.7848,-1.4926,-1.2352,-1.0174,-0.8166,-0.7482,-0.8271,-1.2405,-1.7629,-2.3892,0.0,0.0,0.0,0.0,0.0,0.0,0.0,0.0,0.0,0.0,0.0,0.0,0.0,0.0,0.0,0.0,0.0,0.0,0.0,0.0,0.0,0.0,0.0,-2.8239,-2.6805,-2.5897,-2.6118,-2.5355,-2.4922,-2.5091,-2.5914,-2.6544,-2.673,-2.9146,-3.065,-3.0833,-3.2402,-3.3331,-3.3332,-3.3412,-3.34,-3.3308,-3.3347,-3.379,-3.4629,-3.469,-3.5139,-3.5988,-3.5961,-3.5994,-3.5976,-3.5976,-3.6448,-3.7277,-3.8055,-3.8883,-3.9688,-4.0539,-4.1376,-4.2536,-4.5983,-4.7893,-4.9399,-5.3749,-5.6308,-5.768,-5.7772,-5.7777,-5.7447,-5.5829,-5.5302,-5.4961,-5.3242,-5.2773,-5.2148,-4.9648,-4.8984,-4.832,-4.5685,-4.5071,-4.457,-4.2846,-4.1861,-4.1264,-4.1175,-3.9809,-3.8358,-3.744,-3.6557,-3.5694,-3.4839,-3.3935,0.0,-3.2181,-3.2025,-3.136,-2.9675,-2.8675,-2.741,-2.5671,-2.3218,-2.0585,-1.7754,-1.5123,-1.2135,-0.8691,-0.7099,-0.6463,-0.6783,-1.4207,-2.1844,-2.9612,0.0,0.0,0.0,0.0,0.0,0.0,0.0,0.0,0.0,0.0,0.0,0.0,0.0,0.0,0.0,0.0,0.0,0.0,0.0,0.0,0.0,-3.0973,-3.0399,-2.9806,-2.8054,-2.6897,-2.707,-2.6351,-2.5649,-2.5156,-2.6416,-2.7316,-2.7489,-2.9326,-3.08,-3.1559,-3.3206,-3.4121,-3.4187,-3.5399,-3.606,-3.6043,-3.6642,-3.7094,-3.7343,-3.7417,-3.7553,-3.7792,-3.777,-3.7804,-3.7774,-3.7746,-3.8516,-3.9859,-4.004,-4.0963,-4.228,-4.2485,-4.2679,-4.3311,-4.6795,-4.9873,-5.2663,-5.5171,-5.6377,-5.6862,-5.757,-5.7382,-5.6788,-5.6364,-5.5781,-5.5195,-5.4713,-5.4136,-5.3203,-5.1211,-5.0702,-5.0076,-4.7499,-4.6406,-4.5625,-4.453,-4.3593,-4.3008,-4.3006,-4.2617,-4.1601,-3.9458,-3.8385,-3.7574,-3.6708,-3.582,-3.4957,-3.4069,-3.2865,-3.1433,-2.9763,-2.8789,-2.7031,-2.4021,-2.2538,-2.0475,-1.7495,-1.4307,-1.1684,-0.9821,-0.7372,-0.707,-0.9211,-1.5218,-2.1292,0.0,0.0,0.0,0.0,0.0,0.0,0.0,0.0,0.0,0.0,0.0,0.0,0.0,0.0,0.0,0.0,0.0,0.0,0.0,0.0,0.0,0.0,-3.1619,-3.1419,-3.1384,-2.9603,-2.8303,-2.8518,-2.7485,-2.6602,-2.6174,-2.7304,-2.8273,-2.8682,-3.0375,-3.1823,-3.2764,-3.4506,-3.5485,-3.5553,-3.69,-3.7617,-3.7588,-3.8451,-3.9108,-3.9497,-3.9909,-4.0273,-4.0643,-4.0643,-4.063,-4.0641,-4.0571,-4.1063,-4.1934,-4.19,-4.2434,-4.3324,0.0,0.0,0.0,0.0,-5.0441,-5.3378,-5.4791,-5.557,-5.6017,-5.6964,-5.6904,-5.651,-5.6562,-5.625,-5.5859,-5.5837,-5.5489,-5.4761,-5.3396,-5.3045,-5.238,-4.9799,-4.8814,-4.8106,-4.6861,-4.5919,-4.5291,-4.5305,-4.4708,0.0,-4.2225,-4.0684,-3.9351,-3.8514,-3.7342,-3.6233,-3.5377,-3.3735,-3.215,-3.0801,-2.9196,-2.744,-2.5416,-2.3033,0.0,0.0,0.0,-1.1462,-0.9004,-0.7422,0.0,0.0,0.0,-2.0745,-2.7177,-3.4145,0.0,0.0,-5.2144,-5.4518,0.0,0.0,0.0,0.0,0.0,0.0,0.0,0.0,0.0,0.0,0.0,0.0,0.0,0.0,0.0,0.0,-3.2378,-3.2466,-3.2896,-3.1299,-3.015,-3.0241,-2.8867,-2.7894,-2.7766,-2.8639,-2.9414,-2.9977,-3.179,-3.3297,-3.4173,-3.5881,0.0,0.0,0.0,-3.8595,-3.8714,-3.9567,-4.0422,-4.1271,-4.2049,-4.2852,-4.3591,-4.3615,-4.36,-4.3583,-4.3519,-4.35,-4.3552,-4.354,-4.362,-4.3802,-4.4486,-4.495,-4.5465,-4.7792,-5.0235,-5.2525,-5.3358,0.0,0.0,-5.609,-5.6419,-5.6532,-5.6717,-5.668,-5.6639,-5.6735,-5.6684,-5.6415,-5.5534,-5.5308,-5.4685,-5.2124,-5.1453,-5.0959,-4.9302,-4.823,-4.7624,-4.7654,-4.6431,-4.5372,-4.5291,-4.3124,-4.1084,-4.0156,-3.8702,-3.7357,-3.63,-3.469,-3.3321,-3.2352,-2.9991,0.0,-2.8065,-2.4185,-2.1154,-1.9713,-1.571,-1.1706,-0.7875,-0.8005,-0.9367,-1.1899,-1.5321,-2.0696,-2.8156,-3.4041,-4.0059,-4.6161,-5.0551,-5.3486,0.0,0.0,0.0,0.0,0.0,0.0,0.0,0.0,0.0,0.0,0.0,0.0,0.0,0.0,0.0,-3.274,-3.2937,-3.3267,-3.3833,-3.3127,-3.2388,-3.1972,-3.1075,-3.0235,-2.9582,-3.0831,-3.1214,-3.0083,-3.2138,-3.3878,-3.4868,-3.5905,-3.7156,-3.8577,-3.9634,-4.0488,-4.121,-4.2112,-4.2687,-4.2946,-4.318,0.0,-4.3519,-4.3592,-4.3553,-4.3519,-4.353,-4.3839,-4.4467,-4.4444,-4.5234,-4.6384,-4.5867,-4.6952,-4.8877,-4.9356,-5.0778,-5.2447,-5.2675,-5.3779,-5.5151,-5.5358,-5.5939,-5.6636,-5.742,-5.7147,0.0,-5.745,-5.7125,-5.6411,-5.5517,-5.5287,-5.4822,-5.2901,-5.1898,-5.1089,-4.9985,-4.9067,-4.8468,-4.849,-4.8202,-4.7781,-4.7138,-4.4877,-4.2656,-4.1092,-4.0574,-3.9546,-3.7321,-3.6147,-3.4892,-3.3324,-3.1437,-2.9437,-2.7332,-2.4369,-2.1791,-1.98,-1.6504,-1.3752,-1.1709,-1.2433,-1.3486,-1.4788,-1.8484,-2.2991,-2.8358,-3.4178,-3.9764,-4.5191,-5.0182,-5.3429,0.0,0.0,0.0,0.0,0.0,0.0,0.0,0.0,0.0,0.0,0.0,-3.2435,-3.1438,0.0,-3.272,-3.3137,-3.3656,-3.4316,-3.5135,-3.5095,-3.4495,-3.3167,-3.231,-3.1699,-3.1244,-3.2313,-3.2882,-3.2428,-3.3923,-3.5248,-3.616,-3.7471,-3.8632,-3.9562,-4.0969,-4.1915,-4.2402,-4.3366,-4.3877,-4.3944,-4.4444,-4.4722,-4.4753,-4.4773,-4.5007,-4.5414,-4.5382,-4.5813,-4.6552,-4.6565,-4.7301,-4.8399,-4.7959,-4.8618,-4.9755,-4.9782,-5.0649,-5.1839,-5.229,-5.333,-5.4509,-5.503,-5.5801,-5.6575,-5.7047,-5.6903,-5.663,-5.7086,-5.6922,-5.6484,-5.6011,-5.5894,-5.5577,-5.4245,-5.3624,-5.2925,-5.1546,-5.0927,-5.0354,-4.9487,-4.9283,-4.8919,-4.7702,-4.6452,-4.4867,-4.2722,-4.1675,-4.0505,-3.8824,-3.7063,-3.5654,-3.4788,-3.2352,-3.0264,-2.8957,-2.58,-2.2642,-1.9719,-1.7783,-1.599,-1.4267,-1.5006,-1.614,-1.7676,-2.1041,-2.5144,-2.9928,-3.5132,-4.015,-4.4884,-4.9186,-5.2239,0.0,0.0,0.0,0.0,0.0,0.0,0.0,-3.4896,-3.3816,-3.2731,-3.2513,-3.2285,-3.1489,-3.2073,-3.2967,-3.3776,-3.4627,-3.5447,-3.6185,-3.6832,-3.6485,-3.4463,-3.3734,-3.3317,-3.3053,-3.3847,-3.4546,-3.4973,-3.5958,-3.6885,-3.77,-3.9299,-4.0376,-4.0804,-4.2239,-4.3082,-4.3311,-4.4166,-4.4652,-4.4693,-4.5476,-4.5984,-4.6189,-4.6201,-4.6717,-4.752,-4.7456,-4.7818,-4.841,-4.8421,-4.8924,-4.9688,-4.9688,-4.9921,-5.0177,-5.0079,-5.048,-5.1192,-5.1877,-5.2764,-5.3682,-5.4429,-5.5397,-5.6276,-5.6452,-5.6484,-5.654,-5.6704,-5.6665,-5.6553,-5.6503,-5.6497,-5.6251,-5.5379,-5.5052,-5.4461,-5.2826,-5.2347,-5.1808,-5.0402,-5.014,-4.9672,-4.8224,-4.7864,-4.6908,-4.4354,-4.2617,-4.1244,-4.0272,-3.8164,-3.6639,-3.6286,-3.3573,-3.1426,-3.0598,-2.7248,-2.3788,-2.0451,-1.9767,-1.8717,-1.7008,-1.7641,-1.8889,-2.0747,-2.3733,-2.7485,-3.1993,-3.6494,-4.087,-4.511,-4.8487,-5.1283,-3.851,-3.9527,-4.0529,-4.0849,-4.05,-4.0202,0.0,-3.8758,-3.6334,-3.5243,-3.4823,-3.4254,-3.2926,-3.3621,-3.4481,-3.494,-3.6056,-3.6692,-3.6274,-3.7681,-3.8173,-3.6646,-3.6527,-3.6287,-3.5506,-3.6249,-3.6512,-3.5732,-3.7159,-3.8423,-3.9322,-4.0335,-4.159,-4.3088,-4.3491,-4.4064,-4.4853,-4.5112,-4.5303,-4.5396,-4.561,-4.6113,-4.6892,-4.7002,-4.7494,-4.8269,-4.8255,-4.8333,-4.841,-4.8396,-4.8885,-4.9629,-4.9674,-5.0588,-5.185,-5.1189,-5.0998,-5.1114,-5.1229,-5.1841,-5.265,-5.284,-5.4001,-5.5503,-5.6276,-5.6485,-5.6647,-5.7453,-5.7095,-5.6503,-5.6503,-5.6449,-5.6199,-5.5316,-5.4451,-5.3591,-5.2624,-5.1787,-5.1205,-5.1011,-5.102,-5.0763,-4.9876,-4.9139,-4.779,-4.5233,-4.4018,-4.2831,-4.1192,-4.0075,-3.8867,-3.7302,-3.6059,-3.3757,-2.9784,-2.7605,-2.551,-2.336,-2.3107,-2.2534,-2.1428,-2.2267,-2.3232,-2.4309,-2.7127,-3.0413,-3.4141,-3.778,-4.1765,-4.6037,-4.9353,-5.1823,-4.1177,-4.2159,-4.2814,-4.2886,-4.2814,-4.2668,-4.2412,-4.0883,-3.9032,-3.7517,-3.665,-3.5762,-3.4296,-3.4517,-3.5332,-3.6505,-3.7282,-3.8012,-3.8821,-3.9675,-4.0043,-3.9546,-3.9547,-3.8973,-3.7341,-3.8464,-3.9151,-3.8726,-3.9752,-4.0565,-4.0992,-4.1728,-4.257,-4.3415,-4.4424,-4.494,-4.4948,-4.61,-4.644,-4.5965,-4.6666,-4.7183,-4.7509,-4.7709,-4.8237,-4.908,-4.9583,-4.9814,-4.9814,-4.9814,-4.9992,-5.0301,-5.0356,-5.0781,-5.1432,-5.1175,-5.1386,-5.1709,-5.1244,-5.1692,-5.2572,-5.3127,-5.4129,-5.5286,-5.6173,-5.6455,-5.6511,-5.6892,-5.6706,-5.6433,-5.6425,-5.6416,-5.632,-5.595,-5.5547,-5.4944,-5.4064,-5.3532,-5.2986,-5.2059,-5.1874,-5.1512,-5.026,-4.9367,-4.8274,-4.6758,-4.5341,-4.4,-4.2786,-4.144,-3.9725,-3.7477,-3.6426,-3.473,-3.1825,-2.9901,-2.8076,-2.6205,-2.5562,-2.5094,-2.4688,-2.5523,-2.6661,-2.8124,-3.0327,-3.2956,-3.608,-3.9016,-4.2377,-4.6119,-4.8955,-5.1377,-4.3543,-4.4426,-4.4772,-4.4854,-4.5196,-4.5279,-4.4364,-4.3195,-4.1779,-4.0047,-3.8752,-3.7465,-3.59,-3.5971,-3.6682,-3.79,-3.8688,-3.9512,-4.0625,-4.1309,-4.1622,-4.1335,-4.1761,-4.1371,-3.9564,-4.0371,-4.1049,-4.1049,-4.1771,-4.2333,-4.2612,-4.3315,-4.3876,-4.4298,-4.5463,-4.582,-4.5364,-4.6746,-4.715,-4.6505,-4.7433,-4.7963,-4.8214,-4.8664,-4.9219,-4.9833,-5.045,-5.0758,-5.0758,-5.0758,-5.0758,-5.0758,-5.0738,-5.0928,-5.1211,-5.1091,-5.1421,-5.1915,-5.1554,-5.1889,-5.2647,-5.3479,-5.4358,-5.5208,-5.583,-5.6347,-5.668,-5.6456,-5.6738,-5.7011,-5.6796,-5.6903,-5.6998,-5.6741,-5.646,-5.6005,-5.5045,-5.4638,-5.4056,-5.2667,-5.2391,-5.1921,-5.0361,-4.9384,-4.8514,-4.773,-4.6317,-4.4945,-4.3849,-4.1951,-4.0031,-3.8103,-3.6718,-3.5353,-3.4007,-3.2251,-3.0567,-2.8967,-2.8269,-2.7835,-2.761,-2.8664,-2.9883,-3.1235,-3.3192,-3.5308,-3.7561,-4.0116,-4.2966,-4.6074,-4.8773,-5.1199,-4.5303,-4.5928,-4.6341,-4.7183,-4.7839,-4.8191,-4.7741,-4.6246,-4.4538,-4.2987,-4.1248,-3.9516,-3.7936,-3.8366,-3.8978,-3.8904,-4.0345,-4.1251,-4.0637,-4.2085,-4.2697,-4.1295,-4.2673,-4.3361,-4.2474,-4.195,-4.1688,-4.1688,-4.2491,-4.3332,-4.4192,-4.4976,-4.5798,-4.6582,-4.6712,-4.6742,-4.6742,-4.6977,-4.7089,-4.7089,-4.7528,-4.8174,-4.9006,-5.0061,-5.0547,-5.0548,-5.0566,-5.0622,-5.0622,-5.0622,-5.0622,-5.0584,-5.0606,-5.1164,-5.1876,-5.1155,-5.0999,-5.1256,-5.1992,-5.2369,-5.2636,-5.3379,-5.422,-5.5019,-5.5019,-5.6224,-5.7391,-5.662,-5.757,-5.8635,-5.778,-5.8156,-5.8503,-5.7688,-5.6761,-5.5846,-5.4907,-5.4149,-5.3383,-5.2482,-5.2391,-5.1988,-5.0377,-4.9376,-4.8515,-4.7715,-4.683,-4.5624,-4.3939,-4.1444,-3.9819,-3.9719,-3.7436,-3.5826,-3.565,-3.4012,-3.2596,-3.1646,-3.1545,-3.1172,-3.0332,-3.1999,-3.3012,-3.3101,-3.5646,-3.7485,-3.8475,-4.1016,-4.3553,-4.6073,-4.9359,-5.173,-4.5683,-4.6274,-4.6778,-4.8135,-4.8508,-4.8684,-4.9222,-4.7958,-4.6374,-4.5494,-4.361,-4.1796,-4.0673,-4.0167,-4.0021,-4.0372,-4.0909,-4.1597,-4.258,-4.2729,-4.3063,-4.3981,-4.409,-4.4307,-4.4915,-4.3897,-4.3144,-4.3144,-4.3918,-4.4506,-4.4867,-4.5616,-4.6211,-4.6504,-4.7681,-4.8049,-4.749,-4.8727,-4.9114,-4.8611,-4.8937,-4.9328,-4.9816,-5.0121,-5.0306,-5.0396,-5.0374,-5.0412,-5.0412,-5.0457,-5.0457,-5.0517,-5.1097,-5.1544,-5.1913,-5.23,-5.2471,-5.252,-5.2314,-5.2288,-5.2576,-5.397,-5.4643,-5.5034,-5.5617,-5.6587,-5.7402,-5.7144,-5.7935,-5.8764,-5.8492,-5.8609,-5.8595,-5.7727,-5.7226,-5.672,-5.578,-5.5376,-5.4774,-5.3436,-5.3223,-5.2785,-5.1186,-4.977,-4.8394,-4.6951,-4.6484,-4.5663,-4.3935,-4.2939,-4.1935,-4.0727,-3.9286,-3.8369,-3.8228,-3.6605,-3.5481,-3.5123,-3.4571,-3.4403,-3.4708,-3.5377,-3.6051,-3.6655,-3.8114,-3.9293,-4.0149,-4.2088,-4.4277,-4.6714,-4.9478,-5.1626,-4.6226,-4.6783,-4.7295,-4.9091,-4.943,-4.9517,-5.0436,-4.9408,-4.8084,-4.7391,-4.5715,-4.4051,-4.2811,-4.23,-4.1962,-4.1859,-4.1848,-4.2311,-4.3721,-4.3227,-4.3432,-4.5207,-4.4996,-4.5039,-4.5955,-4.5247,-4.4609,-4.4341,-4.5082,-4.5527,-4.549,-4.6237,-4.694,-4.7566,-4.8711,-4.9191,-4.9004,-5.0179,-5.0609,-5.0284,-5.0199,-5.0279,-5.0494,-5.0772,-5.0634,-5.0177,-5.0786,-5.0862,-5.0634,-5.1013,-5.1152,-5.1228,-5.182,-5.2058,-5.2181,-5.2823,-5.3102,-5.3186,-5.3086,-5.3111,-5.3383,-5.4768,-5.5249,-5.5475,-5.6343,-5.7195,-5.787,-5.7901,-5.8784,-5.9614,-5.9318,-5.9488,-5.9488,-5.8605,-5.8335,-5.7942,-5.6673,-5.6462,-5.5879,-5.3948,-5.3676,-5.3135,-5.1174,-4.9774,-4.8306,-4.6555,-4.6555,-4.6119,-4.4372,-4.388,-4.3111,-4.1636,-4.0649,-3.9947,-3.9503,-3.8143,-3.7257,-3.7214,-3.6741,-3.6845,-3.7781,-3.8239,-3.9045,-4.0249,-4.1172,-4.1995,-4.2797,-4.4117,-4.5838,-4.7896,-5.0123,-5.2144,-4.7038,-4.7474,-4.7843,-4.9943,-5.0441,-5.0686,-5.1396,-5.0678,-4.9513,-4.8601,-4.7421,-4.6074,-4.4313,-4.4561,-4.4612,-4.327,-4.3076,-4.3324,-4.4137,-4.3756,-4.3799,-4.5024,-4.5497,-4.5731,-4.5955,-4.6214,-4.6061,-4.5382,-4.5938,-4.6239,-4.6064,-4.6875,-4.8052,-4.9597,-4.9746,-5.019,-5.1115,-5.1232,-5.1521,-5.1865,-5.113,-5.0877,-5.1101,-5.1954,-5.1519,-5.0079,-5.167,-5.1897,-5.1216,-5.2134,-5.2503,-5.2503,-5.2703,-5.2755,-5.2755,-5.287,-5.3006,-5.3261,-5.4264,-5.4669,-5.4834,-5.5709,-5.5998,-5.6167,-5.7108,-5.8015,-5.8729,-5.8847,-6.0041,-6.1128,-6.0356,-6.073,-6.1074,-6.0189,-5.9874,-5.9302,-5.7564,-5.7255,-5.6553,-5.3994,-5.3586,-5.2883,-5.0421,-4.9423,-4.8365,-4.667,-4.7055,-4.6899,-4.5221,-4.4214,-4.3311,-4.2455,-4.1568,-4.0649,-3.9689,-3.8786,-3.8214,-3.8178,-3.8223,-3.8722,-3.9708,-4.0632,-4.1925,-4.3708,-4.4596,-4.5384,-4.6134,-4.6938,-4.8067,-4.9586,-5.1241,-5.3272,-4.7438,-4.7935,-4.8462,-4.9556,-4.9992,-5.0325,-5.0909,-5.0395,-4.9472,-4.8451,-4.7298,-4.6229,-4.5223,-4.4671,-4.4218,-4.3733,-4.3149,-4.3173,-4.4541,-4.3605,-4.3658,-4.598,-4.6489,-4.7089,-4.8247,-4.8912,-4.9069,-4.8419,-4.7574,-4.6985,-4.6763,-4.7572,-4.8451,-4.9281,-5.0065,-5.0802,-5.1605,-5.1376,-5.1342,-5.1556,-5.0871,-5.0928,-5.1694,-5.185,-5.1769,-5.1387,-5.1839,-5.1876,-5.172,-5.2069,-5.2205,-5.2273,-5.311,-5.3404,-5.3452,-5.4318,-5.46,-5.4638,-5.5054,-5.4912,-5.467,-5.5557,-5.5866,-5.6097,-5.6964,-5.7907,-5.8755,-5.9426,-6.0422,-6.1244,-6.1065,-6.1112,-6.0987,-6.014,-5.9841,-5.9263,-5.7486,-5.7197,-5.6482,-5.3994,-5.2652,-5.1561,-5.0293,-4.9922,-4.9419,-4.8313,-4.7786,-4.6877,-4.5162,-4.4702,-4.423,-4.3294,-4.2886,-4.255,-4.2251,-4.1962,-4.1786,-4.1771,-4.1846,-4.2344,-4.3341,-4.3654,-4.4337,-4.5508,-4.6353,-4.7142,-4.7939,-4.8631,-4.9814,-5.1376,-5.2948,-5.4296,-4.7374,-4.7858,-4.8297,-4.905,-4.9355,-4.9674,-5.0291,-4.9839,-4.9086,-4.8377,-4.7684,-4.7096,-4.666,-4.6337,-4.595,-4.5453,-4.4703,-4.4493,-4.5369,-4.4458,-4.4472,-4.6518,-4.7201,-4.7958,-4.895,-4.9877,-5.0258,-5.0025,-4.9263,-4.8563,-4.7999,-4.8733,-4.935,-4.9658,-5.0587,-5.1517,-5.2407,-5.1805,-5.1821,-5.2345,-5.1675,-5.1633,-5.2116,-5.2559,-5.2335,-5.1663,-5.241,-5.2557,-5.2292,-5.2799,-5.3015,-5.3118,-5.3792,-5.4042,-5.4087,-5.4722,-5.5,-5.5028,-5.5195,-5.5326,-5.5462,-5.5686,-5.5766,-5.6,-5.6927,-5.7871,-5.8776,-5.9697,-6.0599,-6.1306,-6.1322,-6.1236,-6.1053,-6.0517,-6.0307,-5.9763,-5.7986,-5.7718,-5.6964,-5.4125,-5.2357,-5.1062,-5.0238,-5.0416,-5.0221,-4.895,-4.8659,-4.8093,-4.6699,-4.5849,-4.5191,-4.4647,-4.4471,-4.4369,-4.4298,-4.4253,-4.4083,-4.3751,-4.38,-4.4253,-4.5289,-4.5358,-4.6183,-4.789,-4.8689,-4.9478,-5.0281,-5.0984,-5.215,-5.3706,-5.4545,-5.5892,-4.7237,-4.7572,-4.7999,-4.8602,-4.8932,-4.9256,-4.9599,-4.9294,-4.8731,-4.8184,-4.8105,-4.8116,-4.7974,-4.8242,-4.817,-4.7299,-4.6525,-4.6063,-4.6168,-4.5585,-4.5587,-4.6755,-4.7818,-4.8641,-4.9141,-5.0083,-5.08,-5.1078,-5.1014,-5.0533,-4.9455,-5.0034,-5.0387,-5.0446,-5.1137,-5.204,-5.3146,-5.2192,-5.2275,-5.344,-5.2824,-5.2529,-5.2564,-5.346,-5.3014,-5.1677,-5.3162,-5.3423,-5.2902,-5.372,-5.4127,-5.4233,-5.4439,-5.4505,-5.4505,-5.4673,-5.4799,-5.492,-5.4971,-5.5673,-5.6499,-5.5999,-5.5912,-5.6225,-5.7236,-5.8103,-5.897,-5.9908,-6.0716,-6.1297,-6.1291,-6.1225,-6.1137,-6.1002,-6.0864,-6.0261,-5.8638,-5.8065,-5.7035,-5.4232,-5.2397,-5.1086,-5.0368,-5.0894,-5.0855,-4.9255,-4.9551,-4.9681,-4.8865,-4.7328,-4.6335,-4.6341,-4.6216,-4.6134,-4.6059,-4.6074,-4.5742,-4.5065,-4.5092,-4.5587,-4.6558,-4.667,-4.7904,-5.039,-5.1132,-5.1904,-5.2775,-5.3573,-5.4668,-5.602,-5.6267,-5.7866,-4.7781,-4.8142,-4.8593,-4.8998,-4.9604,-4.9885,-4.9289,-4.923,-4.8958,-4.7558,-4.7612,-4.7758,-4.7432,-4.7202,-4.7073,-4.7021,-4.6055,-4.5466,-4.595,-4.5585,-4.5811,-4.7307,-4.8496,-4.9578,-5.0597,-5.1611,-5.2518,-5.3485,-5.2944,-5.1919,-5.0456,-5.0368,-5.0598,-5.1112,-5.1383,-5.1952,-5.285,-5.139,-5.1517,-5.3235,-5.2508,-5.2552,-5.3138,-5.3447,-5.3413,-5.3114,-5.341,-5.3563,-5.353,-5.3833,-5.3981,-5.4163,-5.4405,-5.4505,-5.4538,-5.4705,-5.4799,-5.486,-5.5028,-5.5684,-5.6453,-5.6587,-5.7128,-5.7928,-5.8971,-5.9437,-5.9804,-6.0747,-6.1074,-6.1247,-6.1208,-6.1099,-6.0941,-6.0839,-6.0272,-5.9457,-5.8457,-5.6194,-5.4235,-5.378,-5.2407,-5.1265,-5.1125,-5.1225,-5.1186,-5.0836,-5.0228,-4.9776,-4.955,-4.872,-4.8149,-4.8089,-4.7998,-4.7932,-4.7932,-4.7932,-4.7895,-4.7788,-4.7872,-4.8322,-4.9269,-4.9401,-5.0298,-5.2226,-5.2326,-5.3136,-5.4615,-5.5369,-5.6209,-5.7112,-5.907,-6.0294,-4.8042,-4.8594,-4.916,-4.9209,-4.9451,-4.9623,-4.9224,-4.9216,-4.8963,-4.8034,-4.8261,-4.8596,-4.8277,-4.8048,-4.787,-4.7701,-4.6946,-4.6372,-4.6301,-4.6129,-4.6259,-4.705,-4.8425,-4.965,-5.0416,-5.171,-5.2845,-5.3609,-5.3323,-5.292,-5.2505,-5.1536,-5.1377,-5.2134,-5.177,-5.196,-5.2893,-5.2126,-5.2169,-5.3066,-5.2826,-5.2826,-5.3151,-5.3277,-5.3359,-5.34,-5.344,-5.3598,-5.3754,-5.3833,-5.3981,-5.4198,-5.4405,-5.4538,-5.4603,-5.4761,-5.489,-5.4912,-5.5028,-5.5978,-5.7221,-5.7391,-5.7757,-5.825,-5.8873,-5.9399,-5.99,-6.0324,-6.0807,-6.1137,-6.1079,-6.1021,-6.0779,-6.025,-5.9133,-5.8,-5.7255,-5.5216,-5.3455,-5.3145,-5.2075,-5.1249,-5.1269,-5.122,-5.1152,-5.1109,-5.07,-5.0403,-5.0317,-5.0012,-4.9794,-4.9766,-4.934,-4.9431,-5.0336,-5.0067,-4.9698,-4.9333,-4.9331,-4.9761,-5.0699,-5.0767,-5.1616,-5.3353,-5.3786,-5.4615,-5.5822,-5.6592,-5.7573,-5.8731,-6.0303,-6.1484,-4.8285,-4.8932,-4.9477,-4.9769,-4.9564,-4.9342,-4.9419,-4.9256,-4.899,-4.8702,-4.9026,-4.9323,-4.926,-4.9017,-4.8743,-4.8483,-4.8032,-4.7512,-4.6896,-4.6838,-4.7003,-4.7275,-4.8568,-4.959,-5.0137,-5.1647,-5.2753,-5.3188,-5.3419,-5.3671,-5.4019,-5.2767,-5.2364,-5.3066,-5.2175,-5.2139,-5.3066,-5.2877,-5.2834,-5.298,-5.3103,-5.3146,-5.306,-5.323,-5.3277,-5.3363,-5.3521,-5.3678,-5.387,-5.3981,-5.4125,-5.4334,-5.45,-5.4661,-5.4754,-5.4912,-5.5113,-5.5351,-5.5351,-5.6595,-5.8233,-5.8284,-5.8496,-5.8719,-5.8911,-5.9495,-6.0074,-6.0074,-6.0558,-6.108,-6.0982,-6.0916,-6.0596,-5.9473,-5.8072,-5.677,-5.5956,-5.4622,-5.3339,-5.2589,-5.1758,-5.1136,-5.1136,-5.1088,-5.1023,-5.0928,-5.0937,-5.0929,-5.0829,-5.0825,-5.0935,-5.1145,-5.0472,-5.053,-5.1942,-5.1497,-5.0957,-5.033,-5.0439,-5.0888,-5.1648,-5.1854,-5.2689,-5.4229,-5.5117,-5.597,-5.677,-5.7765,-5.889,-6.0048,-6.1252,-6.2432,-4.8732,-4.9146,-4.9533,-5.134,-5.0753,-4.9915,-5.0073,-4.9764,-4.9363,-4.899,-4.8907,-4.8961,-4.9389,-4.8754,-4.8343,-4.8812,-4.8537,-4.8032,-4.7597,-4.7687,-4.8164,-4.8875,-4.9388,-5.0027,-5.0986,-5.2118,-5.2937,-5.3277,-5.4183,-5.4371,-5.3424,-5.3407,-5.337,-5.3277,-5.2589,-5.2589,-5.3277,-5.2375,-5.2249,-5.298,-5.298,-5.3103,-5.3188,-5.3359,-5.3521,-5.3602,-5.3795,-5.3944,-5.4091,-5.4371,-5.4533,-5.4692,-5.4882,-5.5019,-5.5157,-5.5157,-5.5706,-5.6446,-5.6524,-5.7711,-5.9166,-5.9311,-5.9881,-6.0564,-6.073,-6.0848,-6.0963,-6.0963,-6.1002,-6.0997,-6.0933,-6.0804,-6.0311,-5.8681,-5.7627,-5.6592,-5.515,-5.4138,-5.3259,-5.2453,-5.1605,-5.0984,-5.0956,-5.0913,-5.0851,-5.0678,-5.0681,-5.0682,-5.0547,-5.0664,-5.1046,-5.191,-5.1401,-5.105,-5.119,-5.1208,-5.12,-5.1186,-5.1934,-5.2409,-5.2506,-5.3247,-5.4111,-5.5059,-5.595,-5.6832,-5.7688,-5.93,-6.0098,-6.0233,-6.2574,-6.3657,-4.9001,-4.985,-5.0618,-5.1549,-5.1014,-5.0371,-5.0371,-5.0184,-4.9873,-4.9544,-4.9668,-4.9743,-4.946,-4.9068,-4.8771,-4.8701,-4.837,-4.8015,-4.7452,-4.7985,-4.8381,-4.824,-4.8936,-4.9661,-5.0262,-5.1338,-5.2425,-5.3363,-5.4012,-5.4166,-5.3754,-5.3717,-5.368,-5.368,-5.3345,-5.3306,-5.3484,-5.3071,-5.2987,-5.3193,-5.3193,-5.3193,-5.3277,-5.34,-5.3561,-5.3719,-5.3981,-5.4161,-5.4371,-5.4571,-5.4761,-5.4874,-5.5028,-5.514,-5.5183,-5.5275,-5.5556,-5.5976,-5.6499,-5.7569,-5.8741,-5.9342,-6.0184,-6.0962,-6.1022,-6.1118,-6.1155,-6.1118,-6.1041,-6.0976,-6.0888,-6.0012,-5.9027,-5.8462,-5.6985,-5.5379,-5.4336,-5.3436,-5.2598,-5.1735,-5.1213,-5.0867,-5.0851,-5.0735,-5.0645,-5.0527,-5.0504,-5.0462,-5.044,-5.0545,-5.0741,-5.1145,-5.1099,-5.1463,-5.2525,-5.1763,-5.1715,-5.2753,-5.2692,-5.3042,-5.4048,-5.4461,-5.5333,-5.6691,-5.7088,-5.7984,-5.9373,-6.0022,-6.0594,-6.1071,-6.3067,-6.3891,-4.8718,-4.9881,-5.0955,-5.1732,-5.134,-5.0829,-5.1183,-5.1118,-5.0817,-5.0574,-5.07,-5.0758,-5.0091,-4.9584,-4.9277,0.0,0.0,-4.8286,-4.7579,-4.8118,-4.8393,-4.7752,-4.84,-4.9115,-4.9647,-5.0859,-5.1987,-5.2994,-5.3606,-5.3982,-5.4019,-5.3982,-5.3944,-5.4018,-5.4205,-5.4242,-5.409,-5.4051,-5.3933,-5.3691,-5.347,-5.3359,-5.34,-5.3561,-5.3717,-5.3907,-5.4233,-5.4439,-5.4603,-5.4829,-5.4941,-5.5085,-5.5102,-5.5183,-5.5262,-5.5339,-5.5568,-5.5886,-5.6499,-5.7364,-5.8289,-5.8979,-5.9686,-6.0307,-6.0344,-6.0786,-6.1208,-6.1173,-6.1254,-6.1285,-6.0904,-5.9942,-5.8984,-5.8838,-5.7151,-5.5404,-5.4608,-5.3754,-5.277,-5.1605,-5.1254,-5.1061,-5.0738,-5.0566,-5.0435,-5.0329,-5.0283,-5.0259,-5.0298,-5.0418,-5.0525,-5.0586,-5.1001,-5.178,-5.3092,-5.2236,-5.2261,-5.3662,-5.3497,-5.3847,-5.5034,-5.5628,-5.6464,-5.7663,-5.8258,-5.9162,-6.0409,-6.066,-6.1091,-6.1666,-6.3281,-6.4247,-4.773,-4.8833,-5.0033,-5.2119,-5.1827,-5.1336,-5.2671,-5.2594,-5.2252,-5.2178,-5.1922,-5.1678,-5.1486,-5.046,-4.9846,-5.0475,-5.0069,-4.9332,-4.8236,-4.8312,-4.8342,-4.7851,-4.7938,-4.8461,-4.9575,-5.0955,-5.1894,-5.2103,-5.3158,-5.387,-5.4091,-5.42,-5.4308,-5.4308,-5.5057,-5.5397,-5.5174,-5.506,-5.4904,-5.4663,-5.3887,-5.3558,-5.3714,-5.3832,-5.3944,-5.4127,-5.4543,-5.4736,-5.4799,-5.5028,-5.5168,-5.5183,-5.5262,-5.5314,-5.5364,-5.5314,-5.5913,-5.669,-5.669,-5.7325,-5.8135,-5.828,-5.8451,-5.8621,-5.8618,-5.9869,-6.1297,-6.1297,-6.1737,-6.1979,-6.1125,-6.0877,-6.0691,-5.9955,-5.8614,-5.7224,-5.6343,-5.5475,-5.4294,-5.2437,-5.2046,-5.1665,-5.0657,-5.0412,-5.0212,-4.9933,-5.0063,-5.0139,-5.0012,-5.0283,-5.05,-5.05,-5.1336,-5.1969,-5.2191,-5.2316,-5.2758,-5.365,-5.449,-5.498,-5.498,-5.6636,-5.7603,-5.7712,-5.9395,-6.0308,-6.0397,-6.1288,-6.1704,-6.1726,-6.3349,-6.4932,-4.7702,-4.8626,-4.9404,-5.0573,-5.08,-5.0901,-5.1514,-5.1946,-5.2412,-5.2699,-5.2595,-5.2327,-5.1999,-5.1023,-5.0322,-5.0265,-4.9862,-4.9365,-4.8855,-4.9009,-4.8907,-4.8377,-4.8671,-4.9079,-4.9647,-5.0733,-5.1734,-5.2498,-5.313,-5.3521,-5.3678,-5.3907,-5.4127,-5.4375,-5.4637,-5.4943,-5.5397,-5.5287,-5.5435,-5.5837,-5.4941,-5.457,-5.4572,-5.413,-5.4018,-5.4127,-5.4439,-5.4673,-5.4799,-5.4971,-5.5085,-5.513,-5.5168,-5.5168,-5.514,-5.5113,-5.5265,-5.5597,-5.6196,-5.6622,-5.7098,-5.7799,-5.8135,-5.8291,-5.8414,-5.9374,-6.0638,-6.1806,-6.2627,-6.3068,-6.2838,-6.2317,-6.175,-6.0926,-5.9568,-5.8059,-5.6601,-5.5566,-5.4582,-5.3313,-5.2952,-5.249,-5.148,-5.1185,-5.0799,-5.01,-4.9986,-4.9986,-4.9986,-5.0647,-5.1152,-5.12,-5.2005,-5.27,-5.2949,-5.3056,-5.3723,-5.5188,-5.5002,-5.5419,-5.6582,-5.7222,-5.8092,-5.9335,-5.9942,-6.0551,-6.1225,-6.1557,-6.2295,-6.341,-6.3895,-6.4994,0.0,-4.8474,-4.9248,-4.9944,-5.0634,-5.126,-5.1667,-5.2354,-5.2867,-5.2925,-5.2994,-5.2941,-5.2323,-5.1589,-5.1027,-5.0612,-5.0147,-4.9718,-4.9145,-4.9249,-4.9046,-4.8153,-4.8749,-4.9162,-4.9019,-5.0484,-5.1618,-5.2064,-5.2711,-5.3193,-5.3322,-5.3602,-5.3907,-5.4163,-5.4533,-5.5095,-5.5809,-5.5735,-5.6069,-5.6772,-5.5914,-5.5503,-5.5466,-5.4801,-5.454,-5.4611,-5.4589,-5.4705,0.0,-5.4941,-5.5028,-5.5085,-5.5028,-5.5,-5.4941,-5.4882,-5.4882,-5.4988,-5.5481,-5.5759,-5.6016,-5.6649,-5.7008,-5.7313,-5.8119,-5.9108,-6.0278,-6.1968,-6.3013,-6.3613,-6.3613,-6.3296,-6.2773,-6.1977,-6.0589,-5.9036,-5.7581,-5.6537,-5.5486,-5.4172,-5.3706,-5.3267,-5.2273,-5.1904,-5.1467,-5.0486,-5.0317,-5.0289,-5.0317,-5.0854,-5.1391,-5.1787,-5.292,-5.3632,-5.3519,-5.3666,-5.4342,-5.5845,-5.5436,-5.5664,-5.6803,-5.7544,-5.8435,-5.9541,-6.0316,-6.0984,-6.1588,-6.1665,-6.2576,-6.4213,-6.4177,-6.5056,0.0,-4.8348,-4.9508,-5.0062,-5.1031,-5.2033,-5.2754,0.0,0.0,0.0,-5.3337,-5.3313,-5.2494,-5.2024,-5.1665,-5.1288,-5.0861,-5.024,-4.9227,-4.9264,-4.8888,-4.7643,-4.8417,-4.8826,-4.8041,-5.0196,-5.149,-5.0976,-5.2019,-5.2777,-5.3036,-5.3318,-5.3561,-5.3756,-5.469,-5.5548,-5.6403,-5.6364,-5.6772,-5.7583,-5.6766,-5.6395,-5.6357,-5.566,-5.5434,-5.5544,-5.5028,-5.4881,-5.5072,-5.5084,-5.5113,-5.5047,-5.495,-5.4882,-5.489,-5.4736,-5.4705,-5.4767,-5.4767,-5.4799,-5.4882,-5.5057,-5.5326,-5.5999,-5.7726,-5.9011,-6.021,-6.1911,-6.3051,-6.3806,-6.3863,-6.3929,-6.3818,-6.3064,-6.1656,-6.0185,-5.9199,-5.8181,-5.6947,-5.5209,-5.46,-5.4039,-5.3048,-5.2672,-5.2134,-5.1156,-5.0983,-5.0953,-5.0892,-5.1051,-5.1479,-5.2349,-5.401,-5.4772,-5.4058,-5.4254,-5.4831,-5.5728,-5.5788,-5.5827,-5.5943,-5.7637,-5.8629,-5.8784,-6.0579,-6.1528,-6.1612,-6.1647,-6.2538,-6.4125,-6.4189,-6.5088,-4.7446,0.0,-4.8952,-4.9391,-5.0083,-5.1019,0.0,0.0,0.0,0.0,0.0,-5.3356,-5.3188,-5.232,-5.153,-5.1383,-5.0924,-5.0472,-5.009,-4.9905,-4.9433,-4.8635,-4.8785,-4.9118,-4.9528,-4.9763,-5.0303,-5.145,-5.1477,-5.1883,-5.2688,-5.298,-5.3193,-5.3355,-5.3625,-5.4563,-5.6249,-5.6206,-5.6908,-5.8401,-5.7621,-5.7252,-5.7258,-5.6033,-5.588,-5.6514,-5.5894,-5.6058,-5.6683,-5.6133,-5.5936,-5.586,-5.5148,-5.486,-5.4736,-5.4705,-5.4576,-5.4446,-5.4446,-5.4443,-5.4538,-5.4852,-5.5503,-5.6355,-5.7493,-5.911,-6.0938,-6.272,-6.4325,-6.5546,-6.5717,-6.5312,-6.4701,-6.3974,-6.2947,-6.1678,-6.0112,-5.9475,-5.8856,-5.7597,-5.6683,-5.5734,-5.4628,-5.3803,-5.2937,-5.1895,-5.172,-5.1726,-5.163,-5.229,-5.3101,-5.3898,-5.5038,-5.5724,-5.5557,-5.587,-5.5886,-5.5499,-5.5577,-5.5951,-5.6626,-5.7772,-5.8722,-5.9437,-6.0692,-6.144,-6.1612,-6.1615,-6.2197,-6.3316,-6.3904,-6.4782,-4.7463,-4.8573,-4.9652,-4.9996,-5.0851,-5.1652,0.0,0.0,0.0,0.0,0.0,-5.2746,-5.2704,-5.2345,-5.2066,-5.1826,-5.177,-5.1554,-5.1094,-5.0488,-4.9902,-4.9427,-4.9089,-4.921,-5.0024,-4.9437,-4.9657,-5.1066,-5.1036,-5.1329,-5.1955,-5.2498,-5.2893,-5.298,-5.3066,-5.3823,-5.5373,-5.5817,-5.6673,-5.8058,-5.8025,-5.8111,-5.8196,-5.7155,-5.6964,-5.7446,-5.638,-5.6215,-5.6587,-5.582,-5.551,-5.5441,-5.4919,-5.4667,-5.4608,-5.4543,-5.4409,-5.4308,-5.4164,-5.4424,-5.494,-5.5621,-5.6229,-5.6846,-5.784,-5.9178,-6.0827,-6.2757,-6.3746,-6.4496,-6.5432,-6.4804,-6.3852,-6.3507,-6.2691,-6.1638,-6.0157,-5.9708,-5.9293,-5.8265,-5.7175,-5.6245,-5.5616,-5.464,-5.3623,-5.2666,-5.2423,-5.2323,-5.236,-5.3072,-5.3781,-5.4371,-5.5969,-5.6738,-5.6109,-5.7063,-5.6965,-5.5403,-5.5796,-5.629,-5.6764,-5.8097,-5.9293,-6.0267,-6.0893,-6.1305,-6.15,-6.1539,-6.2056,-6.2964,-6.3818,-6.4687,-4.7232,-4.8779,-5.053,-5.0878,-5.1778,-5.2678,-5.2859,0.0,0.0,0.0,0.0,0.0,-5.1893,-5.2312,-5.2604,-5.2401,-5.2677,-5.265,-5.1948,-5.1087,-5.0338,-5.0028,-4.9387,-4.9224,-4.9897,-4.9118,-4.9124,-5.0245,-5.0498,-5.0731,-5.1104,-5.1964,-5.2453,-5.2623,-5.2834,-5.3449,-5.4412,-5.5349,-5.6399,-5.745,-5.828,-5.8781,-5.8947,-5.8353,-5.82,-5.8345,-5.6903,-5.6371,-5.6408,-5.5578,-5.5163,-5.505,-5.4834,-5.4618,-5.451,-5.449,-5.446,-5.4388,-5.428,-5.4764,-5.5585,-5.6589,-5.7068,-5.7359,-5.8245,-5.9203,-6.0349,-6.2213,-6.249,-6.2583,-6.4144,-6.3497,-6.2465,-6.2499,-6.1823,-6.0884,-6.0016,-5.965,-5.9281,-5.8398,-5.7253,-5.6443,-5.6412,-5.54,-5.43,-5.3515,-5.3084,-5.2902,-5.2975,-5.3535,-5.4093,-5.4574,-5.6659,-5.7582,-5.6463,-5.7894,-5.7929,-5.569,-5.6358,-5.6907,-5.6943,-5.8502,-5.9835,-6.0923,-6.1022,-6.1164,-6.1356,-6.1421,-6.1879,-6.2687,-6.3722,-6.4587,-4.7076,-4.8306,-4.9727,-5.0649,-5.0932,-5.1246,-5.2175,0.0,0.0,0.0,0.0,0.0,0.0,-5.1951,-5.1899,-5.2626,-5.2313,-5.2053,-5.2142,-5.1652,-5.1079,-5.0317,-4.9635,-4.9208,-4.9252,-4.8164,-4.8054,-4.9531,-4.9352,-4.9546,-5.033,-5.1129,-5.1653,-5.1784,-5.3008,-5.3772,-5.4062,-5.5038,-5.6345,-5.8039,-5.8369,-5.8702,-5.8947,-5.8353,-5.8538,-5.9248,-5.8412,-5.8408,-5.8974,-5.8182,-5.7389,-5.6673,-5.5961,-5.5178,-5.4518,-5.5163,-5.5173,-5.4984,-5.5572,-5.5909,-5.6139,-5.6405,-5.7042,-5.7754,-5.8051,-5.8902,-5.9971,-6.1088,-6.2116,-6.2989,-6.3397,-6.286,-6.2193,-6.2256,-6.1499,-6.0734,-6.0488,-6.0265,-6.0018,-5.9726,-5.8818,-5.806,-5.782,-5.6472,-5.5242,-5.4801,-5.4092,-5.357,-5.3415,-5.3643,-5.4391,-5.592,-5.6739,-5.7431,-5.8051,-5.8553,-5.8334,-5.7194,-5.7377,-5.7881,-5.8578,-5.8956,-5.9613,-6.0618,-6.0795,-6.0923,-6.1057,-6.1181,-6.1366,-6.1666,-6.3351,-6.4216,-4.6269,-4.759,-4.9031,-4.9663,-5.0609,-5.1524,-5.22,0.0,0.0,0.0,0.0,0.0,0.0,-5.1931,-5.2369,-5.3748,-5.3672,-5.3309,-5.3104,-5.2814,-5.2229,-5.1392,-5.0307,-4.9826,-5.0174,-4.8506,-4.7867,-4.9153,-4.9075,-4.9349,-5.0277,-5.0991,-5.1827,-5.2753,-5.3416,-5.4215,-5.5192,-5.5696,-5.6511,-5.7678,-5.8221,-5.8661,-5.8984,-5.8802,-5.8953,-5.929,-5.8501,-5.8314,-5.854,-5.7824,-5.7223,-5.6812,-5.6472,-5.6026,-5.562,-5.5847,-5.573,-5.5599,-5.6372,-5.6884,-5.7297,-5.7464,-5.8145,-5.8862,-5.8611,-5.899,-5.9583,-6.0066,-6.0874,-6.1715,-6.2245,-6.1851,-6.1286,-6.1247,-6.0827,-6.0456,-6.0349,-6.015,-5.9937,-5.9815,-5.8971,-5.8196,-5.7978,-5.6818,-5.5696,-5.4939,-5.4408,-5.4105,-5.4064,-5.4105,-5.467,-5.6137,-5.6968,-5.7674,-5.8261,-5.8916,-5.897,-5.819,-5.8152,-5.8562,-5.9498,-5.9536,-5.9807,-6.0376,-6.0572,-6.0681,-6.0822,-6.0983,-6.1346,-6.2051,-6.3326,-6.4254,-4.5262,-4.6562,-4.8059,-4.8372,0.0,-5.1484,-5.1965,-5.177,0.0,0.0,0.0,0.0,-5.1395,-5.2099,-5.3117,-5.4609,-5.4781,-5.4559,-5.4046,-5.3706,-5.3135,-5.2112,-5.0832,-5.0234,-5.0766,-4.8858,-4.7959,-4.8743,-4.9003,-4.9409,-5.0107,-5.0969,-5.2126,-5.3545,-5.3842,-5.4665,-5.6188,-5.6466,-5.6859,-5.7383,-5.8104,-5.8577,-5.8865,-5.8982,-5.9061,-5.9063,-5.8427,-5.8089,-5.8051,-5.7454,-5.708,-5.6817,-5.6893,-5.6855,-5.6701,-5.6425,-5.652,-5.6756,-5.7295,-5.8068,-5.8768,-5.891,-5.9449,-5.9993,-5.9339,-5.9321,-5.9478,-5.9365,-5.9748,-6.0281,-6.0989,-6.0771,-6.036,-6.0237,-6.0179,-6.0091,-5.9975,-5.9777,-5.9575,-5.9472,-5.8802,-5.8165,-5.797,-5.7104,-5.6121,-5.5202,-5.481,-5.4613,-5.462,-5.4656,-5.508,-5.6191,-5.7144,-5.7865,-5.8386,-5.9166,-5.9379,-5.8868,-5.8835,-5.9138,-5.988,-5.9918,-6.0013,-6.0159,-6.037,-6.0559,-6.0633,-6.0773,-6.1291,-6.2159,-6.3253,-6.4245,-4.4148,-4.5257,-4.6284,-4.6905,-4.82,0.0,-5.094,-5.0704,0.0,-5.113,0.0,-5.0627,-5.1285,-5.2654,-5.3808,-5.4268,-5.4691,-5.4902,-5.4597,-5.3966,-5.3106,-5.1777,-5.0866,-5.0143,-4.9574,-4.8579,-4.8068,-4.8221,-4.8952,-4.9391,-4.9464,-5.0806,-5.2003,-5.2834,-5.4096,-5.5245,-5.6188,-5.6915,-5.7558,-5.7969,-5.8097,-5.8312,-5.8535,-5.8572,-5.8698,-5.8899,-5.8862,-5.8868,-5.891,-5.8835,-5.831,-5.7521,-5.7521,-5.7401,-5.7233,-5.689,-5.7757,-5.9127,-5.875,-5.9347,-6.0236,-6.0283,-6.0461,-6.0626,-6.003,-5.9897,-5.9912,-5.9363,-5.929,-5.9436,-5.9753,-5.9782,-5.9711,-5.9571,-5.9609,-5.9613,-5.947,-5.9215,-5.9063,-5.9024,-5.8828,-5.8545,-5.8332,-5.7587,-5.686,-5.6327,-5.5706,-5.5231,-5.4963,-5.5186,-5.566,-5.6565,-5.7026,-5.7736,-5.8952,-5.9252,-5.9399,-5.9289,-5.9605,-5.9744,-5.965,-5.9847,-6.0013,-6.0007,-6.0256,-6.0425,-6.0506,-6.071,-6.0872,-6.1057,-6.2878,-6.3867,-4.2573,-4.4067,-4.5534,-4.5966,-4.7056,0.0,0.0,-4.9685,-4.9922,-5.0551,-5.036,-5.0315,-5.1192,-5.223,-5.3324,-5.457,-5.467,-5.4661,-5.4724,-5.3806,-5.2753,-5.1834,-5.0639,-4.9805,-4.9551,-4.8705,-4.841,-4.9038,-4.9368,-4.9915,-5.0858,-5.1317,-5.2098,-5.3271,-5.4207,-5.5135,-5.5944,-5.674,-5.7289,-5.7631,-5.7857,-5.8042,-5.8223,-5.8268,-5.8356,-5.848,-5.8566,-5.8609,-5.8614,-5.8661,-5.8471,-5.8085,-5.8085,-5.7999,-5.7825,-5.7647,-5.7923,-5.8344,-5.8154,-5.8653,-5.9335,-5.8919,-5.9245,-5.9688,-5.9013,-5.8974,-5.9069,-5.8814,-5.8784,-5.8905,-5.9253,-5.9434,-5.947,-5.9215,-5.9215,-5.9178,-5.8949,-5.8788,-5.8661,-5.8455,-5.8369,-5.8423,-5.8667,-5.7987,-5.7288,-5.6952,-5.6164,-5.5607,-5.5509,-5.5124,-5.5486,-5.6999,-5.74,-5.7913,-5.8665,-5.8908,-5.9063,-5.9061,-5.9365,-5.9545,-5.951,-5.9685,-5.9786,-5.989,-6.0106,-6.0256,-6.0304,-6.0506,-6.0929,-6.1535,-6.2343,-6.307,-4.128,-4.2959,-4.4664,0.0,0.0,0.0,-4.747,-4.847,-4.9381,-4.9759,-4.9738,-4.9907,-5.0667,-5.1809,-5.2998,-5.4207,-5.4466,-5.4422,-5.4194,-5.3408,-5.2528,-5.1637,-5.0398,-4.963,-4.9708,-4.882,-4.8634,-4.9556,-4.9771,-5.0424,-5.1736,-5.1901,-5.2563,-5.4012,-5.4399,-5.5094,-5.6104,-5.6629,-5.6969,-5.7138,-5.7289,-5.7534,-5.7904,-5.795,-5.8042,-5.8088,-5.8179,-5.8223,-5.8305,-5.8312,-5.8312,-5.8179,-5.8179,-5.8133,-5.7997,-5.7904,-5.7956,-5.8032,-5.7886,-5.8396,-5.9028,-5.8628,-5.8956,-5.9512,-5.9053,-5.9042,-5.9058,-5.8843,-5.8725,-5.8652,-5.8619,-5.8831,-5.9061,-5.9041,-5.9074,-5.9069,-5.9116,-5.9013,-5.8915,-5.8647,-5.8553,-5.8592,-5.8978,-5.8464,-5.7949,-5.769,-5.6901,-5.6345,-5.6345,-5.5662,-5.5692,-5.708,-5.7498,-5.7877,-5.8186,-5.8671,-5.899,-5.9107,-5.9539,-5.9701,-5.9402,-5.951,-5.9616,-5.9791,-6.0247,-6.0517,-6.0578,-6.1048,-6.1605,-6.2247,-6.2362,-6.2814,-4.0528,-4.1955,-4.3434,0.0,0.0,0.0,-4.5211,-4.6946,-4.8528,-4.8647,-4.9114,-4.952,-4.9679,-5.1489,-5.3017,-5.3103,-5.4048,-5.4302,-5.298,-5.2893,-5.2438,-5.1032,-5.011,-4.9671,-4.9861,-4.8859,-4.8595,-4.9636,-5.0126,-5.0806,-5.1773,-5.2324,-5.3317,-5.4953,-5.4737,-5.5296,-5.6776,-5.6653,-5.66,-5.66,-5.6437,-5.6812,-5.7583,-5.7583,-5.7667,-5.781,-5.781,-5.7904,-5.7997,-5.7997,-5.7904,-5.781,-5.781,-5.7715,-5.7583,-5.7583,-5.7996,-5.8537,-5.8435,-5.8994,-5.9801,-5.9903,-6.0152,-6.0394,-6.0525,-6.0478,-6.0236,-5.9568,-5.9208,-5.8786,-5.785,-5.796,-5.8452,-5.9034,-5.9218,-5.9448,-5.9969,-6.004,-5.9939,-5.975,-5.949,-5.9258,-5.9149,-5.8984,-5.8816,-5.8738,-5.8003,-5.7504,-5.7596,-5.6882,-5.6492,-5.676,-5.7138,-5.7437,-5.7583,-5.8684,-5.9403,-5.9501,-6.0367,-6.037,-5.9289,-5.9402,-5.9545,-5.9681,-6.0752,-6.1337,-6.1431,-6.2471,-6.3006,-6.2978,-6.3104,-6.3281,-3.8933,-4.0266,0.0,-4.2621,0.0,0.0,0.0,-4.6024,0.0,0.0,-4.822,-4.9159,-4.9412,-5.0805,-5.2208,-5.2982,-5.2642,-5.2381,-5.2761,-5.1347,-5.0232,-5.0034,-4.9148,-4.8671,-4.875,-4.8453,-4.8854,-5.0365,-5.0497,-5.1104,-5.2448,-5.2571,-5.2961,-5.3773,-5.4251,-5.4789,-5.5562,-5.6078,-5.6308,-5.6308,-5.6308,-5.6546,-5.7036,-5.7036,-5.7087,-5.7239,-5.7437,-5.7534,-5.7583,-5.7679,-5.7715,-5.7631,-5.7631,-5.7583,-5.7437,-5.7437,-5.7569,-5.7601,-5.755,-5.7746,-5.8014,-5.8115,-5.8214,-5.8361,-5.8553,-5.8908,-5.9262,-5.9139,-5.8921,-5.8651,-5.8246,-5.8173,-5.8151,-5.7873,-5.8336,-5.881,-5.8776,-5.9075,-5.9313,-5.9204,-5.8984,-5.8995,-5.9416,-5.9002,-5.8743,-5.9159,-5.8533,-5.7859,-5.7348,-5.6659,-5.6364,-5.6492,-5.6707,-5.6933,-5.7289,-5.825,-5.8933,-5.9124,-5.9522,-5.9767,-5.9838,-6.0037,-6.0229,-6.0341,-6.0853,-6.1372,-6.1974,-6.1793,-6.1735,-6.1697,-6.1306,-6.1114,-3.8397,-3.9472,0.0,-4.194,-4.2785,-4.3654,-4.4623,-4.5163,-4.5563,-4.6077,-4.7192,-4.8167,-4.8398,-4.9905,-5.1351,-5.205,-5.1669,-5.1366,-5.1777,-5.0368,-4.9245,-4.9114,-4.8598,-4.8265,-4.8306,-4.8229,-4.8886,-5.0574,-5.0519,-5.1085,-5.2607,-5.2627,-5.2951,-5.3819,-5.4187,-5.4721,-5.5486,-5.5893,-5.6028,-5.5914,-5.5822,-5.5993,-5.6292,-5.6546,-5.6707,-5.6812,-5.6984,-5.7087,-5.7138,-5.7239,-5.7289,-5.7289,-5.7388,-5.7338,-5.7239,-5.7338,-5.7289,-5.7188,-5.7188,-5.7188,-5.7188,-5.7289,-5.7556,-5.7983,-5.8458,-5.9114,-5.967,-5.9721,-5.9481,-5.9148,-5.8646,-5.8412,-5.8214,-5.7962,-5.8536,-5.9222,-5.9238,-5.9537,-5.9745,-5.9572,-5.9432,-5.9395,-5.9734,-5.9294,-5.9091,-5.9487,-5.8985,-5.827,-5.7494,-5.7175,-5.7064,-5.7178,-5.7135,-5.7388,-5.7923,-5.8652,-5.9256,-5.9734,-6.0212,-6.0493,-6.0626,-5.9924,-5.9838,-6.0452,-6.1017,-6.1766,-6.2596,-6.2656,-6.2459,-6.2084,-6.1413,-6.0936,-3.8428,-3.917,0.0,-4.1645,-4.1996,-4.2198,-4.3111,-4.4328,-4.525,-4.55,-4.6083,-4.6708,-4.7107,-4.8862,-5.0352,-5.0581,-5.0875,-5.0903,-5.0399,-4.9756,-4.9069,-4.8416,-4.8306,-4.8306,-4.8306,-4.8151,-4.8766,-5.0456,-5.0307,-5.0867,-5.2518,-5.249,-5.311,-5.4517,-5.4439,-5.4935,-5.6162,-5.5993,-5.5706,-5.5448,-5.5259,-5.5259,-5.5472,-5.6049,-5.6328,-5.6383,-5.6492,-5.6653,-5.676,-5.676,-5.6812,-5.6812,-5.7036,-5.7087,-5.6984,-5.7239,-5.7239,-5.7174,-5.7297,-5.7297,-5.7282,-5.7406,-5.7964,-5.8791,-5.9517,-6.0316,-6.0917,-6.081,-6.0502,-6.0044,-5.9081,-5.8672,-5.8614,-5.8866,-5.9459,-6.0152,-6.0534,-6.0686,-6.0696,-6.0547,-6.0297,-6.0107,-6.0043,-5.9783,-5.9652,-5.9748,-5.9278,-5.8605,-5.8,-5.8104,-5.8249,-5.8308,-5.8152,-5.8394,-5.9114,-5.9651,-6.0223,-6.0949,-6.1782,-6.2047,-6.1382,-5.9605,-5.9159,-6.0323,-6.1312,-6.2294,-6.3236,-6.4142,-6.4138,-6.3273,-6.2508,-6.1809,-3.7616,-3.7991,0.0,-4.121,-4.2589,-4.3333,-4.3082,-4.3323,-4.3852,-4.4776,-4.5255,-4.5803,-4.6725,-4.8032,-4.9089,-4.9663,-4.9586,-4.9543,-4.9691,-4.9114,-4.8641,-4.8532,-4.842,-4.8344,-4.8457,-4.8265,-4.8846,-5.0492,-5.0356,-5.0875,-5.2518,-5.2434,-5.2967,-5.4403,-5.4235,-5.467,-5.5957,-5.5706,-5.5472,-5.5259,-5.5079,-5.5053,-5.5113,-5.5472,-5.5914,-5.6253,-5.6106,-5.6217,-5.6492,-5.6492,-5.6546,-5.6653,-5.6707,-5.6812,-5.6829,-5.6881,-5.6881,-5.6989,-5.7706,-5.7959,-5.7926,-5.8681,-5.9005,-5.9132,-5.942,-5.998,-6.0483,-6.0392,-6.0167,-5.9902,-5.9585,-5.9372,-5.9158,-5.8976,-5.9203,-5.9561,-5.9531,-6.0061,-6.036,-6.0072,-5.9943,-5.9814,-5.952,-5.952,-5.9621,-5.9652,-5.899,-5.8497,-5.8485,-5.8176,-5.8033,-5.8449,-5.8503,-5.8749,-5.9313,-6.0105,-6.0699,-6.0986,-6.1324,-6.1375,-6.1281,-6.1019,-6.1124,-6.1596,-6.1923,-6.2494,-6.3519,-6.2579,-6.2063,-6.1799,-6.0642,-6.0033,-3.8114,0.0,0.0,-4.078,0.0,-4.3476,-4.2978,-4.2997,-4.3358,-4.4362,-4.4438,-4.4715,-4.58,-4.697,-4.7796,-4.7994,-4.8647,-4.9131,-4.9081,-4.8827,-4.8642,-4.875,-4.8605,-4.8532,-4.8569,-4.871,-4.9245,-5.041,-5.0591,-5.1176,-5.2371,-5.2293,-5.2821,-5.42,-5.408,-5.4562,-5.5786,-5.5625,-5.5389,-5.5079,-5.4992,-5.4869,-5.4869,-5.5113,-5.5413,-5.5706,-5.5613,-5.5729,-5.6049,-5.6049,-5.6162,-5.6237,-5.6383,-5.6437,-5.6582,-5.7084,-5.7281,-5.7442,-5.834,-5.8628,-5.8646,-5.9078,-5.9418,-5.965,-5.965,-6.0131,-6.0719,-6.0568,-6.0333,-6.0033,-5.9946,-5.9663,-5.9411,-5.9319,-5.9475,-5.9663,-5.9446,-5.9733,-5.9914,-5.9783,-5.9997,-6.0035,-5.9421,-5.9319,-5.9319,-5.9453,-5.9106,-5.8894,-5.9155,-5.8682,-5.8642,-5.9395,-5.9109,-5.9251,-6.0375,-6.072,-6.1115,-6.1531,-6.1673,-6.1777,-6.1777,-6.1828,-6.1798,-6.1728,-6.1835,-6.2345,-6.3289,-6.2213,-6.1528,-6.1124,-6.0142,-5.9552,-3.9247,0.0,-3.9515,-4.0504,-4.195,-4.3092,-4.2882,-4.2924,-4.3273,-4.4143,-4.387,-4.3828,-4.494,-4.5944,-4.6557,-4.6323,-4.7706,-4.8751,-4.853,-4.8561,-4.8739,-4.8956,-4.889,-4.8822,-4.8678,-4.9007,-4.9541,-5.0143,-5.0677,-5.1246,-5.2076,-5.2078,-5.2601,-5.3778,-5.3851,-5.4418,-5.5495,-5.5496,-5.5259,-5.4844,-5.4556,-5.446,-5.446,-5.4548,-5.4774,-5.5139,-5.5139,-5.5259,-5.559,-5.559,-5.5706,-5.5879,-5.6049,-5.6141,-5.6268,-5.7096,-5.7564,-5.7779,-5.8769,-5.9127,-5.9271,-5.9302,-5.971,-6.0094,-5.9977,-6.038,-6.0914,-6.0661,-6.0415,-6.0199,-6.0043,-5.9783,-5.9621,-5.9554,-5.9783,-5.9949,-5.976,-5.9728,-5.9763,-5.9902,-6.0423,-6.0529,-5.9631,-5.9288,-5.9253,-5.9251,-5.9251,-5.9351,-5.9683,-5.9319,-5.9432,-6.0477,-5.9799,-5.9952,-6.1508,-6.139,-6.1495,-6.2202,-6.249,-6.2668,-6.2615,-6.2656,-6.2328,-6.1733,-6.1689,-6.2058,-6.2855,-6.2045,-6.1329,-6.072,-5.9937,-5.9376,-4.0656,0.0,-4.1343,0.0,-4.1563,-4.2376,-4.2517,-4.2765,-4.3287,-4.4273,-4.3956,-4.375,-4.4664,-4.5219,-4.5617,-4.592,-4.6459,-4.7197,-4.8053,-4.8295,-4.8626,-4.9333,-4.9257,-4.9094,-4.8959,-4.8753,-4.8895,-4.9504,-4.9973,-5.0543,-5.1246,-5.1562,-5.2151,-5.2993,-5.3335,-5.3894,-5.4719,-5.5062,-5.4885,-5.4196,-5.3415,-5.2984,-5.2984,-5.3043,-5.3739,-5.5053,-5.4869,-5.493,-5.5113,-5.5199,-5.5413,-5.5566,-5.5706,-5.5822,-5.5936,-5.6099,-5.6617,-5.7326,-5.8281,-5.8934,-5.949,-6.0285,-6.0448,-6.0273,-6.0211,-6.0254,-6.0199,-6.0008,-5.9908,-5.9814,-5.9718,-5.9621,-5.9554,-5.9386,-5.9386,-5.9559,-6.015,-6.0425,-6.0634,-6.1016,-6.1153,-6.098,-6.022,-6.0047,-5.9806,-5.9116,-5.9012,-5.9081,-5.9386,-5.9415,-5.9809,-6.0512,-6.058,-6.0902,-6.1728,-6.1951,-6.2129,-6.2344,-6.3298,-6.3804,-6.3612,-6.4164,-6.4057,-6.3111,-6.2313,-6.2076,-6.2291,-6.0799,-6.0099,-6.0053,-5.8897,-5.8437,-4.0745,-4.0528,-4.038,0.0,-4.0841,-4.1358,-4.1756,-4.2022,-4.2316,-4.2932,-4.2932,-4.3293,-4.4741,-4.5244,-4.5324,-4.5223,-4.6234,-4.703,-4.7074,-4.7555,-4.8022,-4.8337,-4.8616,-4.8708,-4.8514,-4.8969,-4.9304,-4.9438,-5.0271,-5.0751,-5.0832,-5.1428,-5.1912,-5.2378,-5.2514,-5.2909,-5.3532,-5.3707,-5.3648,-5.3334,-5.2869,-5.2729,-5.2729,-5.2729,-5.3018,-5.3619,-5.4009,-5.4244,-5.44,-5.4878,-5.5139,-5.5354,-5.5413,-5.5378,-5.5448,-5.6023,-5.6375,-5.6856,-5.7776,-5.8552,-5.9197,-5.9611,-5.9875,-5.9972,-5.9972,-5.9943,-5.9783,-5.9551,-5.9418,-5.9351,-5.9149,-5.9047,-5.8978,-5.8978,-5.9047,-5.9254,-6.0082,-6.0393,-6.0601,-6.1362,-6.136,-6.1256,-6.1016,-6.0876,-6.0703,-6.0358,-5.9944,-5.9771,-5.9977,-5.9317,-5.9164,-6.0227,-5.9734,-5.9918,-6.1315,-6.1407,-6.166,-6.2238,-6.332,-6.3951,-6.3951,-6.4616,-6.4546,-6.3653,-6.3003,-6.2495,-6.2114,-6.0375,-5.9667,-5.9735,-5.8312,-5.7877,-4.0841,0.0,-4.0068,-4.0251,-4.0463,-4.073,-4.1349,-4.1659,-4.1883,-4.2101,-4.2328,-4.2965,-4.4435,-4.4738,-4.4624,-4.4265,-4.5398,-4.6199,-4.5839,-4.6526,-4.7111,-4.7274,-4.7808,-4.8211,-4.819,-4.8878,-4.927,-4.9226,-5.0095,-5.0525,-5.0402,-5.0959,-5.1438,-5.1681,-5.1836,-5.2109,-5.2416,-5.2474,-5.2474,-5.2532,-5.2358,-5.2253,-5.2253,-5.2253,-5.2196,-5.2032,-5.2909,-5.3489,-5.3792,-5.4409,-5.4818,-5.5079,-5.5139,-5.5079,-5.5061,-5.5776,-5.6152,-5.6466,-5.7386,-5.8156,-5.8759,-5.8934,-5.926,-5.9516,-5.9516,-5.9418,-5.9251,-5.9115,-5.8944,-5.8806,-5.8667,-5.8597,-5.8561,-5.8701,-5.8942,-5.9356,-6.0253,-6.0461,-6.0807,-6.1916,-6.188,-6.1671,-6.1812,-6.1671,-6.153,-6.1323,-6.0668,-6.0255,-6.0428,-5.9319,-5.8894,-5.9844,-5.9029,-5.9087,-6.0891,-6.0804,-6.1208,-6.2386,-6.3544,-6.4302,-6.4677,-6.538,-6.5254,-6.4244,-6.3892,-6.3039,-6.1716,-6.0088,-5.924,-5.9148,-5.784,-5.7437,-4.1434,-4.1541,0.0,-4.0925,-4.075,-4.1,-4.1879,-4.2362,-4.2661,-4.2752,-4.2941,-4.3117,-4.3341,-4.314,-4.2942,-4.2888,-4.3156,-4.3606,-4.4399,-4.5147,-4.589,-4.6646,-4.7204,-4.7796,-4.8445,-4.8128,-4.8076,-4.8421,-4.8753,-4.9117,-4.9543,-4.9941,-5.0416,-5.0838,-5.15,-5.1752,-5.165,-5.1787,-5.1899,-5.2011,-5.1473,-5.1122,-5.1013,-5.1122,-5.0959,-5.0606,-5.1963,-5.2918,-5.3452,-5.3575,-5.4121,-5.4842,-5.493,-5.4992,-5.4992,-5.5026,-5.5549,-5.6279,-5.7045,-5.7746,-5.838,-5.9007,-5.9046,-5.8771,-5.8771,-5.8667,-5.8561,-5.8561,-5.8561,-5.8561,-5.849,-5.849,-5.849,-5.849,-5.9179,-6.0112,-6.1011,-6.1254,-6.1668,-6.3186,-6.291,-6.2427,-6.2427,-6.2427,-6.2186,-6.1427,-6.0668,-6.0185,-6.0185,-5.9633,-5.9317,-5.9551,-5.9144,-5.9408,-6.0711,-6.0576,-6.1187,-6.3019,-6.4329,-6.5401,-6.6256,-6.71,-6.6859,-6.5345,-6.5169,-6.3669,-6.0883,-5.9617,-5.868,-5.8088,-5.7225,-5.7036,-4.1416,0.0,0.0,-4.0442,-4.0363,-4.0547,-4.0954,-4.1222,-4.14,-4.149,-4.1597,-4.171,-4.1816,-4.2517,-4.3136,-4.3228,-4.3303,-4.3483,-4.3791,-4.3995,-4.4253,-4.4481,-4.5437,-4.6135,-4.625,-4.6798,-4.735,-4.7792,-4.8114,-4.8417,-4.8719,-4.9621,-4.9731,-4.8955,-4.9444,-4.9504,-4.8964,-4.9504,-4.9938,-5.0414,-5.0678,-5.0784,-5.0873,-5.0962,-5.0764,-5.0467,-5.1454,-5.2146,-5.2666,-5.3245,-5.3901,-5.4592,-5.4523,-5.446,-5.4494,-5.4367,-5.4539,-5.4883,-5.5641,-5.6331,-5.702,-5.7775,-5.829,-5.8526,-5.8385,-5.8419,-5.8419,-5.8027,-5.8099,-5.8277,-5.7954,-5.8027,-5.8307,-5.8999,-5.9484,-6.0104,-6.159,-6.201,-6.222,-6.2626,-6.2975,-6.3048,-6.2419,-6.2655,-6.2896,-6.2621,-6.1933,-6.128,-6.0765,-6.0254,-5.9805,-5.9656,-5.8567,-5.8577,-6.0379,-5.9704,-5.9982,-6.1846,-6.3747,-6.5004,-6.549,-6.7006,-6.7399,-6.6494,-6.6358,-6.489,-6.2062,-6.0949,-5.9994,-5.9144,-5.8139,-5.749,-4.1622,-4.1245,-4.0815,-4.0486,-4.0354,-4.0446,-4.0827,-4.0695,-4.0636,-4.0976,-4.0656,-4.0324,-4.0379,-4.0962,-4.1719,-4.2497,-4.2615,-4.2652,-4.2675,-4.2866,-4.3016,-4.2936,-4.4167,-4.5016,-4.5082,-4.5923,-4.6644,-4.7114,-4.7425,-4.7752,-4.794,-4.9101,-4.9398,-4.8536,-4.8438,-4.8128,-4.7592,-4.8128,-4.8609,-4.892,-5.0041,-5.0535,-5.0433,-5.0822,-5.0764,-5.0488,-5.092,-5.1488,-5.2165,-5.3019,-5.3714,-5.4303,-5.4175,-5.4141,-5.4145,-5.4188,-5.429,-5.4427,-5.5383,-5.5962,-5.6437,-5.7255,-5.7763,-5.8027,-5.7954,-5.7954,-5.8027,-5.7588,-5.7662,-5.7808,-5.7588,-5.7864,-5.8457,-5.957,-6.0091,-6.0671,-6.2084,-6.2096,-6.2105,-6.2747,-6.2925,-6.2999,-6.2884,-6.3015,-6.3227,-6.3227,-6.237,-6.1547,-6.1033,-6.0215,-5.9599,-5.9455,-5.8307,-5.8258,-6.0001,-5.9531,-5.9823,-6.1402,-6.3625,-6.4838,-6.4928,-6.6769,-6.7487,-6.6716,-6.6938,-6.6026,-6.4007,-6.2511,-6.1309,-6.0405,-5.9196,-5.8284,0.0,0.0,0.0,-4.1154,-4.0778,-4.0804,-4.154,-4.1039,-4.0609,-4.1344,-4.0216,-3.9154,-3.9232,-3.8453,-3.8453,-4.0468,-4.0825,-4.0831,-4.0902,-4.1679,-4.219,-4.2149,-4.3424,-4.4553,-4.5092,-4.5494,-4.5914,-4.6322,-4.669,-4.7001,-4.7248,-4.8378,-4.9205,-4.9571,-4.8439,-4.7793,-4.7699,-4.7912,-4.7865,-4.772,-4.9597,-5.0165,-4.9555,-5.0594,-5.0892,-5.0585,-5.0488,-5.1014,-5.2042,-5.2763,-5.3421,-5.3912,-5.398,-5.398,-5.4049,-5.4533,-5.4737,-5.4941,-5.6401,-5.6697,-5.6578,-5.7538,-5.7554,-5.7289,-5.7289,-5.7289,-5.7289,-5.7289,-5.7289,-5.7289,-5.7289,-5.801,-5.8976,-6.0095,-6.1027,-6.1809,-6.2591,-6.1681,-6.1422,-6.364,-6.2855,-6.2309,-6.3811,-6.3512,-6.3034,-6.3034,-6.1736,-6.0779,-6.0998,-5.9766,-5.8909,-5.9047,-5.8527,-5.8588,-5.9551,-6.0043,-6.0803,-6.1955,-6.4064,-6.5135,-6.484,-6.6646,-6.7163,-6.5975,-6.6861,-6.7002,-6.6456,-6.4055,-6.25,-6.1691,-6.0289,-5.9402,-4.0311,0.0,0.0,0.0,0.0,0.0,-4.1145,-4.0785,-4.0547,-4.1323,-4.0414,-3.9558,-3.9797,-3.865,-3.7932,-3.8727,-3.8824,-3.884,-3.8945,-3.9754,-4.0348,-4.0381,-4.1792,-4.2974,-4.3541,-4.4072,-4.4764,-4.5806,-4.6186,-4.6544,-4.6844,-4.686,-4.6899,-4.709,-4.5838,-4.5119,-4.5085,-4.5681,-4.6282,-4.6837,-4.8132,-4.9116,-4.9785,-5.0083,-5.0418,-5.0819,-5.1695,-5.2077,-5.2096,-5.2118,-5.217,-5.2286,-5.3111,-5.3178,-5.2838,-5.328,-5.3344,-5.3375,-5.4455,-5.5018,-5.5475,-5.6359,-5.6929,-5.7214,-5.6987,-5.7063,-5.7214,-5.6603,-5.6757,-5.7063,-5.7063,-5.7934,-5.8976,-5.9945,-6.1018,-6.2088,-6.283,-6.2777,-6.2714,-6.3269,-6.3565,-6.3848,-6.4093,-6.3552,-6.3045,-6.3045,-6.2425,-6.1766,-6.1415,-6.0784,-6.0355,-6.0082,-5.9322,-5.9217,-6.0284,-6.0653,-6.1265,-6.2234,-6.3957,-6.4999,-6.5135,-6.6571,-6.7322,-6.7266,-6.7235,-6.7523,-6.8137,-6.6276,-6.4911,-6.4048,-6.1801,-6.0808,-4.0035,-4.0184,-4.0274,-4.0033,0.0,0.0,-4.1123,-4.0791,-4.0659,-4.1549,-4.0252,-3.9113,-3.9575,-3.8021,-3.6668,-3.6694,-3.655,-3.6781,-3.7834,-3.8555,-3.9146,-3.9603,-4.0792,-4.1863,-4.2486,-4.3056,-4.3678,-4.4244,-4.4939,-4.5907,-4.7153,-4.6972,-4.6876,-4.6961,-4.5252,-4.4293,-4.4236,-4.4313,-4.4609,-4.5008,-4.6707,-4.7963,-4.8818,-4.9503,-5.033,-5.1255,-5.1882,-5.2181,-5.2131,-5.2067,-5.2183,-5.2329,-5.264,-5.264,-5.2437,-5.2931,-5.2986,-5.2942,-5.3817,-5.4203,-5.4485,-5.514,-5.5771,-5.6293,-5.6062,-5.6371,-5.668,-5.6244,-5.6369,-5.6823,-5.7233,-5.8141,-5.9261,-6.0078,-6.1346,-6.236,-6.2515,-6.2941,-6.3396,-6.3448,-6.3533,-6.3633,-6.3548,-6.2915,-6.2399,-6.2264,-6.179,-6.1425,-6.1264,-6.0891,-6.0574,-6.049,-6.0114,-6.0151,-6.0878,-6.15,-6.2016,-6.2389,-6.4002,-6.4939,-6.4864,-6.5983,-6.6555,-6.6442,-6.6076,-6.6542,-6.7932,-6.7359,-6.6687,-6.5895,-6.423,-6.3069,-4.046,-4.0156,-3.976,-4.0356,-4.0722,0.0,-4.1222,-4.0848,-4.0709,-4.1649,-3.9746,-3.8082,-3.8719,-3.68,-3.5053,-3.4834,-3.4327,-3.4752,-3.7003,-3.7643,-3.8218,-3.9165,-4.0078,-4.095,-4.1714,-4.23,-4.2527,-4.2382,-4.3574,-4.5366,-4.7743,-4.7947,-4.7974,-4.7962,-4.5799,-4.4538,-4.4215,-4.3373,-4.2915,-4.274,-4.5165,-4.6569,-4.7177,-4.8872,-5.0395,-5.1695,-5.1767,-5.183,-5.2021,-5.2425,-5.2806,-5.3011,-5.2303,-5.22,-5.2487,-5.2937,-5.2983,-5.3,-5.3658,-5.3836,-5.3815,-5.4043,-5.4525,-5.5025,-5.5025,-5.5483,-5.6006,-5.6006,-5.6165,-5.6455,-5.7351,-5.8507,-5.9555,-6.0303,-6.1662,-6.2699,-6.1956,-6.2704,-6.3629,-6.3588,-6.2974,-6.2427,-6.2549,-6.2038,-6.1541,-6.115,-6.0671,-6.0531,-6.0998,-6.0526,-6.0173,-6.0476,-6.0774,-6.1067,-6.1355,-6.2402,-6.2927,-6.2676,-6.4309,-6.5004,-6.4498,-6.5297,-6.5454,-6.4662,-6.4268,-6.4928,-6.6699,-6.7643,-6.7853,-6.7428,-6.6925,-6.5563,-4.0109,-4.015,-4.0299,-3.9514,-4.0058,0.0,-4.0479,-4.0221,-4.0079,-4.0185,-3.8656,-3.7294,-3.7261,-3.5448,-3.4101,-3.4541,-3.3556,-3.3131,-3.4517,-3.5796,-3.6754,-3.7208,-3.8248,-3.9442,-4.0898,-4.0989,-4.1453,-4.2543,-4.4244,-4.5898,-4.7425,-4.7664,-4.7551,-4.7062,-4.5411,-4.4044,-4.2943,-4.1967,-4.156,-4.1716,-4.3048,-4.4785,-4.6916,-4.8444,-4.986,-5.1208,-5.2603,-5.283,-5.2196,-5.2402,-5.2033,-5.1263,-5.1358,-5.1347,-5.1234,-5.1257,-5.1394,-5.162,-5.1932,-5.2486,-5.3226,-5.3428,-5.4305,-5.5296,-5.5134,-5.5312,-5.5491,-5.5491,-5.5572,-5.5685,-5.625,-5.7747,-5.9093,-5.9385,-6.1368,-6.2954,-6.2486,-6.3004,-6.332,-6.2141,-6.2389,-6.2847,-6.2847,-6.1955,-6.1415,-6.1928,-6.1172,-6.0886,-6.1733,-6.0884,-6.037,-6.0762,-6.1028,-6.1299,-6.1673,-6.2763,-6.3785,-6.4454,-6.5126,-6.5689,-6.6074,-6.6285,-6.5864,-6.4953,-6.4552,-6.4963,-6.6269,-6.7723,-6.865,-6.8939,-6.7915,-6.6628,-4.0413,-4.0181,-4.0018,-3.9682,-4.0355,0.0,0.0,-4.0212,-4.0294,-4.0728,-3.8832,-3.7297,-3.8019,-3.614,-3.4368,-3.4143,-3.3383,-3.3037,-3.3684,-3.4587,-3.5356,-3.589,-3.6962,-3.832,-4.0046,-4.0051,-4.0677,-4.24,-4.403,-4.5475,-4.682,-4.7534,-4.7497,-4.6593,-4.5046,-4.3597,-4.2293,-4.1036,-4.0609,-4.0961,-4.2375,-4.4136,-4.6167,-4.8342,-5.0042,-5.1428,-5.2635,-5.3023,-5.2738,-5.2408,-5.1868,-5.1106,-5.1026,-5.091,-5.0913,-5.0797,-5.0876,-5.0896,-5.1048,-5.1572,-5.2316,-5.2284,-5.299,-5.392,-5.4058,-5.4409,-5.4685,-5.4498,-5.4824,-5.536,-5.5685,-5.7248,-5.8937,-5.9827,-6.148,-6.2782,-6.2697,-6.283,-6.2588,-6.1466,-6.128,-6.128,-6.0929,-6.0857,-6.0999,-6.109,-6.1037,-6.1164,-6.1339,-6.0942,-6.052,-6.049,-6.0865,-6.1266,-6.1626,-6.2498,-6.3426,-6.4559,-6.4818,-6.5377,-6.6443,-6.5945,-6.4701,-6.2819,-6.2404,-6.2953,-6.4542,-6.5774,-6.7511,-6.9612,-6.8596,-6.7419,-4.0945,-4.0486,-4.0041,-4.0123,-4.0965,-4.1505,0.0,0.0,0.0,-4.1117,-3.8998,-3.734,-3.8498,-3.6662,-3.4759,-3.3917,-3.3591,-3.34,-3.3516,-3.3918,-3.4475,-3.5244,-3.6129,-3.7296,-3.8945,-3.9198,-4.012,-4.22,-4.352,-4.4848,-4.6227,-4.7352,-4.7506,-4.6398,-4.4739,-4.3284,-4.2055,-4.0471,-3.9951,-4.0418,-4.2239,-4.394,-4.5506,-4.8246,-5.0236,-5.1392,-5.227,-5.2669,-5.276,-5.2184,-5.1627,-5.104,-5.0552,-5.0445,-5.0711,-5.0583,-5.0461,-5.0434,-5.0434,-5.0802,-5.1296,-5.1135,-5.1611,-5.2194,-5.2755,-5.3269,-5.3584,-5.3228,-5.386,-5.4832,-5.5002,-5.6629,-5.8576,-5.9971,-6.1393,-6.2436,-6.2603,-6.2424,-6.1886,-6.1078,-6.0317,-5.9659,-5.9222,-5.9949,-6.0455,-6.0291,-6.0796,-6.111,-6.0811,-6.0793,-6.0583,-5.9999,-6.041,-6.0903,-6.1283,-6.1803,-6.2685,-6.4118,-6.4366,-6.5073,-6.6528,-6.5575,-6.3701,-6.1,-6.0598,-6.1197,-6.2781,-6.3534,-6.5773,-6.9412,-6.8622,-6.7545,-4.1296,-4.1406,-4.1507,-4.0329,-4.1449,-4.2255,-4.0089,0.0,-4.0182,-3.8743,0.0,-3.6477,-3.5804,0.0,0.0,-3.4515,-3.4015,-3.3501,-3.322,-3.3939,-3.486,-3.5721,-3.5766,-3.6157,-3.718,-3.8273,-3.9774,-4.1946,-4.3287,-4.4591,-4.5915,-4.7044,-4.7349,-4.6595,-4.4886,-4.3442,-4.2255,-4.0345,-3.9754,-4.0528,-4.1828,-4.3469,-4.5534,-4.8183,-4.963,-5.009,-5.18,-5.1852,-5.0875,-5.1411,-5.0938,-4.9773,-4.9374,-4.9578,-4.9915,-4.9282,-4.9363,-4.9693,-4.9693,-5.0053,-5.0454,-5.0372,-5.0871,-5.159,-5.2246,-5.2324,-5.2144,-5.1999,-5.2722,-5.3569,-5.3649,-5.5325,-5.7313,-5.8226,-6.0178,-6.1892,-6.2169,-6.195,-6.1565,-6.0751,-6.0152,-5.9652,-5.985,-5.9977,-6.0326,-6.1055,-6.0772,-6.0614,-6.112,-6.0391,-5.9781,-6.0024,-5.9863,-6.0001,-6.0397,-6.0903,-6.1916,-6.3817,-6.4689,-6.5901,-6.7367,-6.6211,-6.4654,-6.2556,-6.2075,-6.1912,-6.1972,-6.262,-6.4575,-6.7669,-6.698,-6.6356,-4.1264,-4.1554,-4.1795,-4.046,-4.1525,-4.2366,-4.042,-4.0192,-4.0235,-3.9707,0.0,0.0,0.0,0.0,0.0,0.0,-3.4683,-3.4722,-3.5139,-3.5426,-3.5338,-3.4653,-3.5165,-3.6049,-3.725,-3.7997,-3.9486,-4.2031,-4.2955,-4.4345,-4.644,-4.6693,-4.6471,-4.5725,-4.4312,-4.2798,-4.1071,-4.0119,-4.0011,-4.062,-4.211,-4.3737,-4.5535,-4.8053,-4.943,-4.9851,-5.0575,-5.0812,-5.0555,-5.0033,-4.9597,-4.9211,-4.8697,-4.8929,-4.947,-4.9157,-4.9202,-4.921,-4.921,-4.9563,-4.9956,-4.9987,-5.0198,-5.0549,-5.0599,-5.0672,-5.0831,-5.0901,-5.1605,-5.2461,-5.2582,-5.4316,-5.641,-5.7815,-5.9497,-6.0963,-6.2011,-6.1753,-6.1078,-6.0284,-6.0377,-6.047,-6.0439,-6.0428,-6.0469,-6.085,-6.0975,-6.085,-6.0348,-5.9881,-5.9286,-5.8655,-5.8585,-5.885,-5.9298,-6.0008,-6.1186,-6.2934,-6.496,-6.6213,-6.6756,-6.581,-6.4544,-6.2776,-6.1822,-6.1432,-6.1836,-6.127,-6.2236,-6.4638,-6.4754,-6.477,-4.1309,-4.1757,-4.211,-4.0562,-4.138,-4.208,-4.0271,-3.9905,-3.9953,-3.9945,-3.8197,0.0,0.0,0.0,-3.5896,-3.5646,0.0,-3.6326,-3.6791,-3.6895,-3.6355,-3.4826,-3.5202,-3.5927,-3.6762,-3.7553,-3.9063,-4.1622,-4.2523,-4.4047,-4.655,-4.609,-4.5459,-4.4852,-4.3481,-4.2009,-4.0422,-3.9974,-4.013,-4.0969,-4.2276,-4.3692,-4.5367,-4.7413,-4.861,-4.8987,-4.9174,-4.9456,-4.9704,-4.8892,-4.8585,-4.8546,-4.8147,-4.8385,-4.8852,-4.8965,-4.8883,-4.8749,-4.8749,-4.8974,-4.9236,-4.945,-4.9438,-4.9448,-4.9316,-4.9387,-4.9577,-4.9539,-5.0327,-5.1208,-5.1475,-5.3219,-5.538,-5.7402,-5.8715,-5.9965,-6.1571,-6.1252,-6.0578,-6.027,-6.0578,-6.0917,-6.1182,-6.1258,-6.1255,-6.1457,-6.1605,-6.1418,-6.0553,-6.0027,-5.9371,-5.8431,-5.8123,-5.8122,-5.878,-5.9344,-6.0633,-6.2932,-6.5279,-6.6615,-6.6917,-6.6154,-6.5029,-6.3513,-6.2198,-6.165,-6.1815,-6.0392,-6.0465,-6.1757,-6.2287,-6.2765,-4.1704,-4.2243,-4.2914,-4.066,-4.0974,-4.1274,-3.9227,-3.8978,-3.8989,-3.8066,-3.7675,-3.7436,-3.7408,-3.7504,-3.7448,-3.7236,-3.7843,0.0,0.0,-3.7941,-3.8154,-3.7351,-3.625,-3.5391,-3.5015,-3.6503,-3.8368,-4.038,-4.2002,-4.3779,-4.5711,-4.5093,-4.4552,-4.4335,-4.2494,-4.1386,-4.1085,-3.9708,-3.9957,-4.1799,-4.2186,-4.3216,-4.465,-4.6163,-4.6832,-4.7119,-4.7623,-4.7712,-4.7672,-4.8089,-4.8083,-4.7654,-4.788,-4.788,-4.7709,-4.7964,-4.8049,-4.8049,-4.8049,-4.8079,-4.8201,-4.884,-4.8627,-4.8147,-4.887,-4.8736,-4.8265,-4.7779,-4.8745,-4.9965,-5.0242,-5.1867,-5.408,-5.6404,-5.7878,-5.917,-6.0589,-6.024,-6.0014,-6.1155,-6.0593,-6.0457,-6.2089,-6.2518,-6.2946,-6.3474,-6.284,-6.2301,-6.258,-6.1002,-6.0098,-6.0459,-5.8905,-5.8311,-5.9367,-5.9157,-6.0519,-6.432,-6.5707,-6.7262,-6.883,-6.824,-6.7102,-6.5511,-6.438,-6.3119,-6.1822,-6.0478,-5.9696,-5.9223,-5.9563,-6.0345,-4.289,-4.3428,-4.3663,-4.1624,-4.1825,-4.195,-3.9808,-3.9613,-3.9687,-3.8865,-3.8807,-3.8791,-3.8712,-3.817,-3.7885,-3.8387,-3.838,-3.8433,0.0,-3.8999,-3.8432,-3.6524,-3.5616,-3.5364,-3.5866,-3.6343,-3.8043,-4.1364,-4.1175,-4.2415,-4.5875,-4.3856,-4.2696,-4.3202,-4.1841,-4.077,-3.9959,-3.9434,-3.9726,-4.085,-4.1268,-4.2289,-4.3726,-4.4713,-4.5525,-4.6177,-4.6246,-4.6529,-4.704,-4.711,-4.7139,-4.7193,-4.7279,-4.7193,-4.7193,-4.7624,-4.7538,-4.7279,-4.7106,-4.7316,-4.7554,-4.716,-4.71,-4.7219,-4.7096,-4.7193,-4.7495,-4.803,-4.8531,-4.9238,-5.0632,-5.1757,-5.3159,-5.5526,-5.6615,-5.7663,-5.9546,-5.9773,-5.9758,-6.0452,-6.0923,-6.1455,-6.2001,-6.3072,-6.3578,-6.2576,-6.2279,-6.1919,-6.1122,-6.0677,-6.0058,-5.9336,-5.8522,-5.8273,-5.8806,-5.9687,-6.1558,-6.4366,-6.5445,-6.6388,-6.7231,-6.7418,-6.656,-6.4728,-6.4159,-6.3042,-6.1386,-6.0361,-5.9556,-5.8912,-5.8065,-5.8362,-4.3684,-4.4011,-4.4124,-4.2441,-4.2297,-4.21,-4.0373,-4.0166,-4.0158,-3.9571,-3.9611,-3.9827,-3.9985,-3.9255,-3.8894,-3.9494,-3.9309,-3.9289,0.0,-3.9481,-3.8514,-3.7006,-3.6204,-3.5685,-3.5497,-3.6282,-3.7822,-4.0422,-4.0155,-4.12,-4.4263,-4.2259,-4.1182,-4.1653,-4.067,-3.9921,-3.9402,-3.883,-3.9222,-4.0521,-4.0532,-4.1333,-4.2857,-4.3352,-4.4152,-4.5303,-4.4967,-4.5533,-4.6446,-4.64,-4.6491,-4.6668,-4.6756,-4.6668,-4.6609,-4.7199,-4.717,-4.6844,-4.6755,-4.6783,-4.6872,-4.6313,-4.6401,-4.6667,-4.634,-4.643,-4.6875,-4.7786,-4.8165,-4.8688,-5.0623,-5.152,-5.2544,-5.5129,-5.5984,-5.6799,-5.9099,-5.9387,-5.9477,-6.0266,-6.0957,-6.1459,-6.2108,-6.3183,-6.3617,-6.2626,-6.265,-6.2405,-6.1489,-6.0975,-6.0352,-5.9659,-5.8715,-5.8369,-5.874,-6.0147,-6.1916,-6.3924,-6.4725,-6.5513,-6.645,-6.6527,-6.6031,-6.4785,-6.3989,-6.2921,-6.162,-6.0633,-5.9643,-5.8787,-5.7658,-5.7555]}]]